[[{"header":{"parameterUnit":"m.s-1","parameterCategory":1,"la1":30.6,"la2":29.2853,"lo1":-89.7004,"lo2":-87.6739,"dy":0.0162,"dx":0.0183,"nx":112,"ny":82,"refTime":"2026-04-16T12:00:00:Z","depth":0,"parameterNumber":2,"parameterNumberName":"U-component_of_WINDS"},"data":[0.0,0.0,0.0,0.0,0.0,0.0,0.0,0.0,0.0,0.0,0.0,0.0,0.0,0.0,0.0,0.0,0.0,0.0,0.0,0.0,0.0,0.0,0.0,0.0,0.0,0.0,0.0,0.0,0.0,0.0,0.0,0.0,0.0,0.0,0.0,0.0,0.0,0.0,0.0,0.0,0.0,0.0,0.0,0.0,0.0,0.0,0.0,0.0,0.0,0.0,0.0,0.0,0.0,0.0,0.0,0.0,0.0,0.0,0.0,0.0,0.0,0.0,0.0,0.0,0.0,0.0,0.0,0.0,0.0,0.0,0.0,0.0,0.0,0.0,0.0,0.0,0.0,0.0,0.0,0.0,0.0,0.0,0.0,0.0,0.0,0.0,0.0,0.0,0.0,0.0,0.0,1.6239,1.8877,2.0138,1.9221,1.8459,1.7432,1.6021,0.0,0.0,0.0,0.0,0.0,0.0,0.0,0.0,0.0,0.0,0.0,0.0,0.0,0.0,0.0,0.0,0.0,0.0,0.0,0.0,0.0,0.0,0.0,0.0,0.0,0.0,0.0,0.0,0.0,0.0,0.0,0.0,0.0,0.0,0.0,0.0,0.0,0.0,0.0,0.0,0.0,0.0,0.0,0.0,0.0,0.0,0.0,0.0,0.0,0.0,0.0,0.0,0.0,0.0,0.0,0.0,0.0,0.0,0.0,0.0,0.0,0.0,0.0,0.0,0.0,0.0,0.0,0.0,0.0,0.0,0.0,0.0,0.0,0.0,0.0,0.0,0.0,0.0,0.0,0.0,0.0,0.0,0.0,0.0,0.0,0.0,0.0,0.0,0.0,0.0,0.0,0.0,0.0,0.0,0.0,0.0,0.0,0.0,0.0,0.0,0.0,0.0,0.0,0.0,1.5413,1.7725,1.8947,1.9432,1.8982,1.7981,1.696,1.6037,0.0,0.0,0.0,0.0,0.0,0.0,0.0,0.0,0.0,0.0,0.0,0.0,0.0,0.0,0.0,0.0,0.0,0.0,0.0,0.0,0.0,0.0,0.0,0.0,0.0,0.0,0.0,0.0,0.0,0.0,0.0,0.0,0.0,0.0,0.0,0.0,0.0,0.0,0.0,0.0,0.0,0.0,0.0,0.0,0.0,0.0,0.0,0.0,0.0,0.0,0.0,0.0,0.0,0.0,0.0,0.0,0.0,0.0,0.0,0.0,0.0,0.0,0.0,0.0,0.0,0.0,0.0,0.0,0.0,0.0,0.0,0.0,0.0,0.0,0.0,0.0,0.0,0.0,0.0,0.0,0.0,0.0,0.0,0.0,0.0,0.0,0.0,0.0,0.0,0.0,0.0,0.0,0.0,0.0,0.0,0.0,0.0,0.0,0.0,0.0,0.0,0.0,0.0,1.5338,1.6904,1.845,1.9105,1.9118,1.8476,1.7675,1.6643,1.532,1.3443,0.0,0.0,0.0,0.0,0.0,0.0,0.0,0.0,0.0,0.0,0.0,0.0,0.0,0.0,0.0,0.0,0.0,0.0,0.0,0.0,0.0,0.0,0.0,0.0,0.0,0.0,0.0,0.0,0.0,0.0,0.0,0.0,0.0,0.0,0.0,0.0,0.0,0.0,0.0,0.0,0.0,0.0,0.0,0.0,0.0,0.0,0.0,0.0,0.0,0.0,0.0,0.0,0.0,0.0,0.0,0.0,0.0,0.0,0.0,0.0,0.0,0.0,0.0,0.0,0.0,0.0,0.0,0.0,0.0,0.0,0.0,0.0,0.0,0.0,0.0,0.0,0.0,0.0,0.0,0.0,0.0,0.0,0.0,0.0,0.0,0.0,0.0,0.0,0.0,0.0,0.0,0.0,0.0,0.0,0.0,0.0,0.0,0.0,0.0,0.0,0.0,0.0,1.7073,1.8154,1.8836,1.9262,1.9078,1.8103,1.7368,1.6268,1.4593,1.2976,0.0,0.0,0.0,0.0,0.0,0.0,0.0,0.0,0.0,0.0,0.0,0.0,0.0,0.0,0.0,0.0,0.0,0.0,0.0,0.0,0.0,0.0,0.0,0.0,0.0,0.0,0.0,0.0,0.0,0.0,0.0,0.0,0.0,0.0,0.0,0.0,0.0,0.0,0.0,0.0,0.0,0.0,0.0,0.0,0.0,0.0,0.0,0.0,0.0,0.0,0.0,0.0,0.0,0.0,0.0,0.0,0.0,0.0,0.0,0.0,0.0,0.0,0.0,0.0,0.0,0.0,0.0,0.0,0.0,0.0,0.0,0.0,0.0,0.0,0.0,0.0,0.0,0.0,0.0,0.0,0.0,0.0,0.0,0.0,0.0,0.0,0.0,0.0,0.0,0.0,0.0,0.0,0.0,0.0,0.0,0.0,0.0,0.0,0.0,0.0,0.0,0.0,1.7638,1.8545,1.8879,1.9412,1.9305,1.8089,1.6994,1.5741,1.4241,1.2456,0.0,0.0,0.0,0.0,0.0,0.0,0.0,0.0,0.0,0.0,0.0,0.0,0.0,0.0,0.0,0.0,0.0,0.0,0.0,0.0,0.0,0.0,0.0,0.0,0.0,0.0,0.0,0.0,0.0,0.0,0.0,0.0,0.0,0.0,0.0,0.0,0.0,0.0,0.0,0.0,0.0,0.0,0.0,0.0,0.0,0.0,0.0,0.0,0.0,0.0,0.0,0.0,0.0,0.0,0.0,0.0,0.0,0.0,0.0,0.0,0.0,0.0,0.0,0.0,0.0,0.0,0.0,0.0,0.0,0.0,0.0,0.0,0.0,0.0,0.0,0.0,0.0,0.0,0.0,0.0,0.0,0.0,0.0,0.0,0.0,0.0,0.0,0.0,0.0,0.0,0.0,0.0,0.0,0.0,0.0,0.0,0.0,0.0,0.0,0.0,0.0,0.0,1.7972,1.8945,0.0,1.9797,1.957,1.8424,1.7421,1.6079,1.4227,0.0,0.0,0.0,0.0,0.0,0.0,0.0,0.0,0.0,0.0,0.0,0.0,0.0,0.0,0.0,0.0,0.0,0.0,0.0,0.0,0.0,0.0,0.0,0.0,0.0,0.0,0.0,0.0,0.0,0.0,0.0,0.0,0.0,0.0,0.0,0.0,0.0,0.0,0.0,0.0,0.0,0.0,0.0,0.0,0.0,0.0,0.0,0.0,0.0,0.0,0.0,0.0,0.0,0.0,0.0,0.0,0.0,0.0,0.0,0.0,0.0,0.0,0.0,0.0,0.0,0.0,0.0,0.0,0.0,0.0,0.0,0.0,0.0,0.0,0.0,0.0,0.0,0.0,0.0,0.0,0.0,0.0,0.0,0.0,0.0,0.0,0.0,0.0,0.0,0.0,0.0,0.0,0.0,0.0,0.0,0.0,0.0,0.0,0.0,0.0,0.0,0.0,1.6728,1.8275,1.9359,0.0,2.0147,1.9867,1.8597,1.7608,1.6214,1.4207,0.0,0.0,0.0,0.0,0.0,0.0,0.0,0.0,0.0,0.0,0.0,0.0,0.0,0.0,0.0,0.0,0.0,0.0,0.0,0.0,0.0,0.0,0.0,0.0,0.0,0.0,0.0,0.0,0.0,0.0,0.0,0.0,0.0,0.0,0.0,0.0,0.0,0.0,0.0,0.0,0.0,0.0,0.0,0.0,0.0,0.0,0.0,0.0,0.0,0.0,0.0,0.0,0.0,0.0,0.0,0.0,0.0,0.0,0.0,0.0,0.0,0.0,0.0,0.0,0.0,0.0,0.0,0.0,0.0,0.0,0.0,0.0,0.0,0.0,0.0,0.0,0.0,0.0,0.0,0.0,0.0,0.0,0.0,0.0,0.0,0.0,0.0,0.0,0.0,0.0,0.0,0.0,0.0,0.0,0.0,0.0,0.0,0.0,0.0,0.0,0.0,0.0,1.6757,1.8632,1.98,1.9813,2.0365,2.0124,1.8624,1.7422,1.5964,0.0,0.0,0.0,0.0,0.0,0.0,0.0,0.0,0.0,0.0,0.0,0.0,0.0,0.0,0.0,0.0,0.0,0.0,0.0,0.0,0.0,0.0,0.0,0.0,0.0,0.0,0.0,0.0,0.0,0.0,0.0,0.0,0.0,0.0,0.0,0.0,0.0,0.0,0.0,0.0,0.0,0.0,0.0,0.0,0.0,0.0,0.0,0.0,0.0,0.0,0.0,0.0,0.0,0.0,0.0,0.0,0.0,0.0,0.0,0.0,0.0,0.0,0.0,0.0,0.0,0.0,0.0,0.0,0.0,0.0,0.0,0.0,0.0,0.0,0.0,0.0,0.0,0.0,0.0,0.0,0.0,0.0,0.0,0.0,0.0,0.0,0.0,0.0,0.0,0.0,0.0,0.0,0.0,0.0,0.0,0.0,0.0,0.0,0.0,0.0,0.0,0.0,0.0,0.0,1.8769,1.996,2.0405,2.0748,2.0561,1.9506,1.8704,1.7337,1.5207,0.0,0.0,0.0,0.0,0.0,0.0,0.0,0.0,0.0,0.0,0.0,0.0,0.0,0.0,0.0,0.0,0.0,0.0,0.0,0.0,0.0,0.0,0.0,0.0,0.0,0.0,0.0,0.0,0.0,0.0,0.0,0.0,0.0,0.0,0.0,0.0,0.0,0.0,0.0,0.0,0.0,0.0,0.0,0.0,0.0,0.0,0.0,0.0,0.0,0.0,0.0,0.0,0.0,0.0,0.0,0.0,0.0,0.0,0.0,0.0,0.0,0.0,0.0,0.0,0.0,0.0,0.0,0.0,0.0,0.0,0.0,0.0,0.0,0.0,0.0,0.0,0.0,0.0,0.0,0.0,0.0,0.0,0.0,0.0,0.0,0.0,0.0,0.0,0.0,0.0,0.0,0.0,0.0,0.0,0.0,0.0,0.0,0.0,0.0,0.0,0.0,0.0,1.7117,1.8892,2.0147,2.0659,2.0935,2.0842,2.0201,1.969,1.8494,1.6362,0.0,0.0,0.0,0.0,0.0,0.0,0.0,0.0,0.0,0.0,0.0,0.0,0.0,0.0,0.0,0.0,0.0,0.0,0.0,0.0,0.0,0.0,0.0,0.0,0.0,0.0,0.0,0.0,0.0,0.0,0.0,0.0,0.0,0.0,0.0,0.0,0.0,0.0,0.0,0.0,0.0,0.0,0.0,0.0,0.0,0.0,0.0,0.0,0.0,0.0,0.0,0.0,0.0,0.0,0.0,0.0,0.0,0.0,0.0,0.0,0.0,0.0,0.0,0.0,0.0,0.0,0.0,0.0,0.0,0.0,0.0,0.0,0.0,0.0,0.0,0.0,0.0,0.0,0.0,0.0,0.0,0.0,0.0,0.0,0.0,0.0,0.0,0.0,0.0,0.0,0.0,0.0,0.0,0.0,0.0,0.0,0.0,0.0,0.0,0.0,0.0,0.0,1.7185,1.9055,2.0305,2.0659,2.0921,2.0961,2.0686,2.0376,1.935,1.7381,0.0,0.0,0.0,0.0,0.0,0.0,0.0,0.0,0.0,0.0,0.0,0.0,0.0,0.0,0.0,0.0,0.0,0.0,0.0,0.0,0.0,0.0,0.0,0.0,0.0,0.0,0.0,0.0,0.0,0.0,0.0,0.0,0.0,0.0,0.0,0.0,0.0,0.0,0.0,0.0,0.0,0.0,0.0,0.0,0.0,0.0,0.0,0.0,0.0,0.0,0.0,0.0,0.0,0.0,0.0,0.0,0.0,0.0,0.0,0.0,1.6468,0.0,0.0,0.0,0.0,0.0,0.0,0.0,0.0,0.0,0.0,0.0,0.0,0.0,0.0,0.0,0.0,0.0,0.0,0.0,0.0,0.0,0.0,0.0,0.0,0.0,0.0,0.0,0.0,0.0,0.0,0.0,0.0,0.0,0.0,0.0,0.0,0.0,0.0,0.0,0.0,0.0,1.7492,1.9163,2.022,2.0503,2.0785,2.0747,2.0278,2.0156,1.9231,1.7118,0.0,0.0,0.0,0.0,0.0,0.0,0.0,0.0,0.0,0.0,0.0,0.0,0.0,0.0,0.0,0.0,0.0,0.0,0.0,0.0,0.0,0.0,0.0,0.0,0.0,0.0,0.0,0.0,0.0,0.0,0.0,0.0,0.0,0.0,0.0,0.0,0.0,0.0,0.0,0.0,0.0,0.0,0.0,0.0,0.0,0.0,0.0,0.0,0.0,0.0,0.0,0.0,0.0,0.0,0.0,0.0,0.0,0.0,0.0,0.0,0.0,1.8303,0.0,0.0,0.0,0.0,0.0,0.0,0.0,0.0,0.0,0.0,0.0,0.0,0.0,0.0,0.0,0.0,0.0,0.0,0.0,0.0,0.0,0.0,0.0,0.0,0.0,0.0,0.0,0.0,0.0,0.0,0.0,0.0,0.0,0.0,0.0,0.0,0.0,0.0,0.0,0.0,1.7627,1.9174,2.0208,2.0455,2.0735,2.0735,2.0335,2.0278,1.9517,1.768,1.6507,0.0,0.0,0.0,0.0,0.0,0.0,0.0,0.0,0.0,0.0,0.0,0.0,0.0,0.0,0.0,0.0,0.0,0.0,0.0,0.0,0.0,0.0,0.0,0.0,0.0,0.0,0.0,0.0,0.0,0.0,0.0,0.0,0.0,0.0,0.0,0.0,0.0,0.0,0.0,0.0,0.0,0.0,0.0,0.0,0.0,0.0,0.0,0.0,0.0,0.0,0.0,0.0,0.0,0.0,2.3359,2.369,2.4175,2.4511,2.4615,2.291,2.1802,2.1129,0.0,0.0,0.0,0.0,0.0,0.0,0.0,0.0,0.0,0.0,0.0,0.0,0.0,0.0,0.0,0.0,0.0,0.0,0.0,0.0,0.0,0.0,0.0,0.0,0.0,1.7744,1.7427,0.0,0.0,0.0,0.0,0.0,0.0,0.0,0.0,0.0,0.0,0.0,0.0,1.7689,1.9181,2.0167,2.0444,2.0721,2.0772,2.0495,2.0432,1.9821,1.8471,1.7247,1.6075,0.0,0.0,0.0,0.0,0.0,0.0,0.0,0.0,0.0,0.0,0.0,0.0,0.0,0.0,0.0,0.0,0.0,0.0,0.0,0.0,0.0,0.0,0.0,0.0,0.0,0.0,0.0,0.0,0.0,0.0,0.0,0.0,1.2826,1.2761,0.0,0.0,0.0,0.0,0.0,0.0,0.0,0.0,0.0,0.0,0.0,0.0,0.0,0.0,2.3168,2.4208,2.4962,2.5448,2.6553,2.7078,2.717,2.7924,2.8281,2.8336,2.8386,0.0,2.3106,2.2828,0.0,0.0,0.0,0.0,0.0,0.0,0.0,0.0,0.0,0.0,0.0,0.0,0.0,0.0,0.0,0.0,0.0,0.0,0.0,0.0,0.0,0.0,2.0241,1.9744,1.9481,1.9244,0.0,1.7994,1.6932,1.6395,0.0,0.0,0.0,0.0,0.0,0.0,0.0,0.0,1.7807,1.9173,2.0014,2.0315,2.0583,2.0632,2.0364,2.0099,1.9597,1.8709,1.7722,1.6856,1.6118,1.4711,0.0,0.0,0.0,0.0,0.0,0.0,0.0,0.0,0.0,0.0,0.0,0.0,0.0,0.0,0.0,0.0,0.0,0.0,0.0,0.0,0.0,0.0,0.0,0.0,0.0,0.0,0.0,0.0,0.0,1.2838,1.3925,1.3895,1.4471,1.4669,0.0,0.0,0.0,0.0,0.0,0.0,0.0,0.0,0.0,2.3015,2.4127,2.5459,2.7041,2.7969,2.8638,2.9042,3.0033,3.051,3.0516,3.1322,3.1689,3.1726,3.2111,3.1029,2.8781,2.6655,2.4856,2.3232,0.0,0.0,0.0,0.0,0.0,2.2381,2.3589,0.0,0.0,0.0,0.0,0.0,0.0,0.0,0.0,0.0,0.0,0.0,0.0,0.0,0.0,2.0086,1.9863,1.9784,1.9784,1.9268,1.8537,0.0,1.7039,1.6248,1.5069,0.0,0.0,0.0,0.0,0.0,1.8088,1.9249,1.9989,2.0277,2.0543,2.0591,2.0337,2.0204,1.9778,1.8971,1.8398,1.7807,1.718,1.5963,1.5301,0.0,0.0,0.0,0.0,0.0,0.0,0.0,0.0,0.0,0.0,0.0,0.0,0.0,0.0,0.0,0.0,0.0,0.0,0.0,0.0,0.0,0.0,0.0,0.0,0.0,0.0,0.0,0.0,1.4247,1.5225,1.5435,1.6059,1.6327,0.0,0.0,0.0,0.0,0.0,0.0,2.2254,2.297,2.4214,2.6135,2.6985,2.8122,2.9619,3.023,3.0761,3.1297,3.1982,3.2379,3.2453,3.3155,3.3479,3.3532,3.382,3.3622,3.2847,3.0249,2.8101,2.6202,2.4105,2.3123,2.2986,2.3626,2.458,2.5782,2.7521,2.7812,2.7261,2.6563,0.0,2.3602,2.2307,0.0,0.0,0.0,0.0,2.0509,2.0217,0.0,2.0933,2.0347,2.0255,2.0279,2.0241,2.0134,1.9764,0.0,1.8073,1.7424,1.6203,0.0,0.0,0.0,0.0,1.6739,1.8433,1.9456,2.012,2.0386,2.0591,2.0628,2.0434,2.035,2.0023,1.9358,1.9007,1.8588,1.8056,1.7056,1.6548,0.0,0.0,0.0,0.0,0.0,0.0,0.0,0.0,0.0,0.0,0.0,0.0,0.0,0.0,0.0,0.0,0.0,0.0,0.0,0.0,0.0,0.0,0.0,0.0,0.0,0.0,0.0,0.0,0.0,0.0,1.7758,1.8195,0.0,0.0,0.0,0.0,2.0312,2.1716,2.3039,2.4197,2.5677,2.688,2.7753,2.8574,2.9214,2.9702,2.9739,3.0138,3.0909,3.1337,3.1715,3.2039,3.2469,3.264,3.264,3.2657,3.2694,3.2665,3.2867,3.1338,2.8765,2.7099,2.6003,2.5459,2.6645,2.7823,2.9171,3.1512,3.1781,3.1061,3.0657,2.8645,2.6135,2.4596,2.3324,0.0,0.0,2.151,2.1297,2.1098,2.1284,2.1484,2.112,2.1232,2.1365,2.1099,2.0845,2.0321,0.0,1.8945,1.8461,1.7317,0.0,1.6446,1.6699,1.7061,1.7738,1.8921,1.9776,2.0398,2.0652,2.07,2.07,2.0688,2.0458,2.0158,1.9869,1.9382,1.8964,1.8667,1.7982,1.7448,1.707,1.6743,0.0,0.0,0.0,0.0,0.0,0.0,0.0,0.0,0.0,0.0,0.0,0.0,0.0,0.0,0.0,0.0,0.0,0.0,0.0,0.0,0.0,0.0,0.0,0.0,0.0,0.0,0.0,0.0,1.8642,1.9535,0.0,0.0,2.0493,2.1285,2.2232,2.3534,2.4986,2.6589,2.8139,2.9378,3.0123,3.0685,3.0891,3.0805,3.0228,3.0101,3.0397,3.0965,3.1322,3.1415,3.2037,3.2352,3.2352,3.2352,3.2352,3.2358,3.2498,3.1521,2.9698,2.7966,2.71,2.6825,2.7311,2.8213,2.9413,3.1219,3.1634,3.1266,3.0374,2.8909,2.7219,2.5941,2.4836,2.38,2.2933,2.2254,2.1712,2.1483,2.1484,2.152,2.1401,2.1438,2.1438,2.116,2.0894,2.0541,1.9999,1.9556,1.9105,1.853,1.784,1.7547,1.7952,1.8003,1.8386,1.9476,2.0008,2.041,2.0676,2.07,2.07,2.07,2.0458,2.0204,1.9938,1.9564,1.9233,1.8964,1.857,1.8315,1.8203,1.7604,1.6618,0.0,0.0,0.0,0.0,0.0,0.0,0.0,0.0,0.0,0.0,0.0,0.0,0.0,0.0,0.0,0.0,0.0,0.0,0.0,0.0,0.0,0.0,0.0,0.0,0.0,0.0,1.9333,2.0005,2.0931,2.1546,2.1551,2.2083,2.2751,2.358,2.472,2.6042,2.7547,2.8977,3.0055,3.0683,3.0935,3.0884,3.0456,2.9716,2.9438,2.9669,3.01,3.0438,3.0684,3.117,3.141,3.141,3.141,3.141,3.137,3.121,3.0523,2.947,2.8444,2.7783,2.7473,2.7777,2.8317,2.9083,3.0303,3.0756,3.0572,2.9701,2.8747,2.7845,2.6907,2.578,2.4642,2.3694,2.2815,2.2079,2.1868,2.1788,2.1776,2.1776,2.1776,2.1704,2.1426,2.1015,2.0652,2.0483,2.0011,1.9551,1.9285,1.879,1.856,1.8923,1.8911,1.912,1.9917,2.0277,2.0507,2.0688,2.07,2.07,2.07,2.0458,2.0204,1.9938,1.9576,1.9285,1.9116,1.8778,1.8551,1.8499,1.7638,1.6876,1.623,0.0,0.0,0.0,0.0,0.0,0.0,0.0,0.0,0.0,0.0,0.0,0.0,0.0,0.0,0.0,0.0,0.0,0.0,0.0,0.0,0.0,0.0,0.0,1.7418,1.9306,2.0911,2.1919,2.2494,2.2967,2.336,2.364,2.3934,2.4266,2.5215,2.6123,2.7013,2.8072,2.8842,2.9226,2.9174,2.8951,2.8568,2.8057,2.8109,2.8744,2.8759,2.9093,2.9745,2.976,2.976,2.976,2.976,2.976,2.9679,2.9234,2.8645,2.8095,2.8611,2.8183,2.7335,2.808,2.8335,2.845,2.9131,2.9344,2.9245,2.8852,2.8498,2.8021,2.7319,2.6152,2.4883,2.4074,2.3149,2.235,2.2286,2.2296,2.2296,2.2308,2.232,2.2248,2.1982,2.1293,2.0724,2.0712,2.0301,1.982,1.9588,1.9551,1.9564,1.9564,1.9793,0.0,2.0279,2.0567,2.0712,2.0712,2.07,2.07,2.07,2.0458,2.0158,1.9893,1.9394,1.9092,1.908,1.8565,1.8167,1.7901,1.6929,1.6542,1.6723,0.0,0.0,0.0,0.0,0.0,0.0,0.0,0.0,0.0,0.0,0.0,0.0,0.0,0.0,0.0,0.0,0.0,0.0,0.0,0.0,0.0,0.0,1.6411,1.801,2.0199,2.1857,2.2565,2.3153,2.3566,2.367,2.3535,2.3652,2.4205,2.467,2.5184,2.5751,2.7093,2.7789,2.7637,2.8066,2.8169,2.7874,2.759,2.7537,2.7701,2.792,2.8112,2.8277,2.8551,2.8647,2.8647,2.8647,2.8439,2.8118,2.7993,2.7528,2.6895,2.6973,2.6733,2.6289,2.6512,2.7128,2.7855,2.805,2.7931,2.7707,2.7621,2.734,2.6852,2.5916,2.4992,2.4119,2.3135,2.2336,2.1788,2.1946,2.2151,2.2345,2.2538,2.2731,2.2744,2.2284,2.1704,2.122,2.1027,2.0712,2.0458,2.0386,2.07,2.0966,2.0966,0.0,0.0,2.1172,2.1063,2.099,2.099,2.0821,2.07,2.07,2.0289,1.9914,0.0,1.9116,1.871,1.8517,1.8553,1.8417,1.8036,1.7436,1.7127,0.0,0.0,0.0,0.0,0.0,0.0,0.0,0.0,0.0,0.0,0.0,0.0,0.0,0.0,0.0,0.0,0.0,0.0,0.0,0.0,0.0,0.0,1.4764,1.6529,1.8446,2.0637,2.2343,2.3108,2.3883,2.4352,2.4352,2.4275,2.4382,2.473,2.5024,2.5265,2.5468,2.6409,2.6866,2.6657,2.7144,2.7387,2.7358,2.7338,2.7362,2.7455,2.7615,2.7762,2.7896,2.7901,2.7897,0.0,2.7685,2.7474,2.7177,2.7008,2.6588,0.0,0.0,0.0,0.0,0.0,2.5989,2.6427,2.6255,2.5951,2.5727,2.5727,2.5609,2.5295,2.4547,2.3833,2.3152,2.246,2.1727,2.1232,2.1498,2.1849,2.2199,2.2465,2.2816,2.2961,2.255,2.1946,2.1438,2.1305,0.0,0.0,2.1027,2.1305,2.151,2.151,2.151,2.151,0.0,2.1377,2.1268,2.1268,2.1135,2.099,2.0882,2.0483,0.0,0.0,0.0,1.8814,1.8625,1.8693,0.0,0.0,0.0,0.0,0.0,0.0,0.0,0.0,1.7632,1.8267,0.0,0.0,0.0,0.0,0.0,0.0,0.0,0.0,0.0,0.0,0.0,0.0,0.0,0.0,0.0,0.0,1.4736,1.6412,1.8528,2.0601,2.2334,2.3508,2.4496,2.509,2.513,2.5358,2.5518,2.5518,2.5891,2.5978,2.5698,0.0,0.0,0.0,0.0,2.6705,2.7048,2.727,2.7536,2.7749,2.7749,2.7883,2.8108,2.7685,2.7487,2.7389,2.6965,2.6796,2.6698,2.6273,2.5912,2.5702,2.6058,2.6007,2.571,2.5339,2.5067,0.0,0.0,0.0,0.0,2.386,2.3848,2.38,2.3499,2.2911,2.2284,2.203,2.1389,2.0857,2.1111,2.1583,2.2066,2.232,2.2792,2.3094,2.284,2.2199,2.1655,2.1655,2.1426,2.1305,2.1559,2.1607,2.1607,2.1607,2.1607,0.0,2.1607,2.1583,2.1559,2.1559,0.0,0.0,2.116,2.0894,2.0531,2.0002,1.9467,1.9152,1.9152,1.8923,1.9022,1.9494,1.9033,1.9346,2.0473,1.9928,2.0152,2.1074,1.9823,2.0065,0.0,0.0,0.0,0.0,0.0,0.0,0.0,0.0,0.0,0.0,0.0,0.0,0.0,0.0,0.0,1.3345,1.4645,1.6099,1.7637,1.9444,2.1378,2.358,2.4597,2.517,2.5411,2.5478,2.5518,2.5518,2.6226,2.6332,2.5592,2.6072,0.0,2.6055,2.63,2.6705,2.7257,2.7765,2.8045,2.8098,0.0,0.0,2.7643,2.7516,2.7304,2.6923,2.6838,2.6571,2.6231,2.6146,2.5866,2.544,2.5087,2.4921,2.4831,2.4749,2.4712,2.4635,2.4552,2.4475,2.4403,2.4186,2.4113,2.4029,2.3559,2.3043,0.0,2.2296,2.18,2.1414,2.168,2.2139,2.2611,2.2864,2.3297,2.3583,2.3318,2.3007,2.2745,2.2502,2.2248,2.2079,2.2139,2.2151,2.2151,2.2151,2.2151,2.2151,2.2151,2.1958,2.1837,2.1837,2.1643,2.1498,2.1438,2.1184,2.0882,2.0567,1.9842,1.9418,1.9418,1.937,1.9378,1.9508,1.9796,2.0233,2.0808,2.1123,2.147,2.1793,2.1112,2.1552,0.0,0.0,0.0,0.0,0.0,0.0,0.0,0.0,0.0,0.0,0.0,1.0373,1.106,0.0,1.2448,1.3051,1.3942,1.506,1.6438,1.7972,1.987,2.2341,2.3603,2.429,2.443,2.4569,2.4763,2.4971,2.5538,2.5695,2.5322,2.57,2.5909,2.5766,2.5999,2.6392,2.6863,2.7294,2.7503,2.7503,2.7503,2.7389,2.7135,2.6923,2.6656,2.6443,2.6201,2.5988,2.5763,2.5763,2.5604,2.5367,2.5102,2.4993,2.4993,2.4993,2.4909,2.48,2.48,2.4704,2.4547,2.4282,2.4198,2.4101,2.3571,2.308,2.2635,2.2369,2.1909,2.1559,2.1837,2.2296,2.2756,2.306,2.3454,2.3764,2.3643,2.3442,2.3212,2.308,2.2768,2.249,2.249,2.2381,2.2296,2.2296,2.2296,2.2296,2.2296,2.2187,2.2103,2.2103,2.1982,2.1861,2.1716,2.1329,2.1039,2.0906,2.0398,2.0156,2.0289,2.0168,2.0168,2.0289,2.0437,2.0845,2.1543,2.1461,2.1779,2.2489,2.1842,2.2148,0.0,0.0,0.0,0.0,0.0,0.0,0.0,0.0,0.9967,1.0493,1.0847,1.1261,1.1855,1.2223,1.2564,1.2856,1.3358,1.417,1.5441,1.6768,1.8319,2.0379,2.196,2.293,2.2977,2.3213,2.3544,2.3976,2.449,2.4885,2.5027,2.5491,2.575,2.575,2.5966,2.6182,2.6494,2.6681,2.6796,2.6796,2.6796,2.6741,2.6656,2.6273,2.6061,2.5933,2.5562,2.5391,2.5391,2.5391,2.5391,2.5391,2.5391,2.5391,2.5391,2.5391,2.5258,2.5077,2.5077,2.4933,2.4704,2.4439,2.4354,2.4258,2.3788,2.3345,2.2961,2.2744,2.2332,2.2006,2.2198,2.2611,2.2973,2.3191,2.3526,2.38,2.38,2.3643,2.3487,2.3487,2.314,2.2852,2.2852,2.2623,2.2417,2.232,2.2296,2.2296,2.2296,2.2296,2.2296,2.2296,2.2296,2.2212,2.2006,2.1583,2.1305,2.1256,2.1051,2.1015,2.1172,2.0978,2.0966,2.1172,2.1015,2.1321,2.2132,2.1639,2.1957,2.2939,2.2411,2.2534,0.7046,0.7953,0.9396,1.0218,1.0956,1.147,0.0,0.0,1.1411,1.1598,1.2018,1.2409,1.249,1.2767,1.3076,1.3313,1.3766,1.4428,1.521,1.6403,1.7333,1.7785,1.9768,2.1192,2.1399,2.1719,2.2018,2.2171,2.3615,2.4556,2.4729,2.5945,2.6656,2.6656,2.6681,2.6707,2.6745,2.677,2.6796,2.6796,2.6796,2.6571,2.6188,2.6146,2.5848,2.5476,2.5433,2.5391,2.5391,2.5391,2.5391,2.5391,2.5391,2.5391,2.5391,2.5391,2.5379,2.5355,2.5355,2.5331,2.5258,2.4993,2.4909,2.4861,2.4547,2.4246,2.4017,2.3981,2.3764,2.3547,2.3571,2.3631,2.368,2.3704,2.3764,2.38,2.38,2.3776,2.3764,2.3764,2.3523,2.333,2.333,2.314,2.284,2.2369,2.2296,2.2296,2.2296,2.2296,2.2296,2.2296,2.2296,2.2284,2.226,2.2199,2.2066,2.1837,2.1788,2.168,2.1474,2.1438,2.1438,2.1462,2.1667,2.1825,2.1922,2.2321,2.2576,2.2762,2.2879,2.3224,0.7754,0.8516,0.9646,1.068,1.1487,1.2094,1.23,1.2303,1.2401,1.2775,1.3135,1.3376,1.3516,1.3539,1.3628,0.0,1.3934,1.4191,1.479,1.52,1.5465,1.5592,1.6216,1.7347,1.9224,1.9514,1.9785,2.0187,2.1489,2.2397,2.2685,2.382,2.4524,2.4823,2.508,2.5348,2.5604,2.586,2.5988,2.5988,2.5988,2.5903,2.5677,2.5677,2.5604,2.5391,2.5391,2.5391,2.5391,2.5391,2.5391,2.5391,2.5391,2.5391,2.5391,2.5391,2.5391,2.5391,2.5391,2.5391,2.5355,2.509,2.5005,2.4957,2.4668,2.4511,2.4427,2.4427,2.4342,2.4258,2.4258,2.415,2.4029,2.4029,2.3909,2.38,2.38,2.38,2.38,2.38,2.3595,2.3414,2.3414,2.3225,2.301,2.2792,2.2756,2.2756,2.2756,2.2756,2.2756,2.2756,2.2756,2.2756,2.2756,2.2756,2.2707,2.2598,2.2586,2.2538,2.2429,2.2429,2.2429,2.2429,2.2538,2.2586,2.2586,2.2816,2.2913,2.2925,2.3072,2.3261,0.8174,0.887,0.9741,1.0872,1.1719,1.2336,1.259,1.2685,1.2819,1.3186,1.3495,1.3785,1.3874,1.3889,1.3925,1.4039,1.3964,1.4059,1.4399,1.4358,1.4333,1.4284,1.3872,1.4482,1.6601,1.6886,1.7178,1.7839,1.9056,1.9952,2.0331,2.1339,2.2147,2.2622,2.3322,2.3923,2.4352,2.5049,2.5391,2.5391,2.5391,2.5391,2.5391,2.5391,2.5391,2.5391,2.5391,2.5391,2.5391,2.5391,2.5391,2.5391,2.5391,2.5391,2.5391,2.5391,2.5391,2.5391,2.5391,2.5391,2.5367,2.5174,2.5114,2.5077,2.4873,2.4812,2.4812,2.4812,2.4812,2.4812,2.4812,2.4607,2.4415,2.4415,2.421,2.4017,2.4017,2.4017,2.4017,2.4017,2.3812,2.3631,2.3631,2.3442,2.33,2.33,2.33,2.3251,2.3106,2.3082,2.3082,2.3082,2.3082,2.3082,2.3082,2.3082,2.3082,2.3082,2.3082,2.3082,2.3082,2.3082,2.3082,2.3082,2.3082,2.3082,2.3082,2.3155,2.3191,2.3203,2.3336,2.3478,0.8035,0.8975,0.9889,1.0777,1.1595,1.2204,1.2212,1.2373,1.249,1.2375,1.2846,1.3278,1.3158,1.3543,1.3853,1.3631,1.398,1.4214,1.4046,1.44,1.4538,1.4226,1.3899,1.3677,0.0,1.3815,1.4244,1.4971,1.6493,1.757,1.8002,1.926,2.0221,2.0655,2.1996,2.2955,2.3428,2.4738,2.5391,2.5391,2.5391,2.5391,2.5391,2.5391,2.5391,2.5391,2.5391,2.5391,2.5391,2.5391,2.5391,2.5391,2.5391,2.5391,2.5391,2.5391,2.5391,2.5391,2.5391,2.5391,2.5391,2.5379,2.5379,2.5379,2.5367,2.5367,2.5367,2.5367,2.5367,2.5367,2.5367,2.5174,2.4981,2.4981,2.4764,2.4559,2.4559,2.4559,2.4559,2.4559,2.4354,2.4174,2.4174,2.3957,2.3776,2.3776,2.3776,2.3595,2.3155,2.3082,2.3082,2.3082,2.3082,2.3082,2.3082,2.3082,2.3082,2.3082,2.3082,2.3082,2.3082,2.3082,2.3082,2.3082,2.3082,2.3082,2.3082,2.3309,2.3402,2.3414,2.3921,2.4162,0.6726,0.7448,0.8177,0.8945,0.9599,1.0122,1.0255,1.0345,1.0446,1.0661,1.1046,1.151,1.1913,1.2465,1.302,1.3338,1.3542,1.3683,1.3833,1.3762,1.3579,1.3237,1.2877,0.0,0.0,0.0,0.0,1.4119,1.5366,1.6184,1.6423,1.744,1.841,1.9186,2.0274,2.1228,2.2007,2.3063,2.3763,2.4064,2.4664,2.5092,2.5391,2.5391,2.5391,2.5391,2.5391,2.5391,2.5391,2.5391,2.5391,2.5391,2.5391,2.5499,2.5656,2.5656,2.5764,2.5861,2.5511,2.5391,2.5391,2.5391,2.5391,2.5391,2.5391,2.5391,2.5391,2.5391,2.5391,2.5391,2.5391,2.5198,2.5005,2.5005,2.4788,2.4583,2.4583,2.4583,2.4583,2.4583,2.4379,2.4198,2.4198,2.3981,2.38,2.38,2.38,2.374,2.3599,2.3575,2.3575,2.3575,2.3575,2.3575,2.3575,2.3575,2.3575,2.3575,2.3575,2.3575,2.3575,2.3575,2.3575,2.3575,2.3575,2.3575,2.3575,2.38,2.3933,2.3945,2.4294,2.4451,0.6131,0.6725,0.7292,0.7884,0.8347,0.8729,0.8842,0.8858,0.8898,0.904,0.9408,0.9848,1.0444,1.1284,1.2067,1.262,1.3054,1.3328,1.3509,1.3349,1.3166,1.2915,1.2628,1.2298,0.0,0.0,0.0,1.3257,1.4146,1.4769,1.4952,1.5696,1.6445,1.7227,1.8322,1.9273,2.0057,2.1152,2.219,2.3106,2.388,2.4652,2.5391,2.5391,2.5391,2.5391,2.5391,2.5391,2.5391,2.5391,2.5391,2.5403,2.5499,2.5632,2.5788,2.5885,2.6029,2.6158,2.568,2.5535,2.5523,2.5427,2.5391,2.5391,2.5391,2.5391,2.5391,2.5391,2.5391,2.5391,2.5391,2.527,2.515,2.515,2.5005,2.4873,2.4873,2.4873,2.4873,2.4873,2.4668,2.4487,2.4487,2.4258,2.4089,2.4089,2.4089,2.4017,2.3824,2.38,2.38,2.38,2.38,2.38,2.38,2.38,2.3848,2.3933,2.386,2.3848,2.3945,2.3945,2.3945,2.3945,2.4041,2.4089,2.4089,2.4258,2.433,2.4342,2.4607,2.4728,0.613,0.6674,0.7154,0.7465,0.7758,0.7933,0.7933,0.7923,0.7798,0.7487,0.7837,0.8303,0.8747,0.9877,1.0941,1.1514,1.2556,1.3207,1.3015,1.3214,1.3342,0.0,0.0,0.0,0.0,0.0,0.0,1.2325,0.0,1.3302,1.3572,1.4055,1.452,1.4992,1.6305,1.7263,1.7736,1.9134,2.0698,2.2481,2.3041,2.4041,2.5348,2.5348,2.536,2.5415,2.5415,2.5415,2.5439,2.5439,2.5439,2.5463,2.5704,2.5813,2.5861,2.6146,2.6242,2.6218,2.5921,2.5813,2.574,2.5499,2.5403,2.5391,2.5391,2.5391,2.5391,2.5391,2.5391,2.5391,2.5391,2.5391,2.5391,2.5391,2.5391,2.5391,2.5391,2.5391,2.5391,2.5391,2.5186,2.5005,2.4981,2.4764,2.4583,2.4583,2.4583,2.4403,2.3909,2.3848,2.3836,2.3824,2.3836,2.3836,2.3824,2.3836,2.3945,2.4198,2.3981,2.3957,2.421,2.421,2.421,2.421,2.4463,2.4583,2.4583,2.4595,2.4607,2.462,2.4909,2.5041,0.4737,0.5093,0.5353,0.5495,0.5591,0.5652,0.5652,0.5313,0.5043,0.5053,0.5108,0.541,0.6352,0.7773,0.9199,1.031,1.174,0.0,1.2962,1.3214,0.0,1.3234,0.0,1.3173,1.2914,1.2812,0.0,0.0,1.303,1.3193,1.3565,1.4055,1.452,1.4992,1.5697,1.6269,1.6745,1.8139,1.9448,2.0588,2.1811,2.3106,2.445,2.4749,2.5199,2.568,2.568,2.5788,2.6025,2.6025,2.6025,2.5981,2.6054,2.6198,2.6391,2.6463,2.6608,2.674,2.6475,2.6126,2.5776,2.5704,2.556,2.5391,2.5391,2.5391,2.5391,2.5391,2.5391,2.5391,2.5391,2.5391,2.5391,2.5391,2.5391,2.5391,2.5391,2.5391,2.5391,2.5391,2.5186,2.4933,2.4728,2.4632,2.4583,2.4583,2.4583,2.4535,2.4403,2.4391,2.4306,2.4113,2.427,2.4306,2.4113,2.427,2.4415,2.4475,2.4427,2.4415,2.4487,2.4487,2.4487,2.4487,2.4547,2.4583,2.4583,2.48,2.4897,2.4909,2.5367,2.5584,0.4349,0.458,0.4755,0.4796,0.4817,0.4736,0.4511,0.419,0.3888,0.3689,0.3561,0.382,0.4764,0.6158,0.7568,0.0,0.0,0.0,1.1937,1.2383,1.2775,0.0,1.3226,0.0,1.3173,1.3193,1.3214,0.0,1.3234,1.3322,1.366,1.4089,1.4431,1.469,1.4955,1.5219,1.5484,1.6481,1.7534,1.8672,1.9892,2.1542,2.3494,2.4037,2.4866,2.5788,0.0,2.6042,2.6218,2.6218,2.6218,2.623,2.6307,2.6451,2.6608,2.6728,2.6861,2.6969,2.6813,2.6487,2.6102,2.5861,2.5608,2.5391,2.5391,2.5391,2.5391,2.5391,2.5391,2.5391,2.5391,2.5391,2.5391,2.5391,2.5391,2.5391,2.5391,2.5391,2.5391,2.5391,2.5282,2.5126,2.4969,2.4945,2.4945,2.4945,2.4945,2.4945,2.4945,2.4728,2.4523,2.4379,2.4499,2.4523,2.4379,2.4499,2.4632,2.4764,2.4656,2.4644,2.4764,2.4764,2.4764,2.4764,2.4885,2.4945,2.4945,2.521,2.5343,2.5355,2.5764,2.6001,0.4419,0.4546,0.4656,0.4641,0.4654,0.4522,0.4024,0.3813,0.353,0.2924,0.2753,0.2932,0.3664,0.479,0.6013,0.7192,0.0,0.9775,1.0379,1.11,1.1788,1.2381,1.3021,1.339,1.3424,1.3485,1.3573,1.3666,1.3593,1.362,1.3815,1.4143,1.4299,1.4299,1.4299,1.4299,1.4299,1.4778,1.5653,1.692,1.7928,1.9858,2.2578,2.337,2.4507,2.5909,0.0,0.0,2.6327,2.6327,2.6327,2.6351,2.6548,2.6644,2.6668,2.6897,2.6981,2.6981,2.6981,2.6813,2.6512,2.6042,2.5716,2.5499,2.5499,2.5499,2.5499,2.5499,2.5499,2.5499,2.5499,2.5499,2.5499,2.5499,2.5499,2.5499,2.5499,2.5475,2.5451,2.5451,2.5415,2.5391,2.5391,2.5391,2.5391,2.5391,2.5391,2.5391,2.5391,2.4981,2.468,2.4644,2.4668,2.468,2.4644,2.4668,2.48,2.5041,2.4824,2.48,2.5041,2.509,2.5114,2.5114,2.5367,2.5499,2.5499,2.5728,2.5837,2.5849,2.6146,2.6234,0.3747,0.383,0.3878,0.391,0.3849,0.3742,0.3558,0.3124,0.0,0.2386,0.1967,0.1877,0.2546,0.3534,0.46,0.5642,0.6881,0.8062,0.9005,0.9822,1.069,0.0,1.264,0.0,0.0,0.0,0.0,0.0,0.0,1.4109,1.4034,1.4204,1.4299,1.4299,1.4299,1.4299,1.4299,1.4778,1.53,1.5969,1.7279,1.9321,2.1895,2.2834,2.4393,2.6451,0.0,0.0,2.6849,2.6849,2.6849,2.6849,2.6897,2.6921,2.6921,2.6969,2.6981,2.6981,2.6981,2.6813,2.6584,2.6487,2.627,2.6042,2.6042,2.6042,2.6042,2.6042,2.6042,2.6042,2.6042,2.6042,2.6042,2.6042,2.6042,2.6042,2.6042,2.5873,2.5716,2.5716,2.5535,2.5391,2.5391,2.5391,2.5391,2.5391,2.5391,2.5391,2.5391,2.5318,2.5174,2.4957,2.5126,2.5162,2.4945,2.5126,2.527,2.5318,2.5282,2.527,2.5331,2.5535,2.5644,2.5644,2.5909,2.6042,2.6042,2.6134,2.6146,2.6158,2.6391,2.6524,0.3599,0.37,0.3719,0.3649,0.36,0.3432,0.308,0.0,0.0,0.1925,0.1557,0.1486,0.2117,0.2963,0.3869,0.4883,0.6069,0.7239,0.8288,0.9222,1.0201,1.1296,1.2403,1.3214,0.0,0.0,0.0,0.0,0.0,0.0,1.4197,1.4258,1.4299,1.4299,1.4299,1.4299,1.4299,1.452,1.4734,1.5006,1.6273,1.8293,2.1033,2.2159,2.4096,2.6596,2.674,0.0,2.6981,2.6981,2.6981,2.6981,2.6981,2.6981,2.6981,2.6981,2.6981,2.6981,2.6981,2.6909,2.6801,2.6801,2.6512,2.6218,2.6218,2.6218,2.6218,2.6218,2.6218,2.6218,2.6218,2.6218,2.6218,2.6218,2.6218,2.6218,2.6218,2.6122,2.5989,2.5813,2.568,2.5633,2.5744,2.5562,2.5476,2.5732,2.5562,2.5391,2.5391,2.5391,2.5343,2.5222,2.5318,2.5343,2.5222,2.5318,2.5451,2.5584,2.5596,2.5656,2.5788,2.5921,2.6025,2.6025,2.6114,2.6218,2.6218,2.6319,2.6391,2.6403,2.6668,2.6873,0.341,0.3461,0.35,0.3366,0.3255,0.3097,0.2543,0.2253,0.0,0.1553,0.1295,0.1332,0.1916,0.2563,0.3336,0.4319,0.5456,0.6576,0.7705,0.8755,0.9861,0.0,1.2187,0.0,0.0,0.0,0.0,0.0,0.0,0.0,1.4299,1.4299,1.4299,1.4299,1.4299,1.4299,1.4299,1.4299,1.4299,1.4299,1.5387,1.7384,2.0128,2.1446,2.3664,2.6423,2.6716,0.0,0.0,2.6981,2.6981,2.6981,2.6981,2.6981,2.6981,2.6981,2.6981,2.6981,2.6981,2.6981,2.6981,2.6981,2.6692,2.6355,2.6355,2.6355,2.6355,2.6355,2.6355,2.6355,2.6355,2.6355,2.6355,2.6355,2.6355,2.6355,2.6355,2.6351,2.6198,2.5993,2.5996,2.6147,2.6528,2.6289,2.6161,2.6534,2.6191,2.5817,2.5602,2.556,2.556,2.556,2.5511,2.5451,2.5403,2.5499,2.562,2.5776,2.5837,2.5957,2.6206,2.6278,2.6315,2.6315,2.6319,2.6355,2.6355,2.6572,2.668,2.668,2.6945,2.7174,0.2575,0.2607,0.2602,0.2441,0.2356,0.2236,0.1954,0.0,0.1457,0.1338,0.1156,0.1161,0.1641,0.2098,0.2681,0.3642,0.4605,0.5675,0.6919,0.8062,0.9275,1.0596,0.0,0.0,0.0,0.0,0.0,0.0,0.0,0.0,0.0,1.4299,1.4299,1.4299,1.4299,1.4299,1.4299,1.4299,1.4299,1.4299,1.5278,1.698,1.9348,2.074,2.2969,2.5707,0.0,0.0,0.0,2.6981,2.6981,2.6981,2.6981,2.6981,2.6981,2.6981,2.6981,2.6981,2.6981,2.6981,2.6981,2.6981,2.6957,2.6909,2.6909,2.6909,2.6909,2.6909,2.6909,2.6909,2.6909,2.6909,2.6909,2.6909,2.6909,2.6909,2.6909,2.6728,2.6548,2.6524,2.6717,2.7147,2.8056,2.8156,2.8126,2.8187,2.7808,2.7153,2.6233,2.6146,2.6146,2.6146,2.5897,2.5656,2.5415,2.5825,2.6017,2.5801,2.6005,2.615,2.6218,2.6415,2.656,2.656,2.6789,2.6909,2.6909,2.6933,2.6945,2.6957,2.7256,2.7401,0.2796,0.2656,0.2458,0.2338,0.2203,0.2069,0.1795,0.1522,0.136,0.1405,0.1389,0.1529,0.208,0.2636,0.3333,0.4316,0.5272,0.6289,0.7448,0.8441,0.9465,1.0495,1.1494,0.0,0.0,0.0,0.0,0.0,0.0,0.0,0.0,1.4299,1.4299,1.4299,1.4299,1.4299,1.4299,1.4299,1.4299,1.4299,1.5098,1.6404,1.8222,1.9536,2.1734,2.454,0.0,0.0,0.0,2.6981,2.6981,2.6981,2.6981,2.6981,2.6981,2.6981,2.6981,2.6981,2.6981,2.6981,2.6981,2.6981,2.6981,2.6981,2.6981,2.6981,2.6981,2.6981,2.6981,2.6981,2.6981,2.6981,2.6981,2.6981,2.6981,2.7072,2.7332,2.7349,2.7316,2.7469,2.8054,2.8662,2.9162,2.9482,2.9569,2.9309,2.8831,2.819,2.7228,2.7097,2.7097,2.7097,2.6472,2.6025,2.5873,2.6097,2.6198,2.627,2.6367,2.6499,2.6656,2.6765,2.6825,2.6825,2.6933,2.7066,2.7222,2.7222,2.7295,2.7498,2.7606,2.7739,0.307,0.2751,0.2425,0.2296,0.2143,0.1963,0.1731,0.1463,0.1327,0.1516,0.1653,0.1941,0.2579,0.3301,0.4105,0.5052,0.6036,0.703,0.8016,0.8916,0.9715,0.0,0.0,0.0,0.0,0.0,0.0,0.0,0.0,0.0,0.0,1.4299,1.4299,1.4299,1.4299,1.4299,1.4299,1.4299,1.4299,1.4299,1.4935,1.5854,1.7096,1.8488,2.0516,2.2997,0.0,0.0,0.0,2.6755,2.6845,2.6981,2.6981,2.6981,2.6981,2.6981,2.6981,2.6981,2.6981,2.6981,2.6981,2.6981,2.6981,2.6981,2.6981,2.6981,2.6981,2.6981,2.6981,2.6981,2.6981,2.6981,2.6981,2.6981,2.7118,2.739,2.801,2.8224,2.8488,2.8966,2.9668,3.0351,3.0786,3.1136,3.1266,3.0918,3.0497,2.9842,2.8864,2.8776,2.8776,2.8776,2.7984,2.7227,2.6494,2.6451,2.6463,2.6584,2.6668,2.6789,2.6981,2.6981,2.6981,2.6981,2.7054,2.7186,2.7425,2.7498,2.763,2.7811,2.7896,2.8077,0.3157,0.277,0.2351,0.2238,0.2065,0.1848,0.164,0.1386,0.1299,0.1632,0.1913,0.2319,0.3059,0.3898,0.4749,0.5567,0.665,0.7638,0.8391,0.9237,0.9967,0.0,0.0,0.0,0.0,0.0,0.0,0.0,0.0,0.0,0.0,1.4299,1.4299,1.4299,1.4299,1.4299,1.4299,1.4299,1.4299,1.4299,1.4778,1.5343,1.6077,1.7686,1.9318,0.0,0.0,0.0,0.0,2.6118,2.6573,2.6981,2.6981,2.6981,2.6981,2.6981,2.6981,2.6981,2.6981,2.6981,2.6981,2.6981,2.6981,2.6981,2.6981,2.6981,2.6981,2.6981,2.6981,2.6981,2.6981,2.6981,2.6981,2.6981,2.7332,2.7965,2.8957,2.9528,3.0142,3.1109,3.1657,3.2277,3.319,3.344,3.3455,3.3381,3.297,3.2307,3.1362,3.1273,3.1273,3.1273,3.0842,2.9588,2.7203,2.6982,2.6873,2.6608,2.6837,2.6981,2.6981,2.6981,2.6981,2.6981,2.7235,2.7413,2.7425,2.7679,2.7811,2.7824,2.8077,2.8343,0.3257,0.2698,0.2211,0.2241,0.2269,0.2219,0.2096,0.2041,0.2094,0.2327,0.2635,0.304,0.3639,0.4277,0.4936,0.565,0.6411,0.721,0.8033,0.9014,0.0,1.0297,0.0,0.0,0.0,0.0,0.0,0.0,0.0,0.0,0.0,1.4299,1.4299,1.4299,1.4299,1.4299,1.4299,1.4299,1.4299,1.4299,1.4431,1.4629,1.4862,1.5861,0.0,0.0,0.0,0.0,0.0,2.5092,2.597,2.6981,2.6981,2.6981,2.6981,2.6981,2.6981,2.6981,2.6981,2.6981,2.6981,2.6981,2.6981,2.6981,2.6981,2.6981,2.6981,2.6981,2.6981,2.6981,2.6981,2.6981,2.6981,2.6981,2.7332,2.8043,2.9393,3.0066,3.0736,3.2012,3.2911,3.3587,3.3895,3.4525,3.47,3.4027,3.3807,3.3352,3.2366,3.2277,3.2144,3.179,3.0946,2.9965,2.8861,2.8471,2.8074,2.7483,2.7522,2.757,2.757,2.757,2.757,2.757,2.7642,2.7775,2.7956,2.8041,2.8174,2.8367,2.8451,2.8536,0.3235,0.257,0.2026,0.2205,0.2374,0.2505,0.2546,0.2646,0.2816,0.3069,0.3389,0.3756,0.4211,0.4736,0.5263,0.5724,0.6263,0.6926,0.7804,0.8879,0.0,0.0,0.0,0.0,0.0,0.0,0.0,0.0,0.0,0.0,0.0,0.0,1.4299,1.4299,1.4299,1.4299,1.4299,1.4299,1.4299,1.4299,1.4299,1.4299,1.435,1.5163,0.0,0.0,0.0,0.0,0.0,2.4728,2.5833,2.6981,2.6981,2.6981,2.6981,2.6981,2.6981,2.6981,2.6981,2.6981,2.6981,2.6981,2.6981,2.6981,2.6981,2.6981,2.6981,2.6981,2.6981,2.6981,2.6981,2.6981,2.7006,2.7114,2.7673,2.864,3.0407,3.1305,3.2249,3.3843,3.4658,3.5116,3.5116,3.5602,3.5779,3.5204,3.5116,3.4895,3.4243,3.4036,3.3635,3.2951,3.1909,3.0894,2.9958,2.9051,2.8279,2.7846,2.7811,2.7811,2.7811,2.7811,2.7811,2.7811,2.7908,2.8041,2.8198,2.8306,2.8451,2.862,2.862,2.862,0.0,0.2456,0.1916,0.221,0.2488,0.2751,0.3019,0.3225,0.0,0.3774,0.4101,0.4428,0.4761,0.5237,0.5647,0.5806,0.6233,0.6838,0.7719,0.8927,0.0,0.0,0.0,0.0,0.0,0.0,0.0,0.0,0.0,0.0,0.0,0.0,1.4299,1.4299,1.4299,1.4299,1.4299,1.4299,1.4299,1.4299,1.4299,1.4299,1.435,1.5416,0.0,0.0,0.0,0.0,0.0,2.4844,2.6095,2.6981,2.6981,2.6981,2.6981,2.6981,2.6981,2.6981,2.6981,2.6981,2.6981,2.6981,2.6981,2.6981,2.6981,2.6981,2.6981,2.6981,2.6981,2.6981,2.6981,2.6981,2.7099,2.7353,2.824,2.9599,3.1775,3.3093,3.4381,3.6231,3.659,3.659,3.659,3.659,3.659,3.659,3.659,3.659,3.659,3.6218,3.5542,3.4517,3.3487,3.2195,3.0514,2.8906,2.7894,2.7872,2.7872,2.7872,2.7872,2.7872,2.7872,2.7872,2.8113,2.8234,2.8234,2.85,2.862,2.862,2.862,2.862,0.3511,0.0,0.2531,0.2997,0.3275,0.3507,0.0,0.399,0.4153,0.4169,0.4364,0.4634,0.4968,0.5252,0.561,0.6108,0.6532,0.7136,0.8063,0.9709,0.0,0.0,0.0,0.0,0.0,0.0,0.0,0.0,0.0,0.0,0.0,0.0,1.4299,1.4299,1.4299,1.4299,1.4299,1.4299,1.4299,1.4299,1.4299,1.4299,1.4299,1.4946,0.0,0.0,0.0,0.0,2.363,2.4372,2.5603,2.6981,2.6981,2.6981,2.6981,2.6981,2.6981,2.6981,2.6981,2.6981,2.6981,2.6981,2.6981,2.6981,2.6981,2.6981,2.6981,2.6981,2.6981,2.6981,2.6981,2.6981,2.719,2.7857,2.9064,3.0544,3.2397,3.3882,3.5196,3.6366,3.659,3.659,3.659,3.659,3.659,3.659,3.659,3.659,3.659,3.6517,3.5917,3.4547,3.3355,3.206,3.0507,2.9704,2.9001,2.8463,2.8427,2.8427,2.8427,2.8427,2.8427,2.8427,2.8487,2.8524,2.8524,2.8596,2.862,2.862,2.862,2.862,0.3963,0.346,0.3053,0.3548,0.3894,0.4182,0.4449,0.4699,0.4826,0.4695,0.4747,0.4903,0.5183,0.5386,0.5702,0.6375,0.6898,0.7814,0.0,0.0,0.0,0.0,0.0,0.0,0.0,0.0,0.0,0.0,0.0,0.0,0.0,0.0,1.4299,1.4299,1.4299,1.4299,1.4299,1.4299,1.4299,1.4299,1.4299,1.4299,1.4299,1.4999,0.0,0.0,0.0,0.0,2.3196,2.4307,2.5578,2.6825,2.6933,2.6981,2.6981,2.6981,2.6981,2.6981,2.6981,2.6981,2.6981,2.6981,2.6981,2.6981,2.6981,2.6981,2.7006,2.7126,2.7162,2.7198,2.7365,2.7527,2.8014,2.9014,3.0234,3.1698,3.3651,3.4936,3.5944,3.6901,3.7083,3.7083,3.7083,3.7083,3.7083,3.7083,3.7083,3.7083,3.7083,3.6901,3.6263,3.4967,3.3868,3.249,3.0763,3.0196,2.95,2.8656,2.862,2.862,2.862,2.862,2.862,2.862,2.862,2.862,2.862,2.862,2.8632,2.8801,2.8801,2.8862,0.4389,0.3934,0.3551,0.4013,0.4417,0.4757,0.5045,0.5336,0.5487,0.5281,0.5218,0.5274,0.5528,0.5675,0.601,0.6776,0.7522,0.8825,1.1165,0.0,0.0,0.0,0.0,0.0,0.0,0.0,0.0,0.0,0.0,0.0,0.0,0.0,0.0,1.4299,1.4299,1.4299,1.4299,1.4299,1.4299,1.4299,1.4299,1.4299,1.4343,1.5219,1.5925,0.0,0.0,0.0,2.2624,2.4319,2.5618,2.662,2.6837,2.6945,2.6981,2.6981,2.6981,2.6981,2.6981,2.6981,2.6981,2.6981,2.6981,2.6994,2.703,2.7042,2.7114,2.7461,2.7486,2.7486,2.7739,2.815,2.8831,3.016,3.1303,3.2692,3.4919,3.5925,3.6684,3.7532,3.7717,3.7717,3.7717,3.7717,3.7717,3.7717,3.7717,3.7717,3.7717,3.7285,3.6637,3.5646,3.4619,3.3196,3.1162,3.0462,2.965,2.8668,2.862,2.862,2.862,2.862,2.862,2.862,2.862,2.862,2.862,2.862,2.8753,2.9019,2.9019,2.9151,0.4476,0.4277,0.4178,0.4638,0.4887,0.5139,0.557,0.5931,0.6096,0.5903,0.5768,0.582,0.6246,0.645,0.6817,0.7668,0.8981,1.039,0.0,0.0,0.0,0.0,0.0,0.0,0.0,0.0,0.0,0.0,0.0,0.0,0.0,0.0,0.0,1.4299,1.4299,1.4299,1.4299,1.4299,1.4299,1.4299,1.4299,1.4299,1.4299,1.4866,1.5785,0.0,0.0,2.0331,2.2965,2.3721,2.5027,2.6596,2.6644,2.6789,2.6981,2.6981,2.6981,2.6981,2.6981,2.6981,2.6981,2.6981,2.6981,2.703,2.7247,2.7365,2.7461,2.7944,2.7763,2.7486,2.7739,2.7858,2.8339,3.0114,3.157,3.3097,3.5012,3.6498,3.7532,3.7671,3.7717,3.7717,3.7717,3.7717,3.7717,3.7717,3.7717,3.7717,3.7717,3.7625,3.7193,3.6173,3.518,3.3713,3.1671,3.0639,2.965,2.8668,2.862,2.862,2.862,2.862,2.862,2.862,2.862,2.862,2.862,2.862,2.8753,2.9019,2.9019,2.9151,0.43,0.409,0.4013,0.4599,0.5085,0.5576,0.6116,0.6621,0.6919,0.6661,0.6431,0.6424,0.6899,0.7143,0.7783,0.9332,0.0,0.0,0.0,0.0,0.0,0.0,0.0,0.0,0.0,0.0,0.0,0.0,0.0,0.0,0.0,0.0,0.0,0.0,1.4177,1.4177,1.4177,1.4258,1.4299,1.4299,1.4299,1.4299,1.4299,1.4778,1.5477,1.6401,0.0,1.9634,2.2131,2.3064,2.4602,2.6379,2.6536,2.6753,2.6981,2.6981,2.6981,2.6981,2.6981,2.6981,2.6981,2.6981,2.6981,2.703,2.7341,2.7425,2.7534,2.8053,2.8029,2.7908,2.8174,2.8436,2.9028,3.0372,3.1625,3.3075,3.501,3.6173,3.7054,3.7578,3.7717,3.7717,3.7717,3.7717,3.7717,3.7717,3.7717,3.7717,3.7717,3.7717,3.7532,3.707,3.6127,3.4651,3.2616,3.1641,3.0389,2.8728,2.862,2.862,2.862,2.862,2.862,2.862,2.862,2.8693,2.8837,2.8837,2.9043,2.9441,2.9441,2.9586,0.3955,0.3685,0.3591,0.4242,0.4993,0.5746,0.6386,0.7028,0.7443,0.7286,0.7028,0.702,0.754,0.8015,0.0,1.0725,1.1482,0.0,0.0,0.0,0.0,0.0,0.0,0.0,0.0,0.0,0.0,0.0,0.0,0.0,0.0,0.0,0.0,0.0,1.4098,1.4119,1.4119,1.4224,1.4299,1.4299,1.4299,1.4299,1.4299,1.469,1.5043,1.544,1.6753,1.8715,2.1065,2.2206,2.4083,2.6242,2.6415,2.6692,2.6981,2.6981,2.6981,2.6981,2.6981,2.6981,2.6994,2.7054,2.7078,2.7138,2.751,2.7606,2.7703,2.8174,2.8294,2.8355,2.8572,2.8908,2.9471,3.0462,3.1508,3.2786,3.4806,3.5739,3.6498,3.7486,3.7717,3.7717,3.7717,3.7717,3.7717,3.7717,3.7717,3.7717,3.7717,3.7717,3.7717,3.7717,3.6776,3.5303,3.3044,3.1896,3.0593,2.891,2.8753,2.8717,2.8717,2.8608,2.862,2.862,2.862,2.8753,2.9019,2.9019,2.9284,2.9791,2.9791,2.9948,0.3488,0.3212,0.3096,0.3702,0.4562,0.5433,0.6165,0.6788,0.7307,0.7593,0.7501,0.7561,0.8215,0.9198,1.0247,1.1199,0.0,0.0,0.0,0.0,0.0,0.0,0.0,0.0,0.0,0.0,0.0,0.0,0.0,0.0,0.0,0.0,0.0,0.0,0.0,1.4119,1.4119,1.4224,1.4299,1.4299,1.4299,1.4299,1.4299,1.4343,1.4387,1.4431,1.544,1.7447,2.0091,2.1032,2.3304,2.6218,2.6242,2.6524,2.6981,2.6981,2.6981,2.6981,2.6981,2.6981,2.703,2.7271,2.7389,2.7486,2.7993,2.8149,2.821,2.8512,2.8596,2.8596,2.8572,2.862,2.8908,2.9937,3.0925,3.2239,3.4291,3.5506,3.6498,3.7486,3.7717,3.7717,3.7717,3.7717,3.7717,3.7717,3.7717,3.7717,3.7717,3.7717,3.7717,3.7717,3.6776,3.5064,3.2312,3.0293,2.925,2.9332,2.9127,2.8982,2.8982,2.8753,2.862,2.862,2.862,2.8753,2.9019,2.9019,2.9284,2.9791,2.9791,2.9948,0.306,0.2814,0.2717,0.3241,0.3888,0.4707,0.5912,0.6741,0.7401,0.7858,0.787,0.8134,0.9368,1.0134,1.0873,1.171,0.0,0.0,0.0,0.0,0.0,0.0,0.0,0.0,0.0,0.0,0.0,0.0,0.0,0.0,0.0,0.0,0.0,0.0,0.0,1.3797,1.3797,1.4041,1.42,1.4156,1.4251,1.4299,1.4299,1.4601,1.4734,1.4822,1.6357,1.827,2.0438,2.1661,2.3773,2.6254,2.6548,2.6801,2.6981,2.6981,2.6981,2.6981,2.6981,2.6981,2.703,2.7295,2.7425,2.7522,2.8041,2.8198,2.8258,2.8548,2.862,2.862,2.862,2.862,2.8716,2.9088,2.9937,3.121,3.3276,3.4511,3.5754,3.7394,3.7717,3.7717,3.7717,3.7717,3.7717,3.7717,3.7717,3.7717,3.7717,3.7717,3.7717,3.7717,3.5631,3.3724,3.2367,3.0424,2.9441,2.9876,2.9344,2.9091,2.9248,2.9006,2.8946,2.9103,2.9103,2.9236,2.9501,2.9501,2.9695,3.0057,3.0057,3.0117,0.253,0.2381,0.2344,0.275,0.3218,0.3873,0.5002,0.6045,0.695,0.7654,0.8129,0.8866,1.0254,1.0778,0.0,0.0,0.0,0.0,0.0,0.0,0.0,0.0,0.0,0.0,0.0,0.0,0.0,0.0,0.0,0.0,0.0,0.0,0.0,0.0,0.0,1.3585,1.3585,1.3878,1.4021,1.4119,1.4177,1.4251,1.4299,1.4778,1.5256,1.5734,1.7315,1.923,2.1305,2.2438,2.4207,2.6234,2.6777,2.6981,2.6981,2.6981,2.6981,2.6981,2.6981,2.6981,2.7042,2.7425,2.7546,2.7642,2.8174,2.8331,2.8379,2.8572,2.862,2.862,2.862,2.862,2.862,2.862,2.928,3.0401,3.2428,3.3713,3.504,3.7054,3.7578,3.7717,3.7717,3.7717,3.7717,3.7717,3.7717,3.7625,3.7486,3.744,3.7193,3.6591,3.4309,3.2627,3.1991,3.0378,2.9634,3.0177,2.961,2.9344,2.9526,2.92,2.9139,2.9393,2.9405,2.9538,2.9791,2.9791,2.9936,3.0214,3.0214,3.0214,0.1899,0.1893,0.1957,0.2233,0.261,0.2974,0.3317,0.4535,0.5862,0.6893,0.8321,0.9717,1.0717,1.1077,0.0,0.0,0.0,0.0,0.0,0.0,0.0,0.0,0.0,0.0,0.0,0.0,0.0,0.0,0.0,0.0,0.0,0.0,0.0,0.0,0.0,0.0,1.3585,1.3727,1.3912,1.4112,1.4112,1.415,1.4299,1.4778,1.5778,1.7175,1.8095,2.01,2.2654,2.3225,2.4511,2.6234,2.6777,2.6981,2.6981,2.6981,2.6981,2.6981,2.6981,2.6981,2.7078,2.7642,2.7811,2.7908,2.8463,2.862,2.862,2.862,2.862,2.862,2.862,2.862,2.862,2.862,2.9004,2.9949,3.1955,3.3196,3.4478,3.6498,3.7332,3.7671,3.7717,3.7717,3.7717,3.7717,3.7717,3.7486,3.6962,3.6869,3.6111,3.4103,3.3008,3.1959,3.0978,2.9997,2.9634,3.0177,2.9948,2.9791,2.9803,2.9296,2.9139,2.9405,2.9417,2.9538,2.9803,2.9803,2.9948,3.0214,3.0214,3.0214,0.1723,0.1733,0.1756,0.2074,0.2435,0.2759,0.3002,0.3651,0.4856,0.7133,0.8759,1.0162,1.1484,1.1805,0.0,0.0,0.0,0.0,0.0,0.0,0.0,0.0,0.0,0.0,0.0,0.0,0.0,0.0,0.0,0.0,0.0,0.0,0.0,0.0,0.0,0.0,1.3471,1.3572,1.3673,1.3763,1.3973,1.415,1.4343,1.5131,1.6261,1.7693,1.9273,2.1185,2.329,2.4766,2.5723,2.6234,2.6777,2.6981,2.6981,2.6981,2.6981,2.6981,2.6981,2.6981,2.7078,2.7642,2.7811,2.7908,2.8463,2.862,2.862,2.862,2.862,2.862,2.862,2.862,2.862,2.862,2.9004,2.9758,3.1067,3.2124,3.3445,3.546,3.6266,3.6869,3.7578,3.7717,3.7717,3.7717,3.7394,3.673,3.5506,3.4698,3.3887,3.2947,3.1968,3.1177,3.0636,2.9713,2.9272,2.9622,2.9393,2.9501,3.0069,2.9755,2.9695,2.9972,2.9972,3.002,3.0093,3.0093,3.0129,3.0214,3.0214,3.0214,0.1457,0.1484,0.1551,0.1876,0.2157,0.2414,0.2694,0.3603,0.5048,0.7338,0.8985,1.0497,1.1974,1.2275,0.0,0.0,0.0,0.0,0.0,0.0,0.0,0.0,0.0,0.0,0.0,0.0,0.0,0.0,0.0,0.0,0.0,0.0,0.0,0.0,0.0,0.0,1.3403,1.3492,1.3566,1.3592,1.3865,1.4061,1.4255,1.5235,1.6789,1.8785,2.1402,2.3138,2.4301,2.5651,2.6218,2.6234,2.6777,2.6981,2.6981,2.6981,2.6981,2.6981,2.6981,2.6981,2.7078,2.7642,2.7811,2.7908,2.8463,2.862,2.862,2.862,2.862,2.862,2.862,2.862,2.862,2.862,2.886,2.9375,3.0366,3.1352,3.2677,3.4712,3.5693,3.6498,3.7532,3.7717,3.7717,3.7717,3.6915,3.5925,3.4853,3.3619,3.2489,3.1576,3.0925,3.0424,3.0091,2.9506,2.9332,2.9707,2.9574,2.9707,3.0202,2.9851,2.9815,3.0214,3.0214,3.0214,3.0214,3.0214,3.0214,3.0214,3.0214,3.0214,0.1166,0.1265,0.1389,0.165,0.1875,0.2098,0.2438,0.4094,0.5981,0.7508,0.9111,1.073,1.2298,1.2583,0.0,0.0,0.0,0.0,0.0,0.0,0.0,0.0,0.0,0.0,0.0,0.0,0.0,0.0,0.0,0.0,0.0,0.0,0.0,0.0,0.0,0.0,1.3403,1.3403,1.3471,0.0,1.3727,1.3912,1.4098,1.5184,1.7271,2.0221,2.3826,2.5391,2.5439,2.5933,2.6194,2.6266,2.674,2.6969,2.6981,2.6981,2.6981,2.6981,2.6981,2.6981,2.7078,2.7642,2.7811,2.7908,2.8463,2.862,2.862,2.862,2.862,2.862,2.862,2.862,2.862,2.862,2.862,2.886,2.9746,3.0734,3.2097,3.415,3.5366,3.6405,3.7532,3.7717,3.7671,3.7625,3.6359,3.5226,3.4666,3.3257,3.1698,3.0271,3.0032,2.9815,2.9419,2.9369,2.9586,3.0105,3.0141,3.0153,3.0177,2.9731,2.9707,3.0202,3.0214,3.0214,3.0214,3.0214,3.0214,3.0214,3.0214,3.0214,0.1232,0.1364,0.1509,0.1716,0.2,0.2265,0.2474,0.3976,0.5867,0.7582,0.9348,1.1147,1.2886,0.0,0.0,0.0,0.0,0.0,0.0,0.0,0.0,0.0,0.0,0.0,0.0,0.0,0.0,0.0,0.0,0.0,0.0,0.0,0.0,0.0,0.0,1.3403,1.3403,1.3403,1.3417,0.0,1.3673,1.3815,1.3899,1.5133,1.7622,2.1142,2.4138,2.5391,2.5415,2.574,2.5993,2.6254,2.6548,2.6801,2.6981,2.6981,2.6981,2.6981,2.6981,2.6981,2.7078,2.7642,2.7811,2.7908,2.8463,2.862,2.862,2.862,2.862,2.862,2.862,2.862,2.862,2.862,2.862,2.8668,2.886,2.9698,3.102,3.3041,3.4276,3.56,3.7394,3.7717,3.7578,3.7147,3.6111,3.5086,3.4197,3.2394,3.0938,3.0175,2.9375,2.8982,2.9067,2.9103,2.9236,2.9562,2.9574,2.967,2.9876,2.9984,3.0093,3.0214,3.0214,3.0214,3.0214,3.0214,3.0214,3.0214,3.0214,3.0214,0.1247,0.1454,0.1675,0.1959,0.2193,0.2367,0.2511,0.3957,0.5758,0.762,0.9442,1.1237,0.0,0.0,0.0,0.0,0.0,0.0,0.0,0.0,0.0,0.0,0.0,0.0,0.0,0.0,0.0,0.0,0.0,0.0,0.0,0.0,0.0,0.0,1.3403,1.3403,1.3403,1.3403,1.3403,1.3403,1.3592,1.4024,1.4686,1.6748,1.9012,2.1455,2.4224,2.5391,2.5415,2.568,2.5861,2.6029,2.6439,2.668,2.6813,2.6933,2.6981,2.6981,2.6981,2.6981,2.7078,2.7642,2.7811,2.7908,2.8463,2.862,2.862,2.862,2.862,2.862,2.862,2.862,2.862,2.862,2.862,2.862,2.862,2.9184,3.0366,3.238,3.3619,3.4946,3.6962,3.7532,3.7625,3.7347,3.6823,3.6312,3.5786,3.3525,3.1384,2.9804,2.9152,2.9019,2.9357,2.9393,2.9501,2.9779,2.9791,2.9851,2.9996,3.0141,3.0214,3.0214,3.0214,3.0214,3.0214,3.0214,3.0214,3.0214,3.0214,3.0214,0.1236,0.152,0.1844,0.2194,0.2342,0.2446,0.2571,0.3951,0.574,0.7555,0.9402,0.0,0.0,0.0,0.0,0.0,0.0,0.0,0.0,0.0,0.0,0.0,0.0,0.0,0.0,0.0,0.0,0.0,0.0,0.0,0.0,0.0,1.3403,1.3403,1.3403,1.3403,1.3403,1.3403,1.3403,1.3403,1.3553,1.4252,1.5589,1.853,2.0366,2.1455,2.4224,2.5391,2.5415,2.5632,2.574,2.5837,2.6331,2.6548,2.6632,2.6885,2.6981,2.6981,2.6981,2.6981,2.7078,2.7642,2.7811,2.7908,2.8463,2.862,2.862,2.862,2.862,2.862,2.862,2.862,2.862,2.862,2.862,2.862,2.862,2.9004,2.9937,3.1779,3.3243,3.4712,3.639,3.7239,3.7717,3.7717,3.7717,3.7625,3.7486,3.505,3.2395,2.9933,2.9408,2.9381,2.9743,2.9791,2.9912,3.0202,3.0214,3.0214,3.0214,3.0214,3.0214,3.0214,3.0214,3.0214,3.0214,3.0214,3.0214,3.0214,3.0214,3.0214,0.1238,0.162,0.203,0.223,0.2342,0.2402,0.2506,0.3928,0.5673,0.0,0.0,0.0,0.0,0.0,0.0,0.0,0.0,0.0,0.0,0.0,0.0,0.0,0.0,0.0,0.0,0.0,0.0,0.0,0.0,0.0,0.0,1.3403,1.3403,1.3403,1.3403,1.3403,1.3403,1.3403,1.3403,1.3403,1.3553,1.4252,1.5581,1.8388,2.0263,2.1455,2.4224,2.5391,2.5403,2.5439,2.5584,2.5813,2.6114,2.6379,2.6632,2.6885,2.6981,2.6981,2.6981,2.6981,2.7078,2.7642,2.7811,2.7908,2.8463,2.862,2.862,2.862,2.862,2.862,2.862,2.862,2.862,2.862,2.862,2.862,2.862,2.9004,2.9758,3.0877,3.3337,3.532,3.5786,3.6869,3.7717,3.7717,3.7717,3.7394,3.6498,3.4864,3.3333,3.2089,3.0589,2.9672,2.9732,2.9755,2.9912,3.0202,3.0214,3.0214,3.0214,3.0214,3.0214,3.0214,3.0214,3.0214,3.0214,3.0214,3.0214,3.0214,3.0214,3.0214,0.1373,0.1738,0.206,0.2253,0.2367,0.2435,0.2478,0.3844,0.5582,0.7354,0.0,0.0,0.0,0.0,0.0,0.0,0.0,0.0,0.0,0.0,0.0,0.0,0.0,0.0,0.0,0.0,0.0,0.0,0.0,0.0,1.3403,1.3403,1.3403,1.3403,1.3403,1.3403,1.3403,1.3403,1.3528,1.3776,1.393,1.4881,1.6604,1.8916,2.0449,2.1455,2.4224,2.5391,2.5391,2.5391,2.5463,2.5608,2.6061,2.6246,2.6415,2.6825,2.6981,2.6981,2.6981,2.6981,2.7042,2.7473,2.7691,2.7884,2.827,2.85,2.862,2.862,2.862,2.862,2.862,2.862,2.862,2.862,2.862,2.862,2.862,2.8812,2.9423,3.0972,3.3008,3.4712,3.5568,3.6823,3.7717,3.7717,3.6746,3.5054,3.23,3.1868,3.1637,3.1188,3.0476,2.9972,2.9972,3.0008,3.0081,3.0214,3.0214,3.0214,3.0214,3.0214,3.0214,3.0214,3.0214,3.0214,3.0214,3.0214,3.0214,3.0214,3.0214,3.0214,0.163,0.1918,0.2129,0.2369,0.2432,0.2442,0.2451,0.3761,0.5495,0.0,0.0,0.0,0.0,0.0,0.0,0.0,0.0,0.0,0.0,0.0,0.0,0.0,0.0,0.0,0.0,0.0,0.0,0.0,0.0,0.0,1.3403,1.3403,1.3403,1.3403,1.3403,1.3403,1.3403,1.3403,1.3652,1.4115,1.4548,1.5719,1.7544,1.976,2.1137,2.1964,2.4352,2.5391,2.5391,2.5391,2.5391,2.5451,2.5969,2.6218,2.6234,2.6789,2.6981,2.6981,2.6981,2.6981,2.703,2.7295,2.7594,2.786,2.8125,2.8403,2.862,2.862,2.862,2.862,2.862,2.862,2.862,2.862,2.862,2.862,2.862,2.862,2.9088,3.0782,3.2205,3.3493,3.4525,3.6359,3.7717,3.7717,3.5336,3.2441,2.9408,2.9719,3.0214,3.0214,3.0214,3.0214,3.0214,3.0214,3.0214,3.0214,3.0214,3.0214,3.0214,3.0214,3.0214,3.0214,3.0214,3.0214,3.0214,3.0214,3.0214,3.0214,3.0214,3.0214,0.2,0.2215,0.2357,0.2683,0.2693,0.2534,0.2352,0.0,0.0,0.0,0.0,0.0,0.0,0.0,0.0,0.0,0.0,0.0,0.0,0.0,0.0,0.0,0.0,0.0,0.0,0.0,0.0,0.0,0.0,0.0,1.3403,1.3403,1.3403,1.3403,1.3403,1.3403,1.3403,1.3403,1.3652,1.4108,1.5332,1.6626,1.8044,2.0698,2.2424,2.3385,2.478,2.5391,2.5391,2.5391,2.5391,2.5451,2.5969,2.6218,2.6234,2.6789,2.6981,2.6981,2.6981,2.6981,2.703,2.7295,2.7594,2.786,2.8125,2.8403,2.862,2.862,2.862,2.862,2.862,2.862,2.862,2.862,2.862,2.862,2.862,2.862,2.8812,2.9567,3.0782,3.1732,3.1901,3.5133,3.7717,3.7717,3.356,3.0382,3.0129,3.0177,3.0214,3.0214,3.0214,3.0214,3.0214,3.0214,3.0214,3.0214,3.0214,3.0214,3.0214,3.0214,3.0214,3.0214,3.0214,3.0214,3.0214,3.0214,3.0214,3.0214,3.0214,3.0214,0.1996,0.2209,0.2344,0.2543,0.2495,0.236,0.2215,0.3516,0.5289,0.0,0.0,0.0,0.0,0.0,0.0,0.0,0.0,0.0,0.0,0.0,0.0,0.0,0.0,0.0,0.0,0.0,0.0,0.0,0.0,0.0,1.3261,1.3349,1.3356,1.3254,1.3349,1.3403,1.3403,1.3403,1.3769,1.4514,1.5818,1.7489,1.9437,2.1494,2.3109,2.4267,2.5049,2.5391,2.5391,2.5391,2.5391,2.5451,2.5969,2.6218,2.6234,2.6789,2.6981,2.6981,2.6981,2.6981,2.7006,2.709,2.7461,2.7824,2.792,2.827,2.862,2.862,2.862,2.862,2.862,2.862,2.862,2.862,2.862,2.862,2.862,2.862,2.886,2.9746,3.0319,3.1257,3.3257,3.5894,3.7717,3.7717,3.342,3.0214,3.0214,3.0214,3.0214,3.0214,3.0214,3.0214,3.0214,3.0214,3.0214,3.0214,3.0214,3.0214,3.0214,3.0214,3.0214,3.0214,3.0214,3.0214,3.0214,3.0214,3.0214,3.0214,3.0214,3.031,0.2358,0.2554,0.2629,0.2857,0.2762,0.2551,0.24,0.3717,0.0,0.0,0.0,0.0,0.0,0.0,0.0,0.0,0.0,0.0,0.0,0.0,0.0,0.0,0.0,0.0,0.0,0.0,0.0,0.0,0.0,0.0,1.322,1.322,1.3268,1.3214,1.3268,1.3349,1.3403,1.3403,1.3852,1.4713,1.6508,1.8399,2.0363,2.2413,2.392,2.4963,2.5263,2.5391,2.5391,2.5391,2.5391,2.5451,2.5969,2.6218,2.6234,2.6789,2.6981,2.6981,2.6981,2.6981,2.6994,2.709,2.7461,2.7824,2.792,2.8258,2.862,2.862,2.862,2.862,2.862,2.862,2.862,2.862,2.862,2.862,2.862,2.862,2.886,2.9746,3.0462,3.1968,3.5133,3.7211,3.8135,3.7427,3.3251,3.0214,3.0214,3.0214,3.0214,3.0214,3.0214,3.0214,3.0214,3.0214,3.0214,3.0214,3.0214,3.0214,3.0214,3.0214,3.0214,3.0214,3.0214,3.0214,3.0214,3.0214,3.0214,3.0214,3.031,3.0539,0.0,0.0,0.0,0.3605,0.3456,0.3164,0.2967,0.0,0.0,0.0,0.0,0.0,0.0,0.0,0.0,0.0,0.0,0.0,0.0,0.0,0.0,0.0,0.0,0.0,0.0,0.0,0.0,0.0,0.0,1.3207,1.32,1.3071,1.3064,1.3207,1.3214,1.3247,1.3397,1.3403,1.3852,1.4713,1.736,1.9338,2.0782,2.3411,2.4885,2.5391,2.5391,2.5391,2.5391,2.5391,2.5391,2.5451,2.5969,2.6218,2.6234,2.6789,2.6981,2.6981,2.6994,2.6994,2.7042,2.7295,2.7606,2.7872,2.8125,2.8403,2.862,2.862,2.862,2.862,2.862,2.862,2.862,2.862,2.862,2.862,2.862,2.862,2.8812,2.9484,3.1236,3.3648,3.6977,3.8751,3.8971,3.6745,3.2862,3.0214,3.0214,3.0214,3.0214,3.0214,3.0214,3.0214,3.0214,3.0214,3.0214,3.0214,3.0226,3.0226,3.0226,3.0238,3.0238,3.0238,3.0238,3.0238,3.0238,3.0226,3.0214,3.0238,3.0503,3.0902,0.3382,0.0,0.0,0.0,0.0,0.0,0.0,0.0,0.0,0.0,0.0,0.0,0.0,0.0,0.0,0.0,0.0,0.0,0.0,0.0,0.0,0.0,0.0,0.0,0.0,0.0,0.0,0.0,1.3084,1.2969,1.2861,1.2813,1.2908,1.3207,1.3214,1.3247,1.3397,1.3403,1.3852,1.4713,1.736,1.9338,2.0782,2.3411,2.4885,2.5391,2.5391,2.5391,2.5391,2.5391,2.5391,2.5451,2.5969,2.6218,2.6234,2.6789,2.6981,2.7006,2.7198,2.7271,2.7307,2.7618,2.7884,2.8113,2.8186,2.8403,2.862,2.862,2.862,2.862,2.862,2.862,2.862,2.862,2.862,2.862,2.862,2.862,2.8825,2.9587,3.1172,3.2798,3.4217,3.6133,3.6251,3.2511,3.0961,3.0214,3.0214,3.0214,3.0214,3.0214,3.0214,3.0214,3.0214,3.0214,3.0214,3.0214,3.0395,3.0503,3.0503,3.0684,3.0781,3.0781,3.0781,3.0781,3.0781,3.0407,3.031,3.0503,3.0962,3.1252,0.0,0.0,0.0,0.0,0.0,0.0,0.0,0.4793,0.0,0.0,0.0,0.0,0.0,0.0,0.0,0.0,0.0,0.0,0.0,0.0,0.0,0.0,0.0,0.0,0.0,0.0,0.0,1.3003,1.2901,1.28,1.2644,1.2637,1.2773,1.3118,1.3125,1.3227,1.3397,1.3403,1.3852,1.4713,1.736,1.9338,2.0782,2.3411,2.4885,2.5391,2.5391,2.5391,2.5391,2.5391,2.5391,2.5451,2.5969,2.6218,2.6234,2.6789,2.6981,2.703,2.7329,2.7425,2.7486,2.786,2.8077,2.8222,2.8343,2.85,2.862,2.862,2.862,2.862,2.862,2.862,2.862,2.862,2.862,2.8656,2.8765,2.8789,2.8971,2.965,3.0937,3.2141,3.2875,3.408,3.3909,3.0696,3.0214,3.0214,3.0214,3.0214,3.0214,3.0214,3.0214,3.0214,3.0214,3.0214,3.0262,3.0371,3.0527,3.066,3.0769,3.0914,3.0998,3.0998,3.0998,3.0998,3.0998,3.0696,3.0672,3.0938,3.124,3.1445,0.3956,0.4246,0.0,0.0,0.0,0.0,0.4404,0.53,0.0,0.0,0.0,0.0,0.0,0.0,0.0,0.0,0.0,0.0,0.0,0.0,0.0,0.0,0.0,0.0,0.0,1.2941,1.2948,1.2948,1.2779,1.2644,1.2508,1.2501,1.2644,1.2989,1.3003,1.3146,1.3397,1.3403,1.3852,1.4713,1.7238,1.9224,2.074,2.3287,2.4759,2.5348,2.5391,2.5391,2.5391,2.5391,2.5391,2.5451,2.5969,2.6218,2.6234,2.6789,2.6981,2.703,2.7365,2.7461,2.7546,2.8077,2.8246,2.8294,2.8548,2.862,2.862,2.862,2.862,2.862,2.862,2.862,2.862,2.862,2.862,2.8644,2.8958,2.9019,2.9177,2.9713,3.0636,3.1555,3.237,3.2583,3.2121,3.0469,3.0214,3.0214,3.0214,3.0214,3.0214,3.0214,3.0214,3.0214,3.0214,3.0238,3.0358,3.0588,3.066,3.0805,3.1034,3.1071,3.1083,3.1083,3.1083,3.1083,3.1083,3.1059,3.1155,3.1384,3.1421,3.1566,0.3948,0.4478,0.4864,0.0,0.0,0.0,0.0,0.5427,0.0,0.0,0.0,0.0,0.0,0.0,0.0,0.0,0.0,0.0,0.0,0.0,0.0,0.0,0.0,0.0,0.0,1.2522,1.2589,1.2589,1.2562,1.2535,1.2501,1.2501,1.2644,1.2989,1.3003,1.3146,1.3397,1.3403,1.3852,1.4713,1.664,1.8491,2.0279,2.2538,2.4035,2.4878,2.522,2.5391,2.5391,2.5391,2.5391,2.5451,2.5969,2.6218,2.6234,2.6789,2.6981,2.7054,2.757,2.7739,2.7824,2.8367,2.8548,2.8548,2.856,2.862,2.862,2.862,2.862,2.862,2.862,2.862,2.862,2.862,2.862,2.8644,2.8958,2.9019,2.9139,2.9711,3.0689,3.1237,3.0812,3.1654,3.1881,3.0404,3.0214,3.0214,3.0214,3.0214,3.0214,3.0214,3.0214,3.0214,3.0214,3.0407,3.0552,3.06,3.101,3.1264,3.1312,3.1529,3.165,3.165,3.165,3.165,3.165,3.1421,3.1336,3.1397,3.1626,3.1759,0.437,0.4865,0.5223,0.5316,0.0,0.0,0.0,0.0,0.0,0.0,0.0,0.0,0.0,0.0,0.0,0.0,0.0,0.0,0.0,0.0,0.0,0.0,0.0,0.0,0.0,1.2352,1.2427,1.2494,1.2501,1.2501,1.2501,1.2501,1.2644,1.2989,1.3003,1.3146,1.3397,1.3403,1.3728,1.4431,1.5942,1.7489,1.9142,2.1536,2.314,2.4095,2.5006,2.5391,2.5403,2.5535,2.5584,2.5632,2.6017,2.6258,2.6439,2.6837,2.6981,2.7054,2.763,2.7811,2.7908,2.8451,2.862,2.862,2.862,2.862,2.862,2.862,2.862,2.862,2.862,2.862,2.862,2.862,2.862,2.8729,2.9127,2.9212,2.9369,2.99,3.0411,3.0661,3.0291,3.0771,3.1012,3.0315,3.0214,3.0214,3.0214,3.0214,3.0214,3.0214,3.0214,3.0262,3.0395,3.0527,3.0721,3.0986,3.124,3.1445,3.159,3.1735,3.1807,3.1807,3.1807,3.1807,3.1807,3.1662,3.1602,3.1602,3.1747,3.1807,0.0,0.0,0.0,0.0,0.0,0.5542,0.0,0.0,0.0,0.0,0.0,0.0,0.0,0.0,0.0,0.0,0.0,0.0,0.0,0.0,0.0,0.0,0.0,0.0,0.0,1.2149,1.2264,1.2406,1.242,1.2427,1.2461,1.2488,1.2644,1.2989,1.3003,1.3146,1.3397,1.3403,1.3652,1.4108,1.5242,1.6493,1.7959,2.0562,2.2286,2.3342,2.478,2.5391,2.5415,2.568,2.5813,2.5885,2.615,2.6391,2.6632,2.6885,2.6981,2.7054,2.763,2.7811,2.7908,2.8451,2.862,2.862,2.862,2.862,2.862,2.862,2.862,2.862,2.862,2.862,2.862,2.862,2.862,2.8765,2.9296,2.9405,2.9562,3.0105,3.0214,3.0214,3.0214,3.0214,3.0214,3.0214,3.0214,3.0214,3.0214,3.0214,3.0214,3.0214,3.0214,3.0322,3.0588,3.0648,3.0877,3.136,3.1445,3.1578,3.1795,3.1807,3.1807,3.1807,3.1807,3.1807,3.1807,3.1807,3.1807,3.1807,3.1807,3.1807,0.0,0.0,0.0,0.0,0.6001,0.0,0.0,0.0,0.0,0.0,0.0,0.0,0.0,0.0,0.0,0.0,0.0,0.0,0.0,0.0,0.0,0.0,0.0,0.0,0.0,0.0,1.1945,1.2139,1.2152,1.2207,1.2311,1.2433,1.2644,1.2989,1.3003,1.3146,1.3397,1.3403,1.3652,1.4108,1.4589,1.5761,1.746,1.9774,2.1525,2.2869,2.4652,2.5391,2.5415,2.568,2.5921,2.6162,2.6439,2.656,2.6632,2.6885,2.6981,2.7054,2.763,2.7811,2.7908,2.8451,2.862,2.862,2.862,2.862,2.862,2.862,2.862,2.862,2.862,2.862,2.862,2.862,2.862,2.8765,2.9296,2.9405,2.9562,3.0105,3.0214,3.0214,3.0214,3.0214,3.0214,3.0214,3.0214,3.0214,3.0214,3.0214,3.0214,3.0214,3.0214,3.0322,3.0588,3.0817,3.1083,3.1372,3.1626,3.1771,3.1807,3.1807,3.1807,3.1807,3.1807,3.1807,3.1807,3.1807,3.1807,3.1807,3.1807,3.1807,0.0,0.0,0.0,0.0,0.0,0.0,0.0,0.0,0.5491,0.0,0.0,0.0,0.0,0.0,0.0,0.0,0.0,0.0,0.0,0.0,0.0,0.0,0.0,0.0,0.0,0.0,0.0,0.0,0.0,1.1904,1.2179,1.2379,1.2644,1.2989,1.3003,1.3146,1.3397,1.3403,1.3486,1.3694,1.3852,1.4725,1.6236,1.8786,2.0667,2.2007,2.4395,2.5391,2.5427,2.5837,2.6122,2.6266,2.6656,2.6825,2.6837,2.6945,2.6981,2.7054,2.763,2.7811,2.7908,2.8451,2.862,2.862,2.862,2.862,2.862,2.862,2.862,2.862,2.862,2.862,2.862,2.862,2.8741,2.8958,2.932,2.9526,2.9743,3.0141,3.0214,3.0214,3.0214,3.0214,3.0214,3.0214,3.0214,3.0214,3.0214,3.0214,3.0214,3.0214,3.0214,3.0383,3.0805,3.0938,3.1179,3.1602,3.1747,3.1807,3.1807,3.1807,3.1807,3.1807,3.1807,3.1807,3.1807,3.1807,3.1807,3.1807,3.1807,3.1807,0.6078,0.0,0.0,0.0,0.0,0.0,0.0,0.0,0.0,0.0,0.0,0.0,0.0,0.0,0.0,0.0,0.0,0.0,0.0,0.0,0.0,0.0,0.0,0.0,0.0,0.0,0.0,0.0,0.0,0.0,1.1832,1.2176,1.2542,1.2928,1.2982,1.3146,1.3397,1.3403,1.3403,1.3403,1.3403,1.4062,1.5391,1.8153,2.0115,2.1455,2.4224,2.5391,2.5439,2.5957,2.6218,2.6234,2.6777,2.6981,2.6994,2.7066,2.709,2.7162,2.7739,2.7968,2.8101,2.8487,2.862,2.862,2.862,2.862,2.862,2.862,2.862,2.862,2.862,2.862,2.8644,2.8717,2.8874,2.9103,2.9441,2.9658,2.9876,3.0165,3.0214,3.0214,3.0214,3.0214,3.0214,3.0214,3.0214,3.0214,3.0214,3.0214,3.0214,3.0214,3.0286,3.0503,3.0962,3.1059,3.1312,3.1783,3.1807,3.1807,3.1807,3.1807,3.1807,3.1807,3.1807,3.1807,3.1807,3.1879,3.1879,3.1807,3.1807,3.1807,0.0,0.0,0.0,0.7062,0.0,0.0,0.0,0.0,0.563,0.0,0.0,0.0,0.0,0.0,0.0,0.0,0.0,0.0,0.0,0.0,0.0,0.0,0.0,0.0,0.0,0.0,0.0,0.0,0.0,0.0,1.12,1.1791,1.2315,1.2686,1.2881,1.3146,1.3397,1.3403,1.3403,1.3403,1.3403,1.4062,1.5391,1.8153,2.0115,2.1455,2.4224,2.5391,2.5439,2.5957,2.6218,2.6234,2.6777,2.6981,2.7018,2.7271,2.7413,2.7486,2.8005,2.8367,2.8596,2.8572,2.862,2.862,2.862,2.862,2.862,2.862,2.862,2.862,2.862,2.862,2.8693,2.8946,2.9006,2.9151,2.967,2.9791,2.9876,3.0165,3.0214,3.0214,3.0214,3.0214,3.0214,3.0214,3.0214,3.0214,3.0214,3.0214,3.0214,3.0214,3.0443,3.0708,3.0974,3.1228,3.1493,3.1795,3.1807,3.1807,3.1807,3.1807,3.1807,3.1807,3.1807,3.1807,3.1807,3.206,3.206,3.1807,3.1807,3.1807,0.0,0.0,0.755,0.7926,0.0,0.0,0.0,0.0,0.0,0.0,0.0,0.0,0.0,0.0,0.0,0.0,0.0,0.0,0.0,0.0,0.0,0.0,0.0,0.0,0.0,0.0,0.0,0.0,0.9618,0.0,0.0,1.1329,1.1911,1.2556,1.2732,1.2996,1.3397,1.3403,1.3403,1.3403,1.3403,1.4062,1.5391,1.8153,2.0115,2.1455,2.4224,2.5391,2.5439,2.5957,2.6218,2.6234,2.6777,2.6981,2.7018,2.7283,2.7425,2.7498,2.8017,2.8391,2.862,2.862,2.862,2.862,2.862,2.862,2.862,2.862,2.862,2.862,2.862,2.862,2.8693,2.8958,2.9151,2.9369,2.9719,2.9936,3.0105,3.0202,3.0214,3.0214,3.0214,3.0214,3.0214,3.0214,3.0214,3.0214,3.0214,3.0214,3.0286,3.0455,3.0552,3.0781,3.1215,3.1505,3.171,3.1807,3.1807,3.1807,3.1807,3.1807,3.1807,3.1807,3.1807,3.1807,3.1807,3.1891,3.1891,3.1807,3.1807,3.1807,0.6054,0.7105,0.0,0.8775,0.8581,0.0,0.7547,0.0,0.0,0.0,0.0,0.0,0.0,0.0,0.0,0.0,0.0,0.0,0.0,0.0,0.0,0.0,0.0,0.0,0.0,0.0,0.8405,0.8507,0.8818,0.0,0.0,0.0,1.1518,1.2318,1.2651,1.3003,1.3397,1.3403,1.3403,1.3403,1.3458,1.4119,1.5398,1.7851,1.9766,2.1195,2.3795,2.5066,2.5344,2.595,2.6278,2.6367,2.6813,2.6981,2.703,2.7425,2.7679,2.7896,2.8234,2.8475,2.862,2.862,2.862,2.862,2.862,2.862,2.862,2.862,2.862,2.862,2.862,2.862,2.8717,2.9067,2.9284,2.9501,2.9864,3.0081,3.0214,3.0214,3.0214,3.0214,3.0214,3.0214,3.0214,3.0214,3.0214,3.0214,3.0214,3.0298,3.0419,3.0588,3.0769,3.1059,3.1505,3.171,3.1807,3.1807,3.1807,3.1807,3.1807,3.1807,3.1807,3.1807,3.1807,3.1807,3.1807,3.1904,3.1904,3.1807,3.1904,3.1891]},{"header":{"parameterUnit":"m.s-1","parameterCategory":1,"la1":30.6,"la2":29.2853,"lo1":-89.7004,"lo2":-87.6739,"dy":0.0162,"dx":0.0183,"nx":112,"ny":82,"refTime":"2026-04-16T12:00:00:Z","depth":0,"parameterNumber":3,"parameterNumberName":"V-component_of_WINDS"},"data":[0.0,0.0,0.0,0.0,0.0,0.0,0.0,0.0,0.0,0.0,0.0,0.0,0.0,0.0,0.0,0.0,0.0,0.0,0.0,0.0,0.0,0.0,0.0,0.0,0.0,0.0,0.0,0.0,0.0,0.0,0.0,0.0,0.0,0.0,0.0,0.0,0.0,0.0,0.0,0.0,0.0,0.0,0.0,0.0,0.0,0.0,0.0,0.0,0.0,0.0,0.0,0.0,0.0,0.0,0.0,0.0,0.0,0.0,0.0,0.0,0.0,0.0,0.0,0.0,0.0,0.0,0.0,0.0,0.0,0.0,0.0,0.0,0.0,0.0,0.0,0.0,0.0,0.0,0.0,0.0,0.0,0.0,0.0,0.0,0.0,0.0,0.0,0.0,0.0,0.0,0.0,3.8725,4.6721,5.0718,4.8561,4.6636,4.3555,3.8858,0.0,0.0,0.0,0.0,0.0,0.0,0.0,0.0,0.0,0.0,0.0,0.0,0.0,0.0,0.0,0.0,0.0,0.0,0.0,0.0,0.0,0.0,0.0,0.0,0.0,0.0,0.0,0.0,0.0,0.0,0.0,0.0,0.0,0.0,0.0,0.0,0.0,0.0,0.0,0.0,0.0,0.0,0.0,0.0,0.0,0.0,0.0,0.0,0.0,0.0,0.0,0.0,0.0,0.0,0.0,0.0,0.0,0.0,0.0,0.0,0.0,0.0,0.0,0.0,0.0,0.0,0.0,0.0,0.0,0.0,0.0,0.0,0.0,0.0,0.0,0.0,0.0,0.0,0.0,0.0,0.0,0.0,0.0,0.0,0.0,0.0,0.0,0.0,0.0,0.0,0.0,0.0,0.0,0.0,0.0,0.0,0.0,0.0,0.0,0.0,0.0,0.0,0.0,0.0,3.6869,4.5581,5.0341,5.2495,5.1454,4.8576,4.5288,4.1711,0.0,0.0,0.0,0.0,0.0,0.0,0.0,0.0,0.0,0.0,0.0,0.0,0.0,0.0,0.0,0.0,0.0,0.0,0.0,0.0,0.0,0.0,0.0,0.0,0.0,0.0,0.0,0.0,0.0,0.0,0.0,0.0,0.0,0.0,0.0,0.0,0.0,0.0,0.0,0.0,0.0,0.0,0.0,0.0,0.0,0.0,0.0,0.0,0.0,0.0,0.0,0.0,0.0,0.0,0.0,0.0,0.0,0.0,0.0,0.0,0.0,0.0,0.0,0.0,0.0,0.0,0.0,0.0,0.0,0.0,0.0,0.0,0.0,0.0,0.0,0.0,0.0,0.0,0.0,0.0,0.0,0.0,0.0,0.0,0.0,0.0,0.0,0.0,0.0,0.0,0.0,0.0,0.0,0.0,0.0,0.0,0.0,0.0,0.0,0.0,0.0,0.0,0.0,3.7492,4.326,4.8859,5.17,5.2527,5.0849,4.848,4.5114,4.0437,3.3118,0.0,0.0,0.0,0.0,0.0,0.0,0.0,0.0,0.0,0.0,0.0,0.0,0.0,0.0,0.0,0.0,0.0,0.0,0.0,0.0,0.0,0.0,0.0,0.0,0.0,0.0,0.0,0.0,0.0,0.0,0.0,0.0,0.0,0.0,0.0,0.0,0.0,0.0,0.0,0.0,0.0,0.0,0.0,0.0,0.0,0.0,0.0,0.0,0.0,0.0,0.0,0.0,0.0,0.0,0.0,0.0,0.0,0.0,0.0,0.0,0.0,0.0,0.0,0.0,0.0,0.0,0.0,0.0,0.0,0.0,0.0,0.0,0.0,0.0,0.0,0.0,0.0,0.0,0.0,0.0,0.0,0.0,0.0,0.0,0.0,0.0,0.0,0.0,0.0,0.0,0.0,0.0,0.0,0.0,0.0,0.0,0.0,0.0,0.0,0.0,0.0,0.0,4.4116,4.8636,5.0717,5.2475,5.2417,4.9821,4.7719,4.417,3.8582,3.2422,0.0,0.0,0.0,0.0,0.0,0.0,0.0,0.0,0.0,0.0,0.0,0.0,0.0,0.0,0.0,0.0,0.0,0.0,0.0,0.0,0.0,0.0,0.0,0.0,0.0,0.0,0.0,0.0,0.0,0.0,0.0,0.0,0.0,0.0,0.0,0.0,0.0,0.0,0.0,0.0,0.0,0.0,0.0,0.0,0.0,0.0,0.0,0.0,0.0,0.0,0.0,0.0,0.0,0.0,0.0,0.0,0.0,0.0,0.0,0.0,0.0,0.0,0.0,0.0,0.0,0.0,0.0,0.0,0.0,0.0,0.0,0.0,0.0,0.0,0.0,0.0,0.0,0.0,0.0,0.0,0.0,0.0,0.0,0.0,0.0,0.0,0.0,0.0,0.0,0.0,0.0,0.0,0.0,0.0,0.0,0.0,0.0,0.0,0.0,0.0,0.0,0.0,4.6786,5.0865,5.1783,5.3335,5.3041,4.9867,4.6691,4.274,3.7713,3.1073,0.0,0.0,0.0,0.0,0.0,0.0,0.0,0.0,0.0,0.0,0.0,0.0,0.0,0.0,0.0,0.0,0.0,0.0,0.0,0.0,0.0,0.0,0.0,0.0,0.0,0.0,0.0,0.0,0.0,0.0,0.0,0.0,0.0,0.0,0.0,0.0,0.0,0.0,0.0,0.0,0.0,0.0,0.0,0.0,0.0,0.0,0.0,0.0,0.0,0.0,0.0,0.0,0.0,0.0,0.0,0.0,0.0,0.0,0.0,0.0,0.0,0.0,0.0,0.0,0.0,0.0,0.0,0.0,0.0,0.0,0.0,0.0,0.0,0.0,0.0,0.0,0.0,0.0,0.0,0.0,0.0,0.0,0.0,0.0,0.0,0.0,0.0,0.0,0.0,0.0,0.0,0.0,0.0,0.0,0.0,0.0,0.0,0.0,0.0,0.0,0.0,0.0,4.7829,5.205,0.0,5.4483,5.3859,5.0618,4.7783,4.3657,3.7677,0.0,0.0,0.0,0.0,0.0,0.0,0.0,0.0,0.0,0.0,0.0,0.0,0.0,0.0,0.0,0.0,0.0,0.0,0.0,0.0,0.0,0.0,0.0,0.0,0.0,0.0,0.0,0.0,0.0,0.0,0.0,0.0,0.0,0.0,0.0,0.0,0.0,0.0,0.0,0.0,0.0,0.0,0.0,0.0,0.0,0.0,0.0,0.0,0.0,0.0,0.0,0.0,0.0,0.0,0.0,0.0,0.0,0.0,0.0,0.0,0.0,0.0,0.0,0.0,0.0,0.0,0.0,0.0,0.0,0.0,0.0,0.0,0.0,0.0,0.0,0.0,0.0,0.0,0.0,0.0,0.0,0.0,0.0,0.0,0.0,0.0,0.0,0.0,0.0,0.0,0.0,0.0,0.0,0.0,0.0,0.0,0.0,0.0,0.0,0.0,0.0,0.0,4.2196,4.8716,5.3188,0.0,5.5354,5.4583,5.1096,4.8296,4.4023,3.7684,0.0,0.0,0.0,0.0,0.0,0.0,0.0,0.0,0.0,0.0,0.0,0.0,0.0,0.0,0.0,0.0,0.0,0.0,0.0,0.0,0.0,0.0,0.0,0.0,0.0,0.0,0.0,0.0,0.0,0.0,0.0,0.0,0.0,0.0,0.0,0.0,0.0,0.0,0.0,0.0,0.0,0.0,0.0,0.0,0.0,0.0,0.0,0.0,0.0,0.0,0.0,0.0,0.0,0.0,0.0,0.0,0.0,0.0,0.0,0.0,0.0,0.0,0.0,0.0,0.0,0.0,0.0,0.0,0.0,0.0,0.0,0.0,0.0,0.0,0.0,0.0,0.0,0.0,0.0,0.0,0.0,0.0,0.0,0.0,0.0,0.0,0.0,0.0,0.0,0.0,0.0,0.0,0.0,0.0,0.0,0.0,0.0,0.0,0.0,0.0,0.0,0.0,4.2268,4.9667,5.4399,5.4436,5.5856,5.5196,5.1169,4.7865,4.3491,0.0,0.0,0.0,0.0,0.0,0.0,0.0,0.0,0.0,0.0,0.0,0.0,0.0,0.0,0.0,0.0,0.0,0.0,0.0,0.0,0.0,0.0,0.0,0.0,0.0,0.0,0.0,0.0,0.0,0.0,0.0,0.0,0.0,0.0,0.0,0.0,0.0,0.0,0.0,0.0,0.0,0.0,0.0,0.0,0.0,0.0,0.0,0.0,0.0,0.0,0.0,0.0,0.0,0.0,0.0,0.0,0.0,0.0,0.0,0.0,0.0,0.0,0.0,0.0,0.0,0.0,0.0,0.0,0.0,0.0,0.0,0.0,0.0,0.0,0.0,0.0,0.0,0.0,0.0,0.0,0.0,0.0,0.0,0.0,0.0,0.0,0.0,0.0,0.0,0.0,0.0,0.0,0.0,0.0,0.0,0.0,0.0,0.0,0.0,0.0,0.0,0.0,0.0,0.0,5.0033,5.484,5.5967,5.7005,5.6492,5.3592,5.1389,4.7231,4.0271,0.0,0.0,0.0,0.0,0.0,0.0,0.0,0.0,0.0,0.0,0.0,0.0,0.0,0.0,0.0,0.0,0.0,0.0,0.0,0.0,0.0,0.0,0.0,0.0,0.0,0.0,0.0,0.0,0.0,0.0,0.0,0.0,0.0,0.0,0.0,0.0,0.0,0.0,0.0,0.0,0.0,0.0,0.0,0.0,0.0,0.0,0.0,0.0,0.0,0.0,0.0,0.0,0.0,0.0,0.0,0.0,0.0,0.0,0.0,0.0,0.0,0.0,0.0,0.0,0.0,0.0,0.0,0.0,0.0,0.0,0.0,0.0,0.0,0.0,0.0,0.0,0.0,0.0,0.0,0.0,0.0,0.0,0.0,0.0,0.0,0.0,0.0,0.0,0.0,0.0,0.0,0.0,0.0,0.0,0.0,0.0,0.0,0.0,0.0,0.0,0.0,0.0,4.3386,5.0445,5.5354,5.6664,5.7519,5.7262,5.55,5.419,5.0385,4.3259,0.0,0.0,0.0,0.0,0.0,0.0,0.0,0.0,0.0,0.0,0.0,0.0,0.0,0.0,0.0,0.0,0.0,0.0,0.0,0.0,0.0,0.0,0.0,0.0,0.0,0.0,0.0,0.0,0.0,0.0,0.0,0.0,0.0,0.0,0.0,0.0,0.0,0.0,0.0,0.0,0.0,0.0,0.0,0.0,0.0,0.0,0.0,0.0,0.0,0.0,0.0,0.0,0.0,0.0,0.0,0.0,0.0,0.0,0.0,0.0,0.0,0.0,0.0,0.0,0.0,0.0,0.0,0.0,0.0,0.0,0.0,0.0,0.0,0.0,0.0,0.0,0.0,0.0,0.0,0.0,0.0,0.0,0.0,0.0,0.0,0.0,0.0,0.0,0.0,0.0,0.0,0.0,0.0,0.0,0.0,0.0,0.0,0.0,0.0,0.0,0.0,0.0,4.3695,5.1135,5.6169,5.6955,5.7774,5.7884,5.7028,5.6268,5.2983,4.6256,0.0,0.0,0.0,0.0,0.0,0.0,0.0,0.0,0.0,0.0,0.0,0.0,0.0,0.0,0.0,0.0,0.0,0.0,0.0,0.0,0.0,0.0,0.0,0.0,0.0,0.0,0.0,0.0,0.0,0.0,0.0,0.0,0.0,0.0,0.0,0.0,0.0,0.0,0.0,0.0,0.0,0.0,0.0,0.0,0.0,0.0,0.0,0.0,0.0,0.0,0.0,0.0,0.0,0.0,0.0,0.0,0.0,0.0,0.0,0.0,2.6006,0.0,0.0,0.0,0.0,0.0,0.0,0.0,0.0,0.0,0.0,0.0,0.0,0.0,0.0,0.0,0.0,0.0,0.0,0.0,0.0,0.0,0.0,0.0,0.0,0.0,0.0,0.0,0.0,0.0,0.0,0.0,0.0,0.0,0.0,0.0,0.0,0.0,0.0,0.0,0.0,0.0,4.542,5.301,5.8106,5.8917,5.9729,5.9618,5.8168,5.7921,5.4686,4.7352,0.0,0.0,0.0,0.0,0.0,0.0,0.0,0.0,0.0,0.0,0.0,0.0,0.0,0.0,0.0,0.0,0.0,0.0,0.0,0.0,0.0,0.0,0.0,0.0,0.0,0.0,0.0,0.0,0.0,0.0,0.0,0.0,0.0,0.0,0.0,0.0,0.0,0.0,0.0,0.0,0.0,0.0,0.0,0.0,0.0,0.0,0.0,0.0,0.0,0.0,0.0,0.0,0.0,0.0,0.0,0.0,0.0,0.0,0.0,0.0,0.0,3.0199,0.0,0.0,0.0,0.0,0.0,0.0,0.0,0.0,0.0,0.0,0.0,0.0,0.0,0.0,0.0,0.0,0.0,0.0,0.0,0.0,0.0,0.0,0.0,0.0,0.0,0.0,0.0,0.0,0.0,0.0,0.0,0.0,0.0,0.0,0.0,0.0,0.0,0.0,0.0,0.0,4.5996,5.3587,5.8688,5.9512,6.0325,6.0325,5.9058,5.8995,5.6282,5.0014,4.5662,0.0,0.0,0.0,0.0,0.0,0.0,0.0,0.0,0.0,0.0,0.0,0.0,0.0,0.0,0.0,0.0,0.0,0.0,0.0,0.0,0.0,0.0,0.0,0.0,0.0,0.0,0.0,0.0,0.0,0.0,0.0,0.0,0.0,0.0,0.0,0.0,0.0,0.0,0.0,0.0,0.0,0.0,0.0,0.0,0.0,0.0,0.0,0.0,0.0,0.0,0.0,0.0,0.0,0.0,4.2967,4.3632,4.4524,4.532,4.5751,4.1119,3.8291,3.6921,0.0,0.0,0.0,0.0,0.0,0.0,0.0,0.0,0.0,0.0,0.0,0.0,0.0,0.0,0.0,0.0,0.0,0.0,0.0,0.0,0.0,0.0,0.0,0.0,0.0,4.7538,4.7239,0.0,0.0,0.0,0.0,0.0,0.0,0.0,0.0,0.0,0.0,0.0,0.0,4.6766,5.4165,5.9198,6.0011,6.0825,6.0973,6.0159,5.9975,5.7872,5.3172,4.9131,4.4697,0.0,0.0,0.0,0.0,0.0,0.0,0.0,0.0,0.0,0.0,0.0,0.0,0.0,0.0,0.0,0.0,0.0,0.0,0.0,0.0,0.0,0.0,0.0,0.0,0.0,0.0,0.0,0.0,0.0,0.0,0.0,0.0,2.4282,2.4448,0.0,0.0,0.0,0.0,0.0,0.0,0.0,0.0,0.0,0.0,0.0,0.0,0.0,0.0,4.2893,4.5172,4.6762,4.761,4.9677,5.0725,5.0897,5.231,5.3049,5.3153,5.3037,0.0,4.3059,4.2099,0.0,0.0,0.0,0.0,0.0,0.0,0.0,0.0,0.0,0.0,0.0,0.0,0.0,0.0,0.0,0.0,0.0,0.0,0.0,0.0,0.0,0.0,5.2817,5.3879,5.5012,5.5592,0.0,4.986,4.4839,4.2159,0.0,0.0,0.0,0.0,0.0,0.0,0.0,0.0,4.9512,5.6483,6.1143,6.1949,6.2766,6.2914,6.2098,6.1403,5.943,5.5815,5.2396,4.8523,4.4058,3.883,0.0,0.0,0.0,0.0,0.0,0.0,0.0,0.0,0.0,0.0,0.0,0.0,0.0,0.0,0.0,0.0,0.0,0.0,0.0,0.0,0.0,0.0,0.0,0.0,0.0,0.0,0.0,0.0,0.0,2.5855,2.8629,2.8687,2.971,2.9787,0.0,0.0,0.0,0.0,0.0,0.0,0.0,0.0,0.0,4.2443,4.4728,4.7382,5.0523,5.2463,5.3789,5.4547,5.6409,5.7306,5.7391,5.8909,5.9599,5.9668,6.0392,5.8357,5.42,4.9933,4.6686,4.4098,0.0,0.0,0.0,0.0,0.0,4.2427,4.4307,0.0,0.0,0.0,0.0,0.0,0.0,0.0,0.0,0.0,0.0,0.0,0.0,0.0,0.0,5.7821,5.8724,5.9451,5.9451,5.7069,5.3645,0.0,4.58,4.2466,3.8315,0.0,0.0,0.0,0.0,0.0,5.1526,5.7529,6.1521,6.229,6.3108,6.3256,6.2476,6.2068,6.0645,5.7744,5.5795,5.3027,4.9196,4.4613,4.0653,0.0,0.0,0.0,0.0,0.0,0.0,0.0,0.0,0.0,0.0,0.0,0.0,0.0,0.0,0.0,0.0,0.0,0.0,0.0,0.0,0.0,0.0,0.0,0.0,0.0,0.0,0.0,0.0,3.0596,3.3456,3.3919,3.5137,3.5315,0.0,0.0,0.0,0.0,0.0,0.0,4.1964,4.3088,4.5479,4.9412,5.0952,5.331,5.6672,5.8071,5.9248,6.0202,6.1519,6.2282,6.2507,6.3859,6.4483,6.45,6.5054,6.4673,6.3183,5.7267,5.341,5.0875,4.7823,4.6567,4.6548,4.7451,4.8633,5.0125,5.217,5.2237,5.1203,4.9893,0.0,4.4565,4.2511,0.0,0.0,0.0,0.0,5.1243,5.4162,0.0,6.0794,6.1033,6.1764,6.2413,6.2179,6.1967,6.0157,0.0,5.1573,4.8612,4.4443,0.0,0.0,0.0,0.0,4.8357,5.3723,5.8572,6.1808,6.2625,6.3256,6.3368,6.2773,6.2513,6.151,5.9467,5.839,5.6473,5.3479,4.9446,4.5855,0.0,0.0,0.0,0.0,0.0,0.0,0.0,0.0,0.0,0.0,0.0,0.0,0.0,0.0,0.0,0.0,0.0,0.0,0.0,0.0,0.0,0.0,0.0,0.0,0.0,0.0,0.0,0.0,0.0,0.0,4.0539,4.1413,0.0,0.0,0.0,0.0,4.2289,4.5211,4.7566,4.8999,5.1011,5.2898,5.4689,5.6156,5.7802,5.9655,6.0639,6.1879,6.3372,6.4162,6.4934,6.5689,6.6479,6.683,6.683,6.6865,6.6847,6.6513,6.3305,5.996,5.676,5.5408,5.4592,5.4288,5.5628,5.6967,5.8349,6.0134,5.9771,5.834,5.7582,5.3873,4.9412,4.8143,4.7426,0.0,0.0,5.3746,5.6678,5.9578,6.2366,6.4443,6.4522,6.5225,6.5633,6.4816,6.4036,6.2194,0.0,5.5611,5.3051,4.8816,0.0,4.4729,4.659,4.9113,5.235,5.665,6.0194,6.2662,6.3442,6.359,6.359,6.3553,6.2848,6.2041,6.115,5.9542,5.7829,5.5994,5.2597,4.9101,4.558,4.0926,0.0,0.0,0.0,0.0,0.0,0.0,0.0,0.0,0.0,0.0,0.0,0.0,0.0,0.0,0.0,0.0,0.0,0.0,0.0,0.0,0.0,0.0,0.0,0.0,0.0,0.0,0.0,0.0,4.6142,4.8351,0.0,0.0,4.7272,4.7949,5.0007,5.2549,5.5065,5.751,5.842,5.9902,6.219,6.2568,6.3424,6.4766,6.5382,6.5956,6.6508,6.7751,6.8533,6.8834,7.0096,7.0682,7.0682,7.0682,7.0682,7.0594,6.9495,6.6458,6.2264,6.0489,5.9725,5.9635,6.0101,6.0762,6.1665,6.3045,6.3188,6.2454,6.0673,5.7824,5.5044,5.4924,5.4576,5.4737,5.73,5.9323,6.1101,6.2835,6.4443,6.5624,6.5622,6.5856,6.5856,6.5002,6.4185,6.2985,6.0984,5.9197,5.7412,5.538,5.2934,5.1878,5.3556,5.4197,5.5758,5.9388,6.1351,6.2699,6.3516,6.359,6.359,6.359,6.2848,6.2068,6.125,6.0099,5.8974,5.7829,5.6108,5.3763,5.0698,4.5712,4.0682,0.0,0.0,0.0,0.0,0.0,0.0,0.0,0.0,0.0,0.0,0.0,0.0,0.0,0.0,0.0,0.0,0.0,0.0,0.0,0.0,0.0,0.0,0.0,0.0,0.0,0.0,5.0529,5.1861,5.4351,5.5495,5.4276,5.3893,5.4505,5.6317,5.8592,6.0705,6.2606,6.2947,6.3997,6.5988,6.5871,6.6326,6.7511,6.8138,6.8726,6.9265,7.027,7.106,7.1634,7.2659,7.3108,7.3108,7.3108,7.3108,7.3125,7.3194,7.1151,6.7776,6.6007,6.5058,6.4723,6.4848,6.5125,6.5514,6.6207,6.6429,6.6126,6.4334,6.2537,6.1189,6.1607,6.1198,6.0991,6.2954,6.3984,6.4695,6.5715,6.644,6.6896,6.6896,6.6896,6.6673,6.5819,6.4556,6.3442,6.2922,6.1473,6.0062,5.9245,5.7722,5.7016,5.813,5.8093,5.8846,6.1298,6.229,6.2996,6.3553,6.359,6.359,6.359,6.2848,6.2068,6.125,6.0136,5.9245,5.8725,5.7685,5.595,5.3534,4.7411,4.1968,3.7327,0.0,0.0,0.0,0.0,0.0,0.0,0.0,0.0,0.0,0.0,0.0,0.0,0.0,0.0,0.0,0.0,0.0,0.0,0.0,0.0,0.0,0.0,0.0,4.5449,5.0707,5.5195,5.757,5.9274,6.0222,6.0071,5.9919,6.0181,6.1016,6.3202,6.4353,6.4027,6.4465,6.5066,6.5836,6.5816,6.6384,6.761,6.8795,7.0123,7.1593,7.163,7.2463,7.397,7.4006,7.4006,7.4006,7.4006,7.4006,7.4038,7.4215,7.39,7.3191,7.1941,7.064,6.9505,7.005,7.0242,7.0196,6.9789,6.9657,6.9529,6.8805,6.8064,6.7543,6.783,6.7032,6.6221,6.7516,6.7467,6.7283,6.8209,6.8493,6.8493,6.8531,6.8568,6.8345,6.7528,6.5411,6.3665,6.3628,6.2365,6.1001,6.0173,6.0062,6.0099,6.0099,6.0805,0.0,6.2413,6.3182,6.3628,6.3628,6.359,6.359,6.359,6.2848,6.2041,6.1224,5.9579,5.865,5.8613,5.7138,5.5501,5.3696,4.5966,4.0122,3.6379,0.0,0.0,0.0,0.0,0.0,0.0,0.0,0.0,0.0,0.0,0.0,0.0,0.0,0.0,0.0,0.0,0.0,0.0,0.0,0.0,0.0,0.0,4.8345,4.9231,5.4752,5.9345,6.1166,6.2864,6.3877,6.3839,6.3264,6.3471,6.4848,6.6093,6.6692,6.6434,6.6742,6.7089,6.7448,6.7863,6.8961,7.0762,7.2464,7.3528,7.3967,7.4552,7.5065,7.5504,7.611,7.6366,7.6366,7.6366,7.6444,7.6604,7.665,7.6278,7.5426,7.3113,7.1619,7.0783,7.0909,7.1135,7.1399,7.1323,7.0908,7.045,7.0232,6.9629,6.8939,6.8629,6.7973,6.7292,6.7307,6.6876,6.6564,6.7416,6.8048,6.8642,6.9236,6.9831,6.9868,6.8456,6.6673,6.5188,6.4593,6.3628,6.2848,6.2625,6.359,6.4408,6.4408,0.0,0.0,6.5039,6.4705,6.4482,6.4482,6.3962,6.359,6.359,6.2328,6.1176,0.0,5.8725,5.7583,5.6989,5.71,5.5748,5.2661,4.7985,4.376,0.0,0.0,0.0,0.0,0.0,0.0,0.0,0.0,0.0,0.0,0.0,0.0,0.0,0.0,0.0,0.0,0.0,0.0,0.0,0.0,0.0,0.0,4.9444,5.3644,5.5532,5.9408,6.2659,6.4252,6.5841,6.6793,6.6793,6.6696,6.699,6.7944,6.8752,6.883,6.8004,6.8022,6.8095,6.8219,6.8909,7.0198,7.2093,7.3977,7.505,7.5432,7.5873,7.6276,7.6644,7.7182,7.7433,0.0,7.7508,7.7584,7.7688,7.7747,7.7355,0.0,0.0,0.0,0.0,0.0,7.3012,7.2979,7.3,7.2528,7.1903,7.1903,7.1572,7.1062,7.0414,6.9215,6.7961,6.737,6.6132,6.5225,6.6042,6.7119,6.8196,6.9013,7.0091,7.0536,6.9274,6.7416,6.5856,6.5448,0.0,0.0,6.4593,6.5448,6.6079,6.6079,6.6079,6.6079,0.0,6.5671,6.5336,6.5336,6.4928,6.4482,6.4148,6.2922,0.0,0.0,0.0,5.7796,5.7323,5.7425,0.0,0.0,0.0,0.0,0.0,0.0,0.0,0.0,3.9954,4.1211,0.0,0.0,0.0,0.0,0.0,0.0,0.0,0.0,0.0,0.0,0.0,0.0,0.0,0.0,0.0,0.0,5.4285,5.8807,6.2548,6.4238,6.5558,6.6846,6.8111,6.8935,6.9045,6.9669,7.011,7.011,7.1013,7.0773,6.8961,0.0,0.0,0.0,0.0,7.0836,7.2585,7.4294,7.5527,7.624,7.624,7.6607,7.7356,7.7508,7.762,7.7614,7.7762,7.782,7.7813,7.7957,7.7584,7.6954,7.6628,7.6068,7.5467,7.5593,7.5189,0.0,0.0,0.0,0.0,7.3571,7.3534,7.3385,7.2456,7.0512,6.8456,6.7676,6.5708,6.4073,6.4853,6.6302,6.7788,6.8568,7.0016,7.0945,7.0165,6.8196,6.6525,6.6525,6.5819,6.5448,6.6228,6.6376,6.6376,6.6376,6.6376,0.0,6.6376,6.6302,6.6228,6.6228,0.0,0.0,6.5002,6.4185,6.307,6.1558,5.9802,5.8836,5.8836,5.813,5.7687,5.7529,5.5375,5.3608,5.2308,5.2685,5.3102,5.3499,4.8529,4.8218,0.0,0.0,0.0,0.0,0.0,0.0,0.0,0.0,0.0,0.0,0.0,0.0,0.0,0.0,0.0,5.3276,5.8064,6.2249,6.4831,6.753,6.9113,6.8847,6.8864,6.9155,6.9816,7.0,7.011,7.011,7.2055,7.2224,6.9958,7.103,0.0,7.0745,7.1529,7.2753,7.4382,7.6026,7.6922,7.7069,0.0,0.0,7.7524,7.7569,7.7643,7.7776,7.7806,7.7856,7.7971,7.8,7.8011,7.7863,7.6499,7.5855,7.572,7.5747,7.5635,7.5537,7.5564,7.5466,7.5243,7.4574,7.4351,7.4091,7.2642,7.092,0.0,6.8493,6.6971,6.5782,6.6599,6.8011,6.9459,7.0239,7.1701,7.2717,7.1899,7.0809,6.9744,6.9125,6.8345,6.7825,6.8011,6.8048,6.8048,6.8048,6.8048,6.8048,6.8048,6.7453,6.7082,6.7082,6.6488,6.6042,6.5856,6.5076,6.4148,6.3182,6.0953,5.9653,5.9653,5.9505,5.942,5.9377,5.9488,5.8969,5.7856,5.9237,6.0316,6.0906,5.6372,5.5242,0.0,0.0,0.0,0.0,0.0,0.0,0.0,0.0,0.0,0.0,0.0,4.6073,4.9002,0.0,5.4735,5.7242,6.0845,6.4114,6.6394,6.9027,7.0455,6.9793,7.0159,7.0668,7.1075,7.1481,7.1662,7.1631,7.313,7.3323,7.1632,7.27,7.3165,7.276,7.3547,7.4527,7.5728,7.6943,7.7532,7.7532,7.7532,7.7614,7.7703,7.7776,7.7827,7.79,7.8023,7.8094,7.8127,7.8127,7.8221,7.8216,7.7398,7.7064,7.7064,7.7064,7.6804,7.6469,7.6469,7.6172,7.5689,7.4872,7.4612,7.4314,7.2679,7.1032,6.9534,6.8716,6.7305,6.6228,6.7082,6.8493,6.9905,7.071,7.2184,7.3274,7.2902,7.2146,7.1441,7.1032,6.9942,6.9088,6.9088,6.8753,6.8493,6.8493,6.8493,6.8493,6.8493,6.8159,6.7899,6.7899,6.7528,6.7156,6.6711,6.5522,6.4631,6.4222,6.2662,6.1919,6.2328,6.1956,6.1956,6.2328,6.232,6.2185,6.1905,6.2884,6.3931,6.4968,6.2877,6.1899,0.0,0.0,0.0,0.0,0.0,0.0,0.0,0.0,4.3281,4.7087,5.0089,5.2837,5.5626,5.7504,5.9109,6.0644,6.3014,6.5436,6.7554,7.0012,7.1317,7.0634,7.1549,7.2311,7.246,7.3204,7.355,7.3246,7.4269,7.4509,7.3595,7.4427,7.4917,7.4917,7.5545,7.6173,7.6809,7.7488,7.782,7.782,7.782,7.7798,7.7827,7.7957,7.8028,7.8071,7.8235,7.829,7.829,7.829,7.829,7.829,7.829,7.829,7.829,7.829,7.7881,7.7324,7.7324,7.6878,7.6172,7.5355,7.5095,7.4797,7.3348,7.1849,7.0536,6.9868,6.8605,6.7602,6.832,6.9459,7.0574,7.1242,7.2406,7.3385,7.3385,7.2902,7.2419,7.2419,7.1218,7.0202,7.0202,6.9496,6.8865,6.8568,6.8493,6.8493,6.8493,6.8493,6.8493,6.8493,6.8493,6.8233,6.7602,6.6302,6.5448,6.5299,6.4668,6.4556,6.5039,6.4445,6.4408,6.5039,6.4556,6.4538,6.4966,6.5502,6.6344,6.7456,6.7839,6.7346,2.8195,3.2196,3.8398,4.1857,4.5094,4.7663,0.0,0.0,5.0684,5.2724,5.579,5.8223,5.8606,6.0064,6.1516,6.2464,6.4764,6.6979,6.8608,7.1582,7.3251,7.2338,7.251,7.3002,7.3715,7.4516,7.4632,7.3812,7.5617,7.6425,7.5548,7.6707,7.7414,7.7414,7.7488,7.7562,7.7673,7.7747,7.782,7.782,7.782,7.7856,7.7986,7.8,7.8099,7.8262,7.8276,7.829,7.829,7.829,7.829,7.829,7.829,7.829,7.829,7.829,7.8253,7.8179,7.8179,7.8104,7.7881,7.7064,7.6804,7.6655,7.5689,7.476,7.4054,7.3943,7.3274,7.2605,7.2679,7.2865,7.3014,7.3088,7.3274,7.3385,7.3385,7.3311,7.3274,7.3274,7.2531,7.1936,7.1936,7.1218,7.0165,6.8716,6.8493,6.8493,6.8493,6.8493,6.8493,6.8493,6.8493,6.8456,6.8382,6.8196,6.7788,6.7082,6.6933,6.6599,6.5968,6.5856,6.5856,6.5931,6.6562,6.6922,6.6972,6.8444,6.9224,6.941,7.0152,6.9915,3.4531,3.7923,4.2954,4.7806,5.1548,5.4414,5.5769,5.6368,5.7266,5.9463,6.1464,6.293,6.3419,6.3694,6.4114,0.0,6.6445,6.8227,7.0337,7.2286,7.3348,7.2962,7.1665,7.1399,7.2858,7.3306,7.3517,7.357,7.5721,7.6841,7.6431,7.7761,7.8525,7.8431,7.8349,7.8304,7.8221,7.8136,7.8094,7.8094,7.8094,7.8122,7.8155,7.8155,7.8221,7.829,7.829,7.829,7.829,7.829,7.829,7.829,7.829,7.829,7.829,7.829,7.829,7.829,7.829,7.829,7.8179,7.7361,7.7101,7.6952,7.6061,7.5578,7.5318,7.5318,7.5057,7.4797,7.4797,7.4463,7.4091,7.4091,7.372,7.3385,7.3385,7.3385,7.3385,7.3385,7.2754,7.2196,7.2196,7.1478,7.0685,7.0016,6.9905,6.9905,6.9905,6.9905,6.9905,6.9905,6.9905,6.9905,6.9905,6.9905,6.9756,6.9422,6.9385,6.9236,6.8902,6.8902,6.8902,6.8902,6.9236,6.9385,6.9385,7.0091,7.0388,7.0425,7.0747,7.0932,3.9515,4.2881,4.7089,5.2559,5.6652,5.9636,6.086,6.1319,6.1969,6.3569,6.4701,6.5558,6.5979,6.5696,6.5689,6.6583,6.7875,6.949,7.1574,7.3016,7.3737,7.3269,7.116,7.0201,7.1376,7.1711,7.2244,7.3249,7.5725,7.7149,7.705,7.8438,7.9188,7.9053,7.889,7.871,7.8578,7.84,7.829,7.829,7.829,7.829,7.829,7.829,7.829,7.829,7.829,7.829,7.829,7.829,7.829,7.829,7.829,7.829,7.829,7.829,7.829,7.829,7.829,7.829,7.8216,7.7621,7.7435,7.7324,7.6692,7.6507,7.6507,7.6507,7.6507,7.6507,7.6507,7.5875,7.528,7.528,7.4649,7.4054,7.4054,7.4054,7.4054,7.4054,7.3423,7.2865,7.2865,7.2146,7.1576,7.1576,7.1576,7.1428,7.0982,7.0908,7.0908,7.0908,7.0908,7.0908,7.0908,7.0908,7.0908,7.0908,7.0908,7.0908,7.0908,7.0908,7.0908,7.0908,7.0908,7.0908,7.0908,7.1131,7.1242,7.1279,7.1688,7.2258,4.1455,4.6445,5.1321,5.5606,5.9824,6.2969,6.3007,6.3652,6.4067,6.3294,6.4395,6.5264,6.4492,6.4931,6.5704,6.6628,6.8908,7.0854,7.1843,7.4082,7.501,7.34,7.1712,7.0363,0.0,7.0256,7.1406,7.2972,7.5964,7.7646,7.7587,7.8894,7.9621,7.9509,7.9149,7.8916,7.8777,7.8458,7.829,7.829,7.829,7.829,7.829,7.829,7.829,7.829,7.829,7.829,7.829,7.829,7.829,7.829,7.829,7.829,7.829,7.829,7.829,7.829,7.829,7.829,7.829,7.8253,7.8253,7.8253,7.8216,7.8216,7.8216,7.8216,7.8216,7.8216,7.8216,7.7621,7.7027,7.7027,7.6358,7.5726,7.5726,7.5726,7.5726,7.5726,7.5095,7.4537,7.4537,7.3868,7.3311,7.3311,7.3311,7.2754,7.1131,7.0908,7.0908,7.0908,7.0908,7.0908,7.0908,7.0908,7.0908,7.0908,7.0908,7.0908,7.0908,7.0908,7.0908,7.0908,7.0908,7.0908,7.0908,7.1738,7.2159,7.2196,7.3757,7.45,4.5008,4.9837,5.431,5.8539,6.1916,6.4365,6.4977,6.5318,6.5263,6.4357,6.3658,6.3258,6.3501,6.3754,6.4719,6.7245,6.9871,7.2072,7.3514,7.4481,7.4396,7.2751,7.0553,0.0,0.0,0.0,0.0,7.139,7.4486,7.655,7.7058,7.9076,8.0139,7.9916,7.9647,7.9398,7.9186,7.8966,7.8799,7.8708,7.8522,7.8386,7.829,7.829,7.829,7.829,7.829,7.829,7.829,7.829,7.829,7.829,7.829,7.8625,7.9108,7.9108,7.9442,7.9739,7.8662,7.829,7.829,7.829,7.829,7.829,7.829,7.829,7.829,7.829,7.829,7.829,7.829,7.7696,7.7101,7.7101,7.6432,7.5801,7.5801,7.5801,7.5801,7.5801,7.5169,7.4612,7.4612,7.3943,7.3385,7.3385,7.3385,7.32,7.2629,7.2555,7.2555,7.2555,7.2555,7.2555,7.2555,7.2555,7.2555,7.2555,7.2555,7.2555,7.2555,7.2555,7.2555,7.2555,7.2555,7.2555,7.2555,7.3385,7.3794,7.3831,7.4909,7.5392,4.9268,5.38,5.7823,6.1174,6.3674,6.5475,6.6051,6.6167,6.565,6.3816,6.2025,6.0888,6.1383,6.1632,6.2995,6.6668,7.0004,7.2575,7.4012,7.4755,7.4668,7.3245,7.1392,6.9744,0.0,0.0,0.0,7.0244,7.3415,7.5761,7.692,7.9361,8.0605,8.0401,8.0159,7.9895,7.9702,7.9459,7.9176,7.8954,7.8723,7.8485,7.829,7.829,7.829,7.829,7.829,7.829,7.829,7.829,7.829,7.8327,7.8625,7.9033,7.9516,7.9814,8.0259,8.0505,7.9182,7.8736,7.8699,7.8402,7.829,7.829,7.829,7.829,7.829,7.829,7.829,7.829,7.829,7.7919,7.7547,7.7547,7.7101,7.6692,7.6692,7.6692,7.6692,7.6692,7.6061,7.5503,7.5503,7.4797,7.4277,7.4277,7.4277,7.4054,7.346,7.3385,7.3385,7.3385,7.3385,7.3385,7.3385,7.3385,7.3534,7.3794,7.3571,7.3534,7.3831,7.3831,7.3831,7.3831,7.4128,7.4277,7.4277,7.4797,7.502,7.5057,7.5875,7.6246,5.4068,5.8291,6.1892,6.3665,6.5243,6.6403,6.6403,6.6325,6.5278,6.1814,5.9525,5.816,5.8095,5.8627,6.0503,6.4885,6.9222,7.2359,7.3346,7.4938,7.5668,0.0,0.0,0.0,0.0,0.0,0.0,6.9898,0.0,7.5438,7.7215,7.9708,8.1053,8.0888,8.0593,8.0354,8.0211,7.9889,7.9498,7.9053,7.8891,7.8633,7.8304,7.8304,7.8341,7.8364,7.8364,7.8364,7.8439,7.8439,7.8439,7.8513,7.9256,7.9591,7.9739,8.0468,8.0765,8.0691,7.9925,7.9591,7.9368,7.8625,7.8327,7.829,7.829,7.829,7.829,7.829,7.829,7.829,7.829,7.829,7.829,7.829,7.829,7.829,7.829,7.829,7.829,7.829,7.7658,7.7101,7.7027,7.6358,7.5801,7.5801,7.5801,7.5243,7.372,7.3534,7.3497,7.346,7.3497,7.3497,7.346,7.3497,7.3831,7.4612,7.3943,7.3868,7.4649,7.4649,7.4649,7.4649,7.5429,7.5801,7.5801,7.5838,7.5875,7.5912,7.6804,7.7213,5.8559,6.2527,6.572,6.7472,6.7738,6.7576,6.7576,6.6585,6.453,6.0414,5.6606,5.4027,5.3924,5.4448,5.668,6.2238,6.7661,0.0,7.3276,7.4938,0.0,7.4815,0.0,7.4707,7.3007,7.243,0.0,0.0,7.3661,7.4822,7.7176,7.9708,8.1053,8.0888,8.0754,8.0641,8.0503,8.0161,7.9853,7.9607,7.9321,7.8954,7.8589,7.8495,7.8721,7.9182,7.9182,7.9516,8.0097,8.0097,8.0097,8.0111,8.0334,8.078,8.1374,8.1597,8.2043,8.2452,8.1634,8.0557,7.9479,7.9256,7.881,7.829,7.829,7.829,7.829,7.829,7.829,7.829,7.829,7.829,7.829,7.829,7.829,7.829,7.829,7.829,7.829,7.829,7.7658,7.6878,7.6246,7.5949,7.5801,7.5801,7.5801,7.5652,7.5243,7.5206,7.4946,7.4351,7.4834,7.4946,7.4351,7.4834,7.528,7.5466,7.5318,7.528,7.5503,7.5503,7.5503,7.5503,7.5689,7.5801,7.5801,7.6469,7.6767,7.6804,7.8216,7.8885,6.2192,6.5504,6.7998,6.8582,6.8346,6.7725,6.6605,6.5021,6.2457,5.7734,5.3005,4.9932,5.0636,5.1311,5.3846,0.0,0.0,0.0,7.2302,7.4248,7.5331,0.0,7.5491,0.0,7.4707,7.4584,7.4938,0.0,7.5053,7.5553,7.7715,7.99,8.1069,8.0983,8.0934,8.0885,8.0835,8.0558,8.0335,8.0078,7.9784,7.9355,7.8839,7.9084,7.9318,7.9516,0.0,8.0297,8.0691,8.0691,8.0691,8.0728,8.1114,8.156,8.2043,8.2415,8.2823,8.3158,8.2675,8.1671,8.0482,7.9739,7.8959,7.829,7.829,7.829,7.829,7.829,7.829,7.829,7.829,7.829,7.829,7.829,7.829,7.829,7.829,7.829,7.829,7.829,7.7956,7.7473,7.699,7.6915,7.6915,7.6915,7.6915,7.6915,7.6915,7.6246,7.5615,7.5169,7.554,7.5615,7.5169,7.554,7.5949,7.6358,7.6024,7.5986,7.6358,7.6358,7.6358,7.6358,7.6729,7.6915,7.6915,7.7733,7.8141,7.8179,7.9442,8.0022,6.5241,6.766,6.9297,6.8515,6.8161,6.7309,6.464,6.2344,5.9309,5.4101,4.8946,4.5883,4.7554,4.8632,5.1525,5.8308,0.0,6.9827,7.0766,7.291,7.4424,7.4486,7.5288,7.5938,7.613,7.6476,7.6976,7.7753,7.7092,7.7246,7.86,8.0208,8.1093,8.1093,8.1093,8.1093,8.1093,8.0967,8.0763,8.0467,8.0248,7.9833,7.9228,7.9854,8.0002,7.9888,0.0,0.0,8.1025,8.1025,8.1025,8.11,8.1857,8.2154,8.2229,8.2935,8.3195,8.3195,8.3195,8.2675,8.1746,8.0297,7.9293,7.8625,7.8625,7.8625,7.8625,7.8625,7.8625,7.8625,7.8625,7.8625,7.8625,7.8625,7.8625,7.8625,7.8625,7.855,7.8476,7.8476,7.8364,7.829,7.829,7.829,7.829,7.829,7.829,7.829,7.829,7.7027,7.6098,7.5986,7.6061,7.6098,7.5986,7.6061,7.6469,7.7213,7.6544,7.6469,7.7213,7.7361,7.7435,7.7435,7.8216,7.8625,7.8625,7.933,7.9665,7.9702,8.0468,8.0891,6.7943,6.9465,7.0323,7.0204,6.9112,6.72,6.3885,5.9606,0.0,4.9669,4.4488,4.1442,4.3167,4.5214,4.8886,5.5731,6.2513,6.7489,6.8985,7.0727,7.2063,0.0,7.4046,0.0,0.0,0.0,0.0,0.0,0.0,8.0015,7.9592,8.0554,8.1093,8.1093,8.1093,8.1093,8.1093,8.0967,8.083,8.0741,8.043,8.0286,8.0311,8.0293,8.0731,8.156,0.0,0.0,8.2786,8.2786,8.2786,8.2786,8.2935,8.3009,8.3009,8.3158,8.3195,8.3195,8.3195,8.2675,8.1969,8.1671,8.1003,8.0297,8.0297,8.0297,8.0297,8.0297,8.0297,8.0297,8.0297,8.0297,8.0297,8.0297,8.0297,8.0297,8.0297,7.9776,7.9293,7.9293,7.8736,7.829,7.829,7.829,7.829,7.829,7.829,7.829,7.829,7.8067,7.7621,7.6952,7.7473,7.7584,7.6915,7.7473,7.7919,7.8067,7.7956,7.7919,7.8104,7.8736,7.907,7.907,7.9888,8.0297,8.0297,8.0431,8.0468,8.0505,8.1374,8.1783,6.9399,7.0606,7.0957,6.9631,6.7991,6.5496,6.0664,0.0,0.0,4.5819,4.0751,3.7822,3.9983,4.2044,4.5657,5.2508,5.9299,6.4478,6.6596,6.8602,7.0358,7.1575,7.3135,7.4938,0.0,0.0,0.0,0.0,0.0,0.0,8.0516,8.0862,8.1093,8.1093,8.1093,8.1093,8.1093,8.1053,8.0975,8.0965,8.1118,8.1047,8.0783,8.1454,8.1839,8.2006,8.2452,0.0,8.3195,8.3195,8.3195,8.3195,8.3195,8.3195,8.3195,8.3195,8.3195,8.3195,8.3195,8.2972,8.2637,8.2637,8.1746,8.0691,8.0691,8.0691,8.0691,8.0691,8.0691,8.0691,8.0691,8.0691,8.0691,8.0691,8.0691,8.0691,8.0691,8.0394,7.9985,7.9591,7.9182,7.8745,7.8216,7.8235,7.8262,7.8179,7.8235,7.829,7.829,7.829,7.8141,7.777,7.8067,7.8141,7.777,7.8067,7.8476,7.8885,7.8922,7.9108,7.9516,7.9925,8.0097,8.0097,8.052,8.0691,8.0691,8.1151,8.1374,8.1411,8.2229,8.286,7.0191,7.1244,7.1242,6.8511,6.6248,6.3049,5.6818,5.0966,0.0,4.1846,3.7087,3.4388,3.6942,3.8782,4.2094,4.8754,5.5396,6.066,6.3322,6.5945,6.8276,0.0,7.1864,0.0,0.0,0.0,0.0,0.0,0.0,0.0,8.1093,8.1093,8.1093,8.1093,8.1093,8.1093,8.1093,8.1093,8.1093,8.1093,8.1529,8.1566,8.1295,8.2371,8.2696,8.239,8.2993,0.0,0.0,8.3195,8.3195,8.3195,8.3195,8.3195,8.3195,8.3195,8.3195,8.3195,8.3195,8.3195,8.3195,8.3195,8.2303,8.1263,8.1263,8.1263,8.1263,8.1263,8.1263,8.1263,8.1263,8.1263,8.1263,8.1263,8.1263,8.1263,8.1263,8.11,8.078,8.0148,7.986,7.944,7.8572,7.857,7.8613,7.8446,7.8561,7.8726,7.8796,7.881,7.881,7.881,7.8662,7.8476,7.8327,7.8625,7.8996,7.9479,7.9665,8.0036,8.0654,8.0877,8.0988,8.0988,8.1151,8.1263,8.1263,8.1931,8.2266,8.2266,8.3083,8.3789,7.0422,7.1319,7.1163,6.7768,6.4449,6.0271,5.3441,0.0,3.9856,3.7163,3.3105,3.0837,3.3397,3.525,3.8344,4.4421,5.0415,5.5452,5.8734,6.2017,6.4966,6.7375,0.0,0.0,0.0,0.0,0.0,0.0,0.0,0.0,0.0,8.1093,8.1093,8.1093,8.1093,8.1093,8.1093,8.1093,8.1093,8.1093,8.0954,8.1412,8.2367,8.2229,8.2649,8.3434,0.0,0.0,0.0,8.3195,8.3195,8.3195,8.3195,8.3195,8.3195,8.3195,8.3195,8.3195,8.3195,8.3195,8.3195,8.3195,8.3121,8.2972,8.2972,8.2972,8.2972,8.2972,8.2972,8.2972,8.2972,8.2972,8.2972,8.2972,8.2972,8.2972,8.2972,8.2415,8.1857,8.1783,8.1021,8.026,7.9781,7.9787,7.9839,7.9735,7.9909,8.0134,8.044,8.0468,8.0468,8.0468,7.9851,7.9108,7.8364,7.9628,8.0222,7.9553,8.0185,8.0631,8.0691,8.1448,8.1894,8.1894,8.26,8.2972,8.2972,8.3046,8.3083,8.3121,8.3886,8.4332,6.924,7.0536,7.0387,6.6951,6.3086,5.8323,5.1414,4.4271,3.8335,3.5754,3.2627,3.0782,3.2277,3.349,3.6057,4.1495,4.6499,5.1217,5.5636,5.9127,6.2174,6.4662,6.7109,0.0,0.0,0.0,0.0,0.0,0.0,0.0,0.0,8.1093,8.1093,8.1093,8.1093,8.1093,8.1093,8.1093,8.1093,8.1093,8.1464,8.1769,8.1983,8.2764,8.3103,8.3011,0.0,0.0,0.0,8.3195,8.3195,8.3195,8.3195,8.3195,8.3195,8.3195,8.3195,8.3195,8.3195,8.3195,8.3195,8.3195,8.3195,8.3195,8.3195,8.3195,8.3195,8.3195,8.3195,8.3195,8.3195,8.3195,8.3195,8.3195,8.3195,8.3165,8.3039,8.2787,8.2386,8.18,8.1188,8.0519,7.9716,7.9515,7.9482,7.9579,7.9753,8.0023,8.0356,8.04,8.04,8.04,8.0279,8.0097,7.9776,8.032,8.078,8.1003,8.13,8.1709,8.2192,8.2526,8.2712,8.2712,8.3046,8.3455,8.3938,8.3938,8.4161,8.4629,8.4963,8.5372,6.6961,6.9047,6.945,6.5741,6.1369,5.6216,4.9579,4.2553,3.6851,3.4732,3.2223,3.0642,3.1457,3.2253,3.4208,3.8537,4.2779,4.7214,5.2082,5.6093,5.9446,0.0,0.0,0.0,0.0,0.0,0.0,0.0,0.0,0.0,0.0,8.1093,8.1093,8.1093,8.1093,8.1093,8.1093,8.1093,8.1093,8.1093,8.1574,8.1798,8.1747,8.2965,8.3251,8.2925,0.0,0.0,0.0,8.3268,8.3239,8.3195,8.3195,8.3195,8.3195,8.3195,8.3195,8.3195,8.3195,8.3195,8.3195,8.3195,8.3195,8.3195,8.3195,8.3195,8.3195,8.3195,8.3195,8.3195,8.3195,8.3195,8.3195,8.3195,8.3151,8.3061,8.2813,8.2699,8.2443,8.1655,8.1236,8.0775,7.9941,7.9679,7.9628,7.9764,7.9968,8.0215,8.053,8.0562,8.0562,8.0562,8.084,8.0933,8.0642,8.1108,8.1597,8.1969,8.2229,8.26,8.3195,8.3195,8.3195,8.3195,8.3418,8.3827,8.4406,8.4629,8.5038,8.5595,8.5855,8.6412,6.3554,6.6778,6.8397,6.4101,5.9143,5.3757,4.7706,4.0328,3.4507,3.3593,3.127,2.9675,3.055,3.1321,3.2625,3.5148,3.9087,4.3316,4.7586,5.2554,5.6709,0.0,0.0,0.0,0.0,0.0,0.0,0.0,0.0,0.0,0.0,8.1093,8.1093,8.1093,8.1093,8.1093,8.1093,8.1093,8.1093,8.1093,8.0967,8.1299,8.1993,8.254,8.3056,0.0,0.0,0.0,0.0,8.347,8.3326,8.3195,8.3195,8.3195,8.3195,8.3195,8.3195,8.3195,8.3195,8.3195,8.3195,8.3195,8.3195,8.3195,8.3195,8.3195,8.3195,8.3195,8.3195,8.3195,8.3195,8.3195,8.3195,8.3195,8.3039,8.2828,8.2487,8.2242,8.1978,8.1574,8.1405,8.1161,8.075,8.0731,8.0767,8.0713,8.084,8.1107,8.1435,8.1469,8.1469,8.1469,8.1675,8.1432,8.057,8.2126,8.286,8.2043,8.2749,8.3195,8.3195,8.3195,8.3195,8.3195,8.3975,8.4369,8.4406,8.5186,8.5595,8.5632,8.6412,8.723,5.7916,6.1034,6.2343,5.8668,5.4718,5.0185,4.413,3.854,3.4233,3.2769,3.1295,3.0356,3.0605,3.0798,3.1728,3.4224,3.7186,4.0893,4.5706,5.1284,0.0,5.8396,0.0,0.0,0.0,0.0,0.0,0.0,0.0,0.0,0.0,8.1093,8.1093,8.1093,8.1093,8.1093,8.1093,8.1093,8.1093,8.1093,8.1069,8.1153,8.1428,8.2075,0.0,0.0,0.0,0.0,0.0,8.3703,8.3475,8.3195,8.3195,8.3195,8.3195,8.3195,8.3195,8.3195,8.3195,8.3195,8.3195,8.3195,8.3195,8.3195,8.3195,8.3195,8.3195,8.3195,8.3195,8.3195,8.3195,8.3195,8.3195,8.3195,8.3039,8.2761,8.2291,8.2047,8.1799,8.1266,8.0948,8.0712,8.0583,8.0358,8.0283,8.0528,8.062,8.0767,8.1126,8.1161,8.1213,8.1353,8.2221,8.2749,8.2644,8.3275,8.3904,8.4428,8.4703,8.4852,8.4852,8.4852,8.4852,8.4852,8.5075,8.5483,8.6041,8.6301,8.6709,8.7304,8.7564,8.7824,5.1069,5.4744,5.6252,5.3157,4.9983,4.6339,4.125,3.6976,3.3671,3.2237,3.1262,3.0591,3.0571,3.077,3.1556,3.342,3.5863,3.9277,4.4397,5.0515,0.0,0.0,0.0,0.0,0.0,0.0,0.0,0.0,0.0,0.0,0.0,0.0,8.1093,8.1093,8.1093,8.1093,8.1093,8.1093,8.1093,8.1093,8.1093,8.1093,8.1123,8.181,0.0,0.0,0.0,0.0,0.0,8.3648,8.3518,8.3195,8.3195,8.3195,8.3195,8.3195,8.3195,8.3195,8.3195,8.3195,8.3195,8.3195,8.3195,8.3195,8.3195,8.3195,8.3195,8.3195,8.3195,8.3195,8.3195,8.3195,8.3269,8.3604,8.3461,8.3176,8.2838,8.2628,8.2264,8.1579,8.1278,8.1124,8.1124,8.0912,8.0834,8.1086,8.1124,8.122,8.1412,8.1541,8.1707,8.1943,8.2857,8.3741,8.4453,8.4521,8.4824,8.5543,8.5595,8.5595,8.5595,8.5595,8.5595,8.5595,8.5892,8.6301,8.6784,8.7118,8.7564,8.8084,8.8084,8.8084,0.0,4.7867,5.0159,4.7644,4.5127,4.2332,3.8906,3.5518,0.0,3.1887,3.1019,3.0422,3.049,3.1085,3.1926,3.2929,3.5234,3.8658,4.3778,5.0625,0.0,0.0,0.0,0.0,0.0,0.0,0.0,0.0,0.0,0.0,0.0,0.0,8.1093,8.1093,8.1093,8.1093,8.1093,8.1093,8.1093,8.1093,8.1093,8.1093,8.1123,8.1683,0.0,0.0,0.0,0.0,0.0,8.3369,8.3395,8.3195,8.3195,8.3195,8.3195,8.3195,8.3195,8.3195,8.3195,8.3195,8.3195,8.3195,8.3195,8.3195,8.3195,8.3195,8.3195,8.3195,8.3195,8.3195,8.3195,8.3195,8.3403,8.4183,8.4096,8.3876,8.387,8.3611,8.3132,8.2342,8.2183,8.2183,8.2183,8.2183,8.2183,8.2183,8.2183,8.2183,8.2183,8.2433,8.2727,8.3075,8.3538,8.4421,8.5872,8.5768,8.5691,8.5781,8.5781,8.5781,8.5781,8.5781,8.5781,8.5781,8.6524,8.6895,8.6895,8.7712,8.8084,8.8084,8.8084,8.8084,3.341,0.0,4.4146,4.2864,4.1041,3.8865,0.0,3.371,3.1682,3.0143,2.9641,2.9679,3.0298,3.0568,3.1615,3.4423,3.7046,4.0469,4.5581,5.489,0.0,0.0,0.0,0.0,0.0,0.0,0.0,0.0,0.0,0.0,0.0,0.0,8.1093,8.1093,8.1093,8.1093,8.1093,8.1093,8.1093,8.1093,8.1093,8.1093,8.1093,8.1135,0.0,0.0,0.0,0.0,8.2747,8.2775,8.2935,8.3195,8.3195,8.3195,8.3195,8.3195,8.3195,8.3195,8.3195,8.3195,8.3195,8.3195,8.3195,8.3195,8.3195,8.3195,8.3195,8.3195,8.3195,8.3195,8.3195,8.3195,8.3373,8.4018,8.3814,8.3494,8.3715,8.3336,8.279,8.2283,8.2183,8.2183,8.2183,8.2183,8.2183,8.2183,8.2183,8.2183,8.2183,8.2259,8.248,8.302,8.4137,8.5182,8.5999,8.6114,8.6519,8.7437,8.749,8.749,8.749,8.749,8.749,8.749,8.7675,8.7787,8.7787,8.801,8.8084,8.8084,8.8084,8.8084,3.0486,3.4554,3.8002,3.7489,3.6669,3.5497,3.3652,3.2158,3.0796,2.9433,2.9147,2.9399,3.0262,3.0743,3.2234,3.6042,3.9123,4.4316,0.0,0.0,0.0,0.0,0.0,0.0,0.0,0.0,0.0,0.0,0.0,0.0,0.0,0.0,8.1093,8.1093,8.1093,8.1093,8.1093,8.1093,8.1093,8.1093,8.1093,8.1093,8.1093,8.0926,0.0,0.0,0.0,0.0,8.1733,8.2224,8.2533,8.2712,8.3046,8.3195,8.3195,8.3195,8.3195,8.3195,8.3195,8.3195,8.3195,8.3195,8.3195,8.3195,8.3195,8.3195,8.3269,8.3641,8.3752,8.3864,8.422,8.425,8.4336,8.4865,8.4645,8.4358,8.4482,8.4213,8.3787,8.337,8.3289,8.3289,8.3289,8.3289,8.3289,8.3289,8.3289,8.3289,8.3289,8.337,8.3649,8.4157,8.5026,8.5897,8.6571,8.6771,8.7216,8.8031,8.8084,8.8084,8.8084,8.8084,8.8084,8.8084,8.8084,8.8084,8.8084,8.8084,8.8285,8.8641,8.8641,8.8827,3.0506,3.2182,3.3091,3.3589,3.3696,3.3452,3.2659,3.1782,3.0923,3.0047,2.9781,3.0009,3.1154,3.208,3.4083,3.843,4.2662,5.0048,6.332,0.0,0.0,0.0,0.0,0.0,0.0,0.0,0.0,0.0,0.0,0.0,0.0,0.0,0.0,8.1093,8.1093,8.1093,8.1093,8.1093,8.1093,8.1093,8.1093,8.1093,8.1085,8.0885,8.0749,0.0,0.0,0.0,8.0555,8.161,8.203,8.208,8.2749,8.3083,8.3195,8.3195,8.3195,8.3195,8.3195,8.3195,8.3195,8.3195,8.3195,8.3232,8.3343,8.3381,8.3604,8.4518,8.4592,8.4592,8.5372,8.5525,8.5546,8.5914,8.5713,8.5444,8.5487,8.5281,8.5,8.4671,8.4589,8.4589,8.4589,8.4589,8.4589,8.4589,8.4589,8.4589,8.4589,8.4738,8.502,8.5398,8.5819,8.6338,8.7093,8.7382,8.766,8.8068,8.8084,8.8084,8.8084,8.8084,8.8084,8.8084,8.8084,8.8084,8.8084,8.8084,8.8493,8.931,8.931,8.9719,2.8874,3.0798,3.2703,3.5676,3.6353,3.6278,3.6057,3.5326,3.4465,3.3587,3.2817,3.3006,3.5311,3.6465,3.8661,4.3628,5.0933,5.8736,0.0,0.0,0.0,0.0,0.0,0.0,0.0,0.0,0.0,0.0,0.0,0.0,0.0,0.0,0.0,8.1093,8.1093,8.1093,8.1093,8.1093,8.1093,8.1093,8.1093,8.1093,8.1093,8.0951,8.0737,0.0,0.0,8.0237,8.0255,8.0402,8.1068,8.2006,8.2154,8.26,8.3195,8.3195,8.3195,8.3195,8.3195,8.3195,8.3195,8.3195,8.3195,8.3343,8.4012,8.422,8.4518,8.6004,8.5446,8.4592,8.5372,8.558,8.5627,8.5931,8.5573,8.5246,8.5449,8.508,8.4671,8.461,8.4589,8.4589,8.4589,8.4589,8.4589,8.4589,8.4589,8.4589,8.4589,8.463,8.4778,8.5218,8.5591,8.6137,8.6867,8.7278,8.766,8.8068,8.8084,8.8084,8.8084,8.8084,8.8084,8.8084,8.8084,8.8084,8.8084,8.8084,8.8493,8.931,8.931,8.9719,2.8664,3.0548,3.2684,3.6154,3.7981,3.9057,3.9451,3.9567,3.9238,3.7896,3.6587,3.643,3.9004,4.0508,4.4282,5.3092,0.0,0.0,0.0,0.0,0.0,0.0,0.0,0.0,0.0,0.0,0.0,0.0,0.0,0.0,0.0,0.0,0.0,0.0,8.04,8.04,8.04,8.0862,8.1093,8.1093,8.1093,8.1093,8.1093,8.0967,8.0796,8.0614,0.0,8.0049,7.98,8.0105,8.0627,8.1337,8.182,8.2489,8.3195,8.3195,8.3195,8.3195,8.3195,8.3195,8.3195,8.3195,8.3195,8.3343,8.4146,8.4406,8.474,8.6338,8.6264,8.5892,8.6709,8.687,8.6757,8.6668,8.6302,8.5882,8.5576,8.5218,8.4839,8.4651,8.4589,8.4589,8.4589,8.4589,8.4589,8.4589,8.4589,8.4589,8.4589,8.4589,8.4671,8.4875,8.5238,8.5764,8.6517,8.7377,8.7944,8.809,8.8084,8.8084,8.8084,8.8084,8.8084,8.8084,8.8084,8.8307,8.8753,8.8753,8.9384,9.061,9.061,9.1056,2.8595,3.0284,3.2458,3.5843,3.8742,4.1045,4.2254,4.33,4.3746,4.2822,4.1439,4.1124,4.3452,4.5748,0.0,6.1018,6.5327,0.0,0.0,0.0,0.0,0.0,0.0,0.0,0.0,0.0,0.0,0.0,0.0,0.0,0.0,0.0,0.0,0.0,7.97,7.9815,7.9815,8.0669,8.1093,8.1093,8.1093,8.1093,8.1093,8.0983,8.0918,8.0843,8.0542,8.0068,7.9482,7.9901,8.0335,8.0765,8.1448,8.2303,8.3195,8.3195,8.3195,8.3195,8.3195,8.3195,8.3232,8.3418,8.3492,8.3678,8.4666,8.4963,8.5261,8.6709,8.7081,8.7267,8.7935,8.799,8.7762,8.7382,8.701,8.6536,8.5744,8.5359,8.508,8.4692,8.4589,8.4589,8.4589,8.4589,8.4589,8.4589,8.4589,8.4589,8.4589,8.4589,8.4589,8.4589,8.496,8.5625,8.6647,8.7783,8.8535,8.8647,8.8493,8.8381,8.8381,8.8211,8.8084,8.8084,8.8084,8.8493,8.931,8.931,9.0127,9.1688,9.1688,9.2171,2.7908,2.9474,3.1607,3.5039,3.8362,4.1442,4.3866,4.5591,4.7132,4.8629,4.8209,4.8081,4.9756,5.3353,5.7929,6.3512,0.0,0.0,0.0,0.0,0.0,0.0,0.0,0.0,0.0,0.0,0.0,0.0,0.0,0.0,0.0,0.0,0.0,0.0,0.0,7.9815,7.9815,8.0669,8.1093,8.1093,8.1093,8.1093,8.1093,8.1085,8.1077,8.1069,8.0843,8.0354,7.9654,7.9532,7.9954,8.0691,8.0765,8.1783,8.3195,8.3195,8.3195,8.3195,8.3195,8.3195,8.3343,8.4087,8.4295,8.4592,8.6152,8.6635,8.6821,8.775,8.801,8.801,8.81,8.8084,8.799,8.7563,8.7177,8.6658,8.5951,8.5456,8.508,8.4692,8.4589,8.4589,8.4589,8.4589,8.4589,8.4589,8.4589,8.4589,8.4589,8.4589,8.4589,8.4589,8.496,8.5976,8.7881,8.8762,8.9522,9.0276,8.9644,8.9198,8.9198,8.8493,8.8084,8.8084,8.8084,8.8493,8.931,8.931,9.0127,9.1688,9.1688,9.2171,2.8665,2.9397,3.0857,3.485,3.8397,4.1924,4.6067,4.9938,5.308,5.483,5.5342,5.5461,5.5425,5.8028,6.1666,6.6199,0.0,0.0,0.0,0.0,0.0,0.0,0.0,0.0,0.0,0.0,0.0,0.0,0.0,0.0,0.0,0.0,0.0,0.0,0.0,7.8246,7.8246,7.9631,8.0277,8.0285,8.0823,8.1093,8.1093,8.0999,8.0975,8.0959,8.0623,8.0131,7.9565,7.9281,7.9775,8.0802,8.1857,8.2637,8.3195,8.3195,8.3195,8.3195,8.3195,8.3195,8.3343,8.4161,8.4406,8.4703,8.6301,8.6784,8.6969,8.7861,8.8084,8.8084,8.8084,8.8084,8.8053,8.7889,8.7563,8.7076,8.6265,8.5821,8.5395,8.4733,8.4589,8.4589,8.4589,8.4589,8.4589,8.4589,8.4589,8.4589,8.4589,8.4589,8.4589,8.4589,8.5362,8.672,8.8776,8.9625,9.061,9.1948,9.0313,8.9533,9.0016,8.9273,8.9087,8.957,8.957,8.9979,9.0796,9.0796,9.139,9.2505,9.2505,9.2691,2.8913,2.9239,3.0418,3.4461,3.8224,4.2402,4.81,5.3055,5.7118,5.9391,6.0472,6.0684,5.9672,6.1127,0.0,0.0,0.0,0.0,0.0,0.0,0.0,0.0,0.0,0.0,0.0,0.0,0.0,0.0,0.0,0.0,0.0,0.0,0.0,0.0,0.0,7.7292,7.7292,7.8707,7.9515,7.9815,8.04,8.0823,8.1093,8.0967,8.0838,8.0707,8.0383,7.9906,7.9338,7.9065,7.9644,8.0891,8.2563,8.3195,8.3195,8.3195,8.3195,8.3195,8.3195,8.3195,8.3381,8.4406,8.4778,8.5075,8.6709,8.7192,8.7341,8.7935,8.8084,8.8084,8.8084,8.8084,8.8084,8.8084,8.7826,8.7361,8.6588,8.6137,8.5648,8.4839,8.4651,8.4589,8.4589,8.4589,8.4589,8.4589,8.4589,8.463,8.4692,8.4712,8.4778,8.504,8.586,8.7264,8.941,9.0136,9.1205,9.2876,9.113,9.0313,9.087,8.9867,8.9681,9.0462,9.0499,9.0907,9.1688,9.1688,9.2133,9.2988,9.2988,9.2988,2.8491,2.8883,3.0367,3.3793,3.7918,4.2866,4.9772,5.4577,5.8535,6.2001,6.3204,6.3361,6.2367,6.282,0.0,0.0,0.0,0.0,0.0,0.0,0.0,0.0,0.0,0.0,0.0,0.0,0.0,0.0,0.0,0.0,0.0,0.0,0.0,0.0,0.0,0.0,7.7292,7.8099,7.89,7.9777,7.9777,8.0246,8.1093,8.0967,8.0698,8.0373,8.0171,7.9691,7.9004,7.8878,7.9551,8.0891,8.2563,8.3195,8.3195,8.3195,8.3195,8.3195,8.3195,8.3195,8.3492,8.5075,8.5595,8.5892,8.7601,8.8084,8.8084,8.8084,8.8084,8.8084,8.8084,8.8084,8.8084,8.8084,8.7958,8.76,8.6763,8.6338,8.5876,8.508,8.4717,8.461,8.4589,8.4589,8.4589,8.4589,8.4589,8.4692,8.4879,8.492,8.5202,8.6026,8.641,8.7511,8.9807,9.0304,9.1205,9.2876,9.2171,9.1688,9.1725,9.0164,8.9681,9.0499,9.0536,9.0907,9.1725,9.1725,9.2171,9.2988,9.2988,9.2988,3.1242,3.2063,3.3509,3.8773,4.3291,4.8124,5.4448,5.8636,6.3016,6.9321,6.9765,6.8508,6.6833,6.6737,0.0,0.0,0.0,0.0,0.0,0.0,0.0,0.0,0.0,0.0,0.0,0.0,0.0,0.0,0.0,0.0,0.0,0.0,0.0,0.0,0.0,0.0,7.6399,7.7215,7.7792,7.8054,7.9246,8.0246,8.1085,8.0902,8.0602,8.022,7.9895,7.941,7.8941,7.9759,8.0358,8.0891,8.2563,8.3195,8.3195,8.3195,8.3195,8.3195,8.3195,8.3195,8.3492,8.5075,8.5595,8.5892,8.7601,8.8084,8.8084,8.8084,8.8084,8.8084,8.8084,8.8084,8.8084,8.8084,8.7958,8.7665,8.7127,8.6784,8.6283,8.5475,8.5179,8.492,8.4651,8.4589,8.4589,8.4589,8.4733,8.498,8.5456,8.5745,8.6027,8.6392,8.68,8.7585,8.8975,8.9452,9.009,9.1167,9.0462,9.0796,9.2542,9.1576,9.139,9.2245,9.2245,9.2393,9.2616,9.2616,9.2728,9.2988,9.2988,9.2988,3.2545,3.4421,3.692,4.2967,4.8194,5.393,6.1699,6.4704,6.7428,7.2874,7.2846,7.1302,6.9682,6.9391,0.0,0.0,0.0,0.0,0.0,0.0,0.0,0.0,0.0,0.0,0.0,0.0,0.0,0.0,0.0,0.0,0.0,0.0,0.0,0.0,0.0,0.0,7.6015,7.6515,7.6938,7.733,7.8631,7.9746,8.0585,8.0723,8.0494,7.9972,7.9352,7.8904,7.8717,8.0135,8.0691,8.0891,8.2563,8.3195,8.3195,8.3195,8.3195,8.3195,8.3195,8.3195,8.3492,8.5075,8.5595,8.5892,8.7601,8.8084,8.8084,8.8084,8.8084,8.8084,8.8084,8.8084,8.8084,8.8084,8.8006,8.7794,8.7415,8.7024,8.6536,8.5782,8.5378,8.508,8.4671,8.4589,8.4589,8.4589,8.49,8.5281,8.5725,8.6174,8.6607,8.6902,8.7177,8.7891,8.9284,8.9644,9.0276,9.1428,9.1019,9.1428,9.2951,9.1873,9.1762,9.2988,9.2988,9.2988,9.2988,9.2988,9.2988,9.2988,9.2988,9.2988,3.287,3.6228,4.0406,4.6533,5.2857,6.008,6.9801,7.1406,7.1508,7.3759,7.3539,7.261,7.1568,7.136,0.0,0.0,0.0,0.0,0.0,0.0,0.0,0.0,0.0,0.0,0.0,0.0,0.0,0.0,0.0,0.0,0.0,0.0,0.0,0.0,0.0,0.0,7.6015,7.6015,7.6399,0.0,7.8099,7.89,7.97,8.0455,8.0392,7.9621,7.8699,7.829,7.8439,7.9962,8.0617,8.084,8.2452,8.3158,8.3195,8.3195,8.3195,8.3195,8.3195,8.3195,8.3492,8.5075,8.5595,8.5892,8.7601,8.8084,8.8084,8.8084,8.8084,8.8084,8.8084,8.8084,8.8084,8.8084,8.8084,8.8006,8.7628,8.7245,8.6711,8.6007,8.5514,8.5119,8.4671,8.4589,8.461,8.463,8.5139,8.5572,8.5801,8.6356,8.6941,8.7448,8.753,8.8306,9.0207,9.0387,9.1056,9.2653,9.2765,9.2802,9.2876,9.1502,9.1428,9.2951,9.2988,9.2988,9.2988,9.2988,9.2988,9.2988,9.2988,9.2988,3.4197,3.8452,4.3216,4.9931,5.8169,6.5898,7.0855,7.2821,7.4026,7.5715,7.5793,7.5431,7.4994,0.0,0.0,0.0,0.0,0.0,0.0,0.0,0.0,0.0,0.0,0.0,0.0,0.0,0.0,0.0,0.0,0.0,0.0,0.0,0.0,0.0,0.0,7.6015,7.6015,7.6015,7.6092,0.0,7.7792,7.86,7.8823,8.0186,8.0316,7.9422,7.8645,7.829,7.8364,7.9368,8.0148,8.0802,8.1857,8.2637,8.3195,8.3195,8.3195,8.3195,8.3195,8.3195,8.3492,8.5075,8.5595,8.5892,8.7601,8.8084,8.8084,8.8084,8.8084,8.8084,8.8084,8.8084,8.8084,8.8084,8.8084,8.8068,8.8006,8.7644,8.7143,8.6356,8.5915,8.5417,8.4733,8.4589,8.4651,8.4799,8.5202,8.5629,8.5988,8.6642,8.7214,8.7481,8.7794,8.8377,8.9459,8.957,8.9979,9.0982,9.1019,9.1316,9.1948,9.2282,9.2616,9.2988,9.2988,9.2988,9.2988,9.2988,9.2988,9.2988,9.2988,9.2988,3.572,4.099,4.7236,5.6997,6.379,6.8865,7.1909,7.3213,7.4191,7.5672,7.6214,7.6326,0.0,0.0,0.0,0.0,0.0,0.0,0.0,0.0,0.0,0.0,0.0,0.0,0.0,0.0,0.0,0.0,0.0,0.0,0.0,0.0,0.0,0.0,7.6015,7.6015,7.6015,7.6015,7.6015,7.6015,7.733,7.8285,7.8998,7.9864,7.9958,7.9378,7.8618,7.829,7.8364,7.9182,7.9739,8.0259,8.1523,8.2266,8.2675,8.3046,8.3195,8.3195,8.3195,8.3195,8.3492,8.5075,8.5595,8.5892,8.7601,8.8084,8.8084,8.8084,8.8084,8.8084,8.8084,8.8084,8.8084,8.8084,8.8084,8.8084,8.8084,8.7858,8.7415,8.6605,8.6174,8.5687,8.4879,8.4671,8.463,8.4753,8.494,8.5159,8.5339,8.6211,8.7262,8.8433,8.8732,8.931,9.035,9.0462,9.0796,9.165,9.1688,9.1873,9.2319,9.2765,9.2988,9.2988,9.2988,9.2988,9.2988,9.2988,9.2988,9.2988,9.2988,9.2988,3.6542,4.3528,5.1998,6.3829,6.8124,7.0035,7.2493,7.3096,7.3448,7.4618,7.555,0.0,0.0,0.0,0.0,0.0,0.0,0.0,0.0,0.0,0.0,0.0,0.0,0.0,0.0,0.0,0.0,0.0,0.0,0.0,0.0,0.0,7.6015,7.6015,7.6015,7.6015,7.6015,7.6015,7.6015,7.6015,7.6861,7.8085,7.9502,7.947,7.9463,7.9378,7.8618,7.829,7.8364,7.9033,7.9368,7.9665,8.1188,8.1857,8.2117,8.2898,8.3195,8.3195,8.3195,8.3195,8.3492,8.5075,8.5595,8.5892,8.7601,8.8084,8.8084,8.8084,8.8084,8.8084,8.8084,8.8084,8.8084,8.8084,8.8084,8.8084,8.8084,8.7958,8.7563,8.6869,8.632,8.5782,8.5084,8.4758,8.4589,8.4589,8.4589,8.463,8.4692,8.594,8.7517,8.9461,8.984,9.0424,9.1539,9.1688,9.2059,9.2951,9.2988,9.2988,9.2988,9.2988,9.2988,9.2988,9.2988,9.2988,9.2988,9.2988,9.2988,9.2988,9.2988,9.2988,3.49,4.5674,5.723,6.4883,6.8124,6.988,7.1753,7.2667,7.31,0.0,0.0,0.0,0.0,0.0,0.0,0.0,0.0,0.0,0.0,0.0,0.0,0.0,0.0,0.0,0.0,0.0,0.0,0.0,0.0,0.0,0.0,7.6015,7.6015,7.6015,7.6015,7.6015,7.6015,7.6015,7.6015,7.6015,7.6861,7.8085,7.9463,7.8861,7.8884,7.9378,7.8618,7.829,7.8327,7.8439,7.8885,7.9591,8.052,8.1337,8.2117,8.2898,8.3195,8.3195,8.3195,8.3195,8.3492,8.5075,8.5595,8.5892,8.7601,8.8084,8.8084,8.8084,8.8084,8.8084,8.8084,8.8084,8.8084,8.8084,8.8084,8.8084,8.8084,8.7958,8.7665,8.7194,8.6283,8.5533,8.5339,8.492,8.4589,8.4589,8.4589,8.4733,8.508,8.711,8.871,8.9375,9.0435,9.1151,9.1337,9.1576,9.2059,9.2951,9.2988,9.2988,9.2988,9.2988,9.2988,9.2988,9.2988,9.2988,9.2988,9.2988,9.2988,9.2988,9.2988,9.2988,3.9312,4.8993,5.8088,6.4531,6.7771,6.9723,7.0972,7.185,7.2441,7.2636,0.0,0.0,0.0,0.0,0.0,0.0,0.0,0.0,0.0,0.0,0.0,0.0,0.0,0.0,0.0,0.0,0.0,0.0,0.0,0.0,7.6015,7.6015,7.6015,7.6015,7.6015,7.6015,7.6015,7.6015,7.5993,7.5948,7.6794,7.7689,7.8537,7.8415,7.8715,7.9378,7.8618,7.829,7.829,7.829,7.8513,7.8959,8.0208,8.0928,8.1448,8.2712,8.3195,8.3195,8.3195,8.3195,8.3381,8.4555,8.5223,8.5818,8.7007,8.7712,8.8084,8.8084,8.8084,8.8084,8.8084,8.8084,8.8084,8.8084,8.8084,8.8084,8.8084,8.8021,8.7778,8.716,8.641,8.5782,8.5473,8.494,8.4589,8.4589,8.5016,8.5685,8.6677,8.9371,9.1233,9.1387,9.1915,9.2245,9.2245,9.2356,9.2579,9.2988,9.2988,9.2988,9.2988,9.2988,9.2988,9.2988,9.2988,9.2988,9.2988,9.2988,9.2988,9.2988,9.2988,9.2988,4.2078,4.9494,5.574,6.2025,6.5541,6.7807,6.9097,7.029,7.1312,0.0,0.0,0.0,0.0,0.0,0.0,0.0,0.0,0.0,0.0,0.0,0.0,0.0,0.0,0.0,0.0,0.0,0.0,0.0,0.0,0.0,7.6015,7.6015,7.6015,7.6015,7.6015,7.6015,7.6015,7.6015,7.597,7.5926,7.64,7.7045,7.7732,7.7803,7.8371,7.9198,7.8578,7.829,7.829,7.829,7.829,7.8476,8.0074,8.0691,8.0891,8.26,8.3195,8.3195,8.3195,8.3195,8.3343,8.4161,8.4926,8.5743,8.6561,8.7415,8.8084,8.8084,8.8084,8.8084,8.8084,8.8084,8.8084,8.8084,8.8084,8.8084,8.8084,8.8084,8.7889,8.7228,8.6712,8.6265,8.5857,8.5139,8.4589,8.4589,8.6372,8.8083,8.9182,9.1465,9.2988,9.2988,9.2988,9.2988,9.2988,9.2988,9.2988,9.2988,9.2988,9.2988,9.2988,9.2988,9.2988,9.2988,9.2988,9.2988,9.2988,9.2988,9.2988,9.2988,9.2988,9.2988,3.9402,4.4593,4.9631,5.6499,6.0174,6.2761,6.5309,0.0,0.0,0.0,0.0,0.0,0.0,0.0,0.0,0.0,0.0,0.0,0.0,0.0,0.0,0.0,0.0,0.0,0.0,0.0,0.0,0.0,0.0,0.0,7.6015,7.6015,7.6015,7.6015,7.6015,7.6015,7.6015,7.6015,7.597,7.5887,7.557,7.6175,7.7577,7.6912,7.7403,7.879,7.8444,7.829,7.829,7.829,7.829,7.8476,8.0074,8.0691,8.0891,8.26,8.3195,8.3195,8.3195,8.3195,8.3343,8.4161,8.4926,8.5743,8.6561,8.7415,8.8084,8.8084,8.8084,8.8084,8.8084,8.8084,8.8084,8.8084,8.8084,8.8084,8.8084,8.8084,8.8021,8.773,8.7228,8.6887,8.6908,8.561,8.4589,8.4589,8.9167,9.2645,9.2728,9.2876,9.2988,9.2988,9.2988,9.2988,9.2988,9.2988,9.2988,9.2988,9.2988,9.2988,9.2988,9.2988,9.2988,9.2988,9.2988,9.2988,9.2988,9.2988,9.2988,9.2988,9.2988,9.2988,3.5491,3.9665,4.3804,4.9036,5.3144,5.6904,6.0584,6.377,6.6744,0.0,0.0,0.0,0.0,0.0,0.0,0.0,0.0,0.0,0.0,0.0,0.0,0.0,0.0,0.0,0.0,0.0,0.0,0.0,0.0,0.0,7.5207,7.5707,7.5745,7.5168,7.5707,7.6015,7.6015,7.6015,7.591,7.5771,7.5429,7.5942,7.724,7.6693,7.7242,7.8605,7.84,7.829,7.829,7.829,7.829,7.8476,8.0074,8.0691,8.0891,8.26,8.3195,8.3195,8.3195,8.3195,8.3269,8.3529,8.4518,8.5632,8.5929,8.7007,8.8084,8.8084,8.8084,8.8084,8.8084,8.8084,8.8084,8.8084,8.8084,8.8084,8.8084,8.8084,8.8006,8.7628,8.7431,8.7059,8.6356,8.5336,8.4589,8.4589,8.9386,9.2988,9.2988,9.2988,9.2988,9.2988,9.2988,9.2988,9.2988,9.2988,9.2988,9.2988,9.2988,9.2988,9.2988,9.2988,9.2988,9.2988,9.2988,9.2988,9.2988,9.2988,9.2988,9.2988,9.2988,9.3285,3.2453,3.5416,3.8191,4.2521,4.6402,5.0248,5.4283,5.8671,0.0,0.0,0.0,0.0,0.0,0.0,0.0,0.0,0.0,0.0,0.0,0.0,0.0,0.0,0.0,0.0,0.0,0.0,0.0,0.0,0.0,0.0,7.4738,7.4976,7.5007,7.47,7.5245,7.5707,7.6015,7.6015,7.5894,7.5692,7.5241,7.5726,7.7001,7.643,7.7036,7.8427,7.8332,7.829,7.829,7.829,7.829,7.8476,8.0074,8.0691,8.0891,8.26,8.3195,8.3195,8.3195,8.3195,8.3232,8.3529,8.4518,8.5632,8.5929,8.6969,8.8084,8.8084,8.8084,8.8084,8.8084,8.8084,8.8084,8.8084,8.8084,8.8084,8.8084,8.8084,8.8006,8.7628,8.7382,8.68,8.561,8.5836,8.6284,8.6593,9.0282,9.2988,9.2988,9.2988,9.2988,9.2988,9.2988,9.2988,9.2988,9.2988,9.2988,9.2988,9.2988,9.2988,9.2988,9.2988,9.2988,9.2988,9.2988,9.2988,9.2988,9.2988,9.2988,9.2988,9.3285,9.3991,0.0,0.0,0.0,3.7012,4.0007,4.2891,4.6429,0.0,0.0,0.0,0.0,0.0,0.0,0.0,0.0,0.0,0.0,0.0,0.0,0.0,0.0,0.0,0.0,0.0,0.0,0.0,0.0,0.0,0.0,7.4661,7.4623,7.3892,7.3853,7.4661,7.47,7.513,7.5976,7.6015,7.5894,7.5692,7.5009,7.5452,7.6889,7.613,7.6729,7.829,7.829,7.829,7.829,7.829,7.829,7.8476,8.0074,8.0691,8.0891,8.26,8.3195,8.3195,8.3232,8.3232,8.3381,8.4161,8.4963,8.5781,8.6561,8.7415,8.8084,8.8084,8.8084,8.8084,8.8084,8.8084,8.8084,8.8084,8.8084,8.8084,8.8084,8.8084,8.8021,8.7799,8.7149,8.6247,8.4915,8.7293,8.9628,9.0521,9.2002,9.2988,9.2988,9.2988,9.2988,9.2988,9.2988,9.2988,9.2988,9.2988,9.2988,9.2988,9.3025,9.3025,9.3025,9.3062,9.3062,9.3062,9.3062,9.3062,9.3062,9.3025,9.2988,9.3062,9.3879,9.5105,2.6819,0.0,0.0,0.0,0.0,0.0,0.0,0.0,0.0,0.0,0.0,0.0,0.0,0.0,0.0,0.0,0.0,0.0,0.0,0.0,0.0,0.0,0.0,0.0,0.0,0.0,0.0,0.0,7.3969,7.3553,7.2937,7.2668,7.3206,7.4661,7.47,7.513,7.5976,7.6015,7.5894,7.5692,7.5009,7.5452,7.6889,7.613,7.6729,7.829,7.829,7.829,7.829,7.829,7.829,7.8476,8.0074,8.0691,8.0891,8.26,8.3195,8.3269,8.3864,8.4087,8.4198,8.5,8.5818,8.6524,8.6747,8.7415,8.8084,8.8084,8.8084,8.8084,8.8084,8.8084,8.8084,8.8084,8.8084,8.8084,8.8084,8.8084,8.8223,8.8588,8.8333,8.7867,8.7283,8.8873,9.072,9.2127,9.2701,9.2988,9.2988,9.2988,9.2988,9.2988,9.2988,9.2988,9.2988,9.2988,9.2988,9.2988,9.3545,9.3879,9.3879,9.4437,9.4734,9.4734,9.4734,9.4734,9.4734,9.3582,9.3285,9.3879,9.5291,9.6183,0.0,0.0,0.0,0.0,0.0,0.0,0.0,4.0498,0.0,0.0,0.0,0.0,0.0,0.0,0.0,0.0,0.0,0.0,0.0,0.0,0.0,0.0,0.0,0.0,0.0,0.0,0.0,7.3507,7.3168,7.2591,7.1706,7.1668,7.2437,7.4161,7.4199,7.4776,7.5976,7.6015,7.5894,7.5692,7.5009,7.5452,7.6889,7.613,7.6729,7.829,7.829,7.829,7.829,7.829,7.829,7.8476,8.0074,8.0691,8.0891,8.26,8.3195,8.3343,8.4109,8.4406,8.4592,8.5743,8.6412,8.6858,8.723,8.7712,8.8084,8.8084,8.8084,8.8084,8.8084,8.8084,8.8084,8.8084,8.8084,8.8195,8.853,8.8604,8.8668,8.8938,8.8746,8.8608,8.8963,8.9805,9.0996,9.2748,9.2988,9.2988,9.2988,9.2988,9.2988,9.2988,9.2988,9.2988,9.2988,9.2988,9.3136,9.3471,9.3954,9.4362,9.4697,9.5143,9.5403,9.5403,9.5403,9.5403,9.5403,9.4474,9.44,9.5217,9.6146,9.6777,2.9068,2.8948,0.0,0.0,0.0,0.0,3.1214,3.6413,0.0,0.0,0.0,0.0,0.0,0.0,0.0,0.0,0.0,0.0,0.0,0.0,0.0,0.0,0.0,0.0,0.0,7.3161,7.3199,7.3199,7.2476,7.1706,7.0937,7.0898,7.1706,7.343,7.3507,7.4315,7.5976,7.6015,7.5894,7.5692,7.5038,7.5521,7.69,7.6168,7.677,7.8304,7.829,7.829,7.829,7.829,7.829,7.8476,8.0074,8.0691,8.0891,8.26,8.3195,8.3343,8.422,8.4518,8.4778,8.6412,8.6932,8.7081,8.7861,8.8084,8.8084,8.8084,8.8084,8.8084,8.8084,8.8084,8.8084,8.8084,8.8084,8.8323,8.9124,8.931,8.9299,8.9287,8.8975,8.9109,9.0312,9.0442,9.1022,9.274,9.2988,9.2988,9.2988,9.2988,9.2988,9.2988,9.2988,9.2988,9.2988,9.3062,9.3434,9.414,9.4362,9.4808,9.5514,9.5626,9.5663,9.5663,9.5663,9.5663,9.5663,9.5588,9.5886,9.6591,9.6703,9.7149,3.0369,3.0651,3.0711,0.0,0.0,0.0,0.0,3.2321,0.0,0.0,0.0,0.0,0.0,0.0,0.0,0.0,0.0,0.0,0.0,0.0,0.0,0.0,0.0,0.0,0.0,7.1014,7.1398,7.1398,7.1245,7.1091,7.0898,7.0898,7.1706,7.343,7.3507,7.4315,7.5976,7.6015,7.5894,7.5692,7.5252,7.5744,7.7024,7.6393,7.6959,7.8455,7.8345,7.829,7.829,7.829,7.829,7.8476,8.0074,8.0691,8.0891,8.26,8.3195,8.3418,8.4852,8.5372,8.5632,8.7304,8.7861,8.7861,8.8062,8.8084,8.8084,8.8084,8.8084,8.8084,8.8084,8.8084,8.8084,8.8084,8.8084,8.8323,8.9124,8.931,8.9681,9.0933,9.0896,9.104,9.2256,9.2094,9.2099,9.2885,9.2988,9.2988,9.2988,9.2988,9.2988,9.2988,9.2988,9.2988,9.2988,9.3582,9.4028,9.4177,9.544,9.622,9.6369,9.7037,9.7409,9.7409,9.7409,9.7409,9.7409,9.6703,9.6443,9.6629,9.7334,9.7743,3.319,3.3042,3.2631,3.0834,0.0,0.0,0.0,0.0,0.0,0.0,0.0,0.0,0.0,0.0,0.0,0.0,0.0,0.0,0.0,0.0,0.0,0.0,0.0,0.0,0.0,7.0052,7.0475,7.086,7.0898,7.0898,7.0898,7.0898,7.1706,7.343,7.3507,7.4315,7.5976,7.6015,7.5917,7.5786,7.5403,7.5942,7.7314,7.6681,7.7192,7.8658,7.8414,7.829,7.8327,7.8736,7.8885,7.9033,8.0222,8.0965,8.1523,8.2749,8.3195,8.3418,8.5038,8.5595,8.5892,8.7564,8.8084,8.8084,8.8084,8.8084,8.8084,8.8084,8.8084,8.8084,8.8084,8.8084,8.8084,8.8084,8.8084,8.8418,8.9644,8.9904,9.0387,9.2022,9.2224,9.2306,9.2881,9.2805,9.2684,9.2955,9.2988,9.2988,9.2988,9.2988,9.2988,9.2988,9.2988,9.3136,9.3545,9.3954,9.4548,9.5365,9.6146,9.6777,9.7223,9.7669,9.7892,9.7892,9.7892,9.7892,9.7892,9.7446,9.726,9.726,9.7706,9.7892,0.0,0.0,0.0,0.0,0.0,3.1429,0.0,0.0,0.0,0.0,0.0,0.0,0.0,0.0,0.0,0.0,0.0,0.0,0.0,0.0,0.0,0.0,0.0,0.0,0.0,6.8898,6.9552,7.036,7.0437,7.0475,7.0667,7.0821,7.1706,7.343,7.3507,7.4315,7.5976,7.6015,7.597,7.5887,7.5548,7.6164,7.7597,7.6908,7.7402,7.8803,7.8444,7.829,7.8364,7.9182,7.9591,7.9814,8.0631,8.1374,8.2117,8.2898,8.3195,8.3418,8.5038,8.5595,8.5892,8.7564,8.8084,8.8084,8.8084,8.8084,8.8084,8.8084,8.8084,8.8084,8.8084,8.8084,8.8084,8.8084,8.8084,8.853,9.0164,9.0499,9.0982,9.2653,9.2988,9.2988,9.2988,9.2988,9.2988,9.2988,9.2988,9.2988,9.2988,9.2988,9.2988,9.2988,9.2988,9.3322,9.414,9.4325,9.5031,9.6517,9.6777,9.7186,9.7855,9.7892,9.7892,9.7892,9.7892,9.7892,9.7892,9.7892,9.7892,9.7892,9.7892,9.7892,0.0,0.0,0.0,0.0,3.3926,0.0,0.0,0.0,0.0,0.0,0.0,0.0,0.0,0.0,0.0,0.0,0.0,0.0,0.0,0.0,0.0,0.0,0.0,0.0,0.0,0.0,6.7744,6.8622,6.8699,6.9007,6.9821,7.0514,7.1706,7.343,7.3507,7.4315,7.5976,7.6015,7.597,7.5887,7.5716,7.6399,7.7751,7.7155,7.7617,7.8941,7.8485,7.829,7.8364,7.9182,7.9925,8.0668,8.1523,8.1894,8.2117,8.2898,8.3195,8.3418,8.5038,8.5595,8.5892,8.7564,8.8084,8.8084,8.8084,8.8084,8.8084,8.8084,8.8084,8.8084,8.8084,8.8084,8.8084,8.8084,8.8084,8.853,9.0164,9.0499,9.0982,9.2653,9.2988,9.2988,9.2988,9.2988,9.2988,9.2988,9.2988,9.2988,9.2988,9.2988,9.2988,9.2988,9.2988,9.3322,9.414,9.4845,9.5663,9.6554,9.7334,9.778,9.7892,9.7892,9.7892,9.7892,9.7892,9.7892,9.7892,9.7892,9.7892,9.7892,9.7892,9.7892,0.0,0.0,0.0,0.0,0.0,0.0,0.0,0.0,3.1041,0.0,0.0,0.0,0.0,0.0,0.0,0.0,0.0,0.0,0.0,0.0,0.0,0.0,0.0,0.0,0.0,0.0,0.0,0.0,0.0,6.7513,6.8853,7.0206,7.1706,7.343,7.3507,7.4315,7.5976,7.6015,7.6,7.5963,7.5894,7.6645,7.8056,7.7321,7.781,7.9186,7.8565,7.829,7.8402,7.9665,8.0394,8.084,8.2192,8.2712,8.2749,8.3083,8.3195,8.3418,8.5038,8.5595,8.5892,8.7564,8.8084,8.8084,8.8084,8.8084,8.8084,8.8084,8.8084,8.8084,8.8084,8.8084,8.8084,8.8084,8.8455,8.9124,9.0239,9.087,9.1539,9.2765,9.2988,9.2988,9.2988,9.2988,9.2988,9.2988,9.2988,9.2988,9.2988,9.2988,9.2988,9.2988,9.2988,9.3508,9.4808,9.5217,9.596,9.726,9.7706,9.7892,9.7892,9.7892,9.7892,9.7892,9.7892,9.7892,9.7892,9.7892,9.7892,9.7892,9.7892,9.7892,4.6361,0.0,0.0,0.0,0.0,0.0,0.0,0.0,0.0,0.0,0.0,0.0,0.0,0.0,0.0,0.0,0.0,0.0,0.0,0.0,0.0,0.0,0.0,0.0,0.0,0.0,0.0,0.0,0.0,0.0,6.6891,6.9052,7.1129,7.3084,7.3392,7.4315,7.5976,7.6015,7.6015,7.6015,7.6015,7.6809,7.8267,7.7472,7.7954,7.9378,7.8618,7.829,7.8439,8.0036,8.0691,8.0891,8.2563,8.3195,8.3232,8.3455,8.3529,8.3752,8.5372,8.6078,8.6486,8.7675,8.8084,8.8084,8.8084,8.8084,8.8084,8.8084,8.8084,8.8084,8.8084,8.8084,8.8158,8.8381,8.8864,8.957,9.061,9.1279,9.1948,9.2839,9.2988,9.2988,9.2988,9.2988,9.2988,9.2988,9.2988,9.2988,9.2988,9.2988,9.2988,9.2988,9.3211,9.3879,9.5291,9.5588,9.6369,9.7817,9.7892,9.7892,9.7892,9.7892,9.7892,9.7892,9.7892,9.7892,9.7892,9.8115,9.8115,9.7892,9.7892,9.7892,0.0,0.0,0.0,4.1235,0.0,0.0,0.0,0.0,3.1929,0.0,0.0,0.0,0.0,0.0,0.0,0.0,0.0,0.0,0.0,0.0,0.0,0.0,0.0,0.0,0.0,0.0,0.0,0.0,0.0,0.0,6.3314,6.666,6.9622,7.2175,7.3053,7.4315,7.5976,7.6015,7.6015,7.6015,7.6015,7.6809,7.8267,7.7472,7.7954,7.9378,7.8618,7.829,7.8439,8.0036,8.0691,8.0891,8.2563,8.3195,8.3306,8.4087,8.4369,8.4592,8.6189,8.7304,8.801,8.81,8.8084,8.8084,8.8084,8.8084,8.8084,8.8084,8.8084,8.8084,8.8084,8.8084,8.8307,8.9087,8.9273,8.9719,9.1316,9.1688,9.1948,9.2839,9.2988,9.2988,9.2988,9.2988,9.2988,9.2988,9.2988,9.2988,9.2988,9.2988,9.2988,9.2988,9.3694,9.4511,9.5328,9.6108,9.6926,9.7855,9.7892,9.7892,9.7892,9.7892,9.7892,9.7892,9.7892,9.7892,9.7892,9.8672,9.8672,9.7892,9.7892,9.7892,0.0,0.0,4.9229,4.6279,0.0,0.0,0.0,0.0,0.0,0.0,0.0,0.0,0.0,0.0,0.0,0.0,0.0,0.0,0.0,0.0,0.0,0.0,0.0,0.0,0.0,0.0,0.0,0.0,5.4549,0.0,0.0,6.4045,6.7552,7.1206,7.2206,7.3707,7.5976,7.6015,7.6015,7.6015,7.6015,7.6809,7.8267,7.7472,7.7954,7.9378,7.8618,7.829,7.8439,8.0036,8.0691,8.0891,8.2563,8.3195,8.3306,8.4124,8.4406,8.4629,8.6226,8.7378,8.8084,8.8084,8.8084,8.8084,8.8084,8.8084,8.8084,8.8084,8.8084,8.8084,8.8084,8.8084,8.8307,8.9124,8.9719,9.0387,9.1465,9.2133,9.2653,9.2951,9.2988,9.2988,9.2988,9.2988,9.2988,9.2988,9.2988,9.2988,9.2988,9.2988,9.3211,9.3731,9.4028,9.4734,9.6071,9.6963,9.7595,9.7892,9.7892,9.7892,9.7892,9.7892,9.7892,9.7892,9.7892,9.7892,9.7892,9.8152,9.8152,9.7892,9.7892,9.7892,5.5845,5.4894,0.0,5.1405,4.8663,0.0,4.2261,0.0,0.0,0.0,0.0,0.0,0.0,0.0,0.0,0.0,0.0,0.0,0.0,0.0,0.0,0.0,0.0,0.0,0.0,0.0,4.7822,4.8399,5.001,0.0,0.0,0.0,6.532,6.986,7.1745,7.3745,7.5976,7.6015,7.6015,7.6015,7.6322,7.7116,7.8305,7.7903,7.8366,7.9448,7.8749,7.86,7.888,8.0162,8.0877,8.13,8.2675,8.3195,8.3343,8.4406,8.5186,8.5855,8.6895,8.7638,8.8084,8.8084,8.8084,8.8084,8.8084,8.8084,8.8084,8.8084,8.8084,8.8084,8.8084,8.8084,8.8381,8.9459,9.0127,9.0796,9.191,9.2579,9.2988,9.2988,9.2988,9.2988,9.2988,9.2988,9.2988,9.2988,9.2988,9.2988,9.2988,9.3248,9.3619,9.414,9.4697,9.5588,9.6963,9.7595,9.7892,9.7892,9.7892,9.7892,9.7892,9.7892,9.7892,9.7892,9.7892,9.7892,9.7892,9.8189,9.8189,9.7892,9.8189,9.8152]}]]